Date StartTime U_cm/s V_cm/s W_cm/s Ustd_cm/s Vstd_cm/s Wstd_cm/s Uvar_(cm/s)^2 Vvar_(cm/s)^2 Wvar_(cm/s)^2 KE_(m/s)^2 TurbulentKE_(m/s)^2 HorizWindSpeed_cm/s FrictionSpeec_cm/s DragCoef SpeedOfSound_m/s SonicTemperature_C Pressure_mb 
10/06/2014  00:00:00      -61.377      -21.217        4.737       44.669       18.332       12.206     1995.285      336.072      148.980        0.336        0.124       64.941       13.750        0.045      340.240       14.123      865.551
10/06/2014  00:01:00      -38.017      -25.511        4.417       25.024       27.498       14.832      626.208      756.153      219.999        0.186        0.080       45.783       13.343        0.085      340.309       14.241      865.569
10/06/2014  00:02:00      -60.712      -11.544       -4.189       20.179       17.271       12.061      407.207      298.271      145.478        0.234        0.043       61.800       11.374        0.034      340.280       14.193      865.570
10/06/2014  00:03:00      -79.030       -2.540       -3.688       27.040       16.465       13.580      731.183      271.085      184.410        0.373        0.059       79.071       13.220        0.028      340.163       13.994      865.577
10/06/2014  00:04:00     -111.111       -5.070      -10.265       14.508       10.539        7.805      210.473      111.069       60.922        0.643        0.019      111.227        4.882        0.002      340.181       14.023      865.585
10/06/2014  00:05:00      -78.874      -16.477       -6.735       27.348       14.656       10.935      747.937      214.802      119.565        0.381        0.054       80.577        9.941        0.015      340.125       13.929      865.594
10/06/2014  00:06:00      -71.426      -12.357       -0.813       35.715       20.044       13.841     1275.571      401.762      191.584        0.356        0.093       72.487       17.312        0.057      339.973       13.672      865.601
10/06/2014  00:07:00      -57.220      -17.837       -3.209       27.870       24.998       13.980      776.727      624.923      195.439        0.260        0.080       59.935       13.733        0.053      339.907       13.562      865.604
10/06/2014  00:08:00      -64.288      -13.500       -5.342       24.408       13.075       11.523      595.771      170.956      132.782        0.262        0.045       65.690       11.227        0.029      340.061       13.820      865.605
10/06/2014  00:09:00      -62.814       -7.899        0.296       29.470       18.564       14.291      868.477      344.604      204.222        0.271        0.071       63.308       15.531        0.060      339.965       13.660      865.605
10/06/2014  00:10:00     -115.336        0.879       -8.511       20.761       14.532       10.650      431.020      211.174      113.425        0.707        0.038      115.339       11.827        0.011      339.994       13.709      865.595
10/06/2014  00:11:00      -91.070      -19.360       -3.165       25.384       16.700       14.286      644.366      278.905      204.079        0.490        0.056       93.105       14.621        0.025      339.967       13.663      865.580
10/06/2014  00:12:00      -74.808      -25.276        3.059       21.654       24.355       15.458      468.877      593.190      238.960        0.377        0.065       78.963        8.552        0.012      339.887       13.529      865.571
10/06/2014  00:13:00      -89.167      -14.608        2.004       34.107       29.576       16.030     1163.312      874.750      256.952        0.523        0.115       90.355       16.557        0.034      339.910       13.567      865.568
10/06/2014  00:14:00      -99.078      -49.718        1.587       35.550       24.209       18.025     1263.816      586.097      324.916        0.723        0.109      110.853       16.145        0.021      340.010       13.737      865.556
10/06/2014  00:15:00     -100.079      -39.239        0.749       42.014       21.549       13.322     1765.175      464.355      177.485        0.698        0.120      107.496       16.913        0.025      340.025       13.761      865.541
10/06/2014  00:16:00     -104.315      -32.051       -3.169       25.821       21.098       14.234      666.705      445.136      202.605        0.662        0.066      109.127       10.008        0.008      340.001       13.720      865.524
10/06/2014  00:17:00     -116.629      -40.456       -0.025       26.808       26.687       16.141      718.671      712.171      260.519        0.846        0.085      123.446       14.390        0.014      339.965       13.659      865.510
10/06/2014  00:18:00     -141.815      -53.687        2.530       25.033       20.532       14.922      626.636      421.552      222.657        1.214        0.064      151.637       12.757        0.007      339.974       13.676      865.497
10/06/2014  00:19:00     -131.427      -39.163        0.206       34.493       28.519       15.030     1189.770      813.330      225.911        1.052        0.111      137.137       14.385        0.011      339.937       13.613      865.490
10/06/2014  00:20:00      -82.353      -21.057        0.592       35.854       25.736       16.230     1285.517      662.355      263.421        0.472        0.111       85.002       17.884        0.044      339.874       13.507      865.471
10/06/2014  00:21:00      -96.032      -15.198       -9.486       35.785       22.930       20.748     1280.539      525.784      430.500        0.589        0.112       97.227       19.103        0.039      339.822       13.419      865.474
10/06/2014  00:22:00     -104.484      -10.728       -6.857       26.795       19.626       18.227      717.977      385.189      332.231        0.626        0.072      105.033       14.673        0.020      339.878       13.515      865.468
10/06/2014  00:23:00      -60.628      -31.151       -1.595       23.874       20.928       14.622      569.974      438.001      213.792        0.294        0.061       68.163       13.259        0.038      339.910       13.569      865.460
10/06/2014  00:24:00      -67.716      -43.260       -7.751       13.689       16.090        9.844      187.385      258.888       96.911        0.353        0.027       80.355        7.128        0.008      339.996       13.713      865.447
10/06/2014  00:25:00      -74.591      -35.356      -13.559       17.095       21.192       13.073      292.230      449.114      170.906        0.395        0.046       82.547       11.408        0.019      339.926       13.595      865.452
10/06/2014  00:26:00      -89.325      -41.966      -11.753       14.822       19.170       12.990      219.697      367.481      168.750        0.532        0.038       98.692       11.124        0.013      339.784       13.354      865.448
10/06/2014  00:27:00      -90.057      -16.048      -16.375       18.376       20.580       17.358      337.676      423.520      301.309        0.485        0.053       91.476        9.977        0.012      339.684       13.186      865.442
10/06/2014  00:28:00      -97.654      -22.718      -18.956       21.649       17.027       12.785      468.658      289.918      163.459        0.567        0.046      100.261       11.136        0.012      339.506       12.886      865.447
10/06/2014  00:29:00      -96.659      -42.846      -19.309       12.571       15.889       12.505      158.039      252.458      156.385        0.606        0.028      105.730        8.069        0.006      339.536       12.935      865.455
10/06/2014  00:30:00      -80.567      -59.296      -16.360       31.982       17.835       17.242     1022.855      318.100      297.281        0.596        0.082      100.035       16.776        0.028      339.638       13.109      865.453
10/06/2014  00:31:00      -53.969      -36.877      -15.509       30.542       25.353       20.447      932.819      642.782      418.085        0.325        0.100       65.364       14.475        0.049      339.640       13.113      865.454
10/06/2014  00:32:00       -5.060      -18.868        6.515       21.042       16.852       14.684      442.762      283.981      215.627        0.068        0.047       19.535        6.286        0.104      339.717       13.242      865.470
10/06/2014  00:33:00       21.921      -14.912       19.677       19.828       19.513       15.116      393.160      380.748      228.507        0.105        0.050       26.512        9.846        0.138      339.637       13.107      865.469
10/06/2014  00:34:00      -71.787      -32.573      -21.537       28.237       25.382       12.728      797.312      644.257      161.990        0.414        0.080       78.831       10.842        0.019      339.650       13.131      865.460
10/06/2014  00:35:00     -107.595      -23.607      -12.382       17.204       21.170       15.561      295.988      448.175      242.133        0.664        0.049      110.155        8.726        0.006      339.609       13.060      865.466
10/06/2014  00:36:00     -117.308        1.567      -20.056       18.331       16.345       11.717      336.036      267.150      137.286        0.745        0.037      117.319        8.364        0.005      339.660       13.146      865.468
10/06/2014  00:37:00      -80.299      -44.354      -25.177       21.003       29.603       11.859      441.124      876.352      140.640        0.525        0.073       91.734       10.397        0.013      339.650       13.128      865.467
10/06/2014  00:38:00      -64.100      -31.901       -7.980       24.663       25.030       21.285      608.242      626.495      453.055        0.344        0.084       71.600       15.175        0.045      339.640       13.114      865.479
10/06/2014  00:39:00      -88.518      -57.363      -15.445       20.727       23.495       13.435      429.627      552.010      180.505        0.626        0.058      105.480       11.662        0.012      339.608       13.057      865.488
10/06/2014  00:40:00     -113.985      -48.137      -23.011       17.415       19.306       10.677      303.285      372.709      113.997        0.831        0.039      123.733        9.340        0.006      339.568       12.991      865.488
10/06/2014  00:41:00     -127.591      -38.838      -17.207       15.705       17.144       10.266      246.659      293.910      105.381        0.936        0.032      133.371        4.634        0.001      339.548       12.956      865.501
10/06/2014  00:42:00     -114.594      -40.158      -16.099       16.200       17.488       12.204      262.428      305.843      148.941        0.786        0.036      121.426        6.477        0.003      339.615       13.070      865.503
10/06/2014  00:43:00     -117.228      -40.147      -11.026       11.868       13.573        6.855      140.838      184.219       46.997        0.792        0.019      123.912        3.216        0.001      339.701       13.215      865.507
10/06/2014  00:44:00     -107.650      -29.857      -16.444       11.350       16.177       14.877      128.829      261.680      221.314        0.668        0.031      111.714        9.497        0.007      339.754       13.306      865.517
10/06/2014  00:45:00     -109.844      -30.467      -10.199       15.444       13.965        8.083      238.530      195.034       65.329        0.680        0.025      113.991        5.493        0.002      339.783       13.355      865.506
10/06/2014  00:46:00     -107.772      -30.774      -11.376        9.309       12.403        7.548       86.652      153.829       56.978        0.649        0.015      112.080        2.903        0.001      339.801       13.384      865.497
10/06/2014  00:47:00     -110.150      -32.164       -9.817        6.475        8.130        5.572       41.927       66.090       31.042        0.670        0.007      114.750        3.146        0.001      339.777       13.344      865.495
10/06/2014  00:48:00     -104.725      -35.533       -9.787       17.260       11.116        9.605      297.900      123.576       92.262        0.642        0.026      110.589        6.883        0.004      339.689       13.193      865.485
10/06/2014  00:49:00      -94.098      -35.293       -9.070       11.460       16.139       11.224      131.338      260.479      125.980        0.535        0.026      100.499        7.465        0.006      339.680       13.180      865.475
10/06/2014  00:50:00      -90.100      -18.950       -7.814       10.267       12.175        8.743      105.416      148.241       76.443        0.443        0.017       92.071        5.305        0.003      339.845       13.457      865.476
10/06/2014  00:51:00      -91.829      -38.142       -9.301        8.741        8.617        8.976       76.403       74.250       80.561        0.510        0.012       99.436        5.106        0.003      339.710       13.229      865.472
10/06/2014  00:52:00      -82.043      -42.247      -13.941       26.491       16.254       12.424      701.766      264.208      154.345        0.492        0.056       92.282        9.215        0.010      339.644       13.120      865.476
10/06/2014  00:53:00     -101.468      -49.374      -14.898       27.962       12.242       13.514      781.888      149.877      182.630        0.703        0.056      112.843        5.351        0.002      339.628       13.092      865.479
10/06/2014  00:54:00     -101.228      -53.239       -9.377       19.304       12.725        8.884      372.637      161.927       78.934        0.689        0.031      114.375        6.616        0.003      339.570       12.994      865.476
10/06/2014  00:55:00      -75.007      -46.030       -0.708       28.713       20.402       16.219      824.430      416.244      263.048        0.462        0.075       88.005       11.764        0.018      339.502       12.880      865.487
10/06/2014  00:56:00      -54.463      -39.769       -0.436       24.493       26.158       16.088      599.925      684.254      258.825        0.305        0.077       67.437       11.758        0.030      339.452       12.795      865.504
10/06/2014  00:57:00      -65.914      -25.838        1.842       18.886       14.949       11.082      356.671      223.482      122.816        0.286        0.035       70.798        5.419        0.006      339.554       12.967      865.503
10/06/2014  00:58:00      -22.952      -25.693        3.346       26.274       18.120       13.955      690.314      328.339      194.739        0.121        0.061       34.452       16.537        0.230      339.501       12.878      865.513
10/06/2014  00:59:00      -46.213      -23.797       -1.503       23.154       18.561       13.166      536.097      344.514      173.340        0.188        0.053       51.980       10.173        0.038      339.542       12.947      865.527
10/06/2014  01:00:00      -26.220       -9.537        5.300       37.544       18.861       15.010     1409.526      355.719      225.302        0.140        0.100       27.900       21.607        0.600      339.524       12.916      865.523
10/06/2014  01:01:00      -69.109      -26.619       -8.334       10.565       10.559       10.399      111.609      111.502      108.137        0.294        0.017       74.058        7.895        0.011      339.651       13.131      865.508
10/06/2014  01:02:00      -61.212      -33.655       -2.158        9.497       10.708        8.796       90.185      114.671       77.371        0.258        0.014       69.854        6.346        0.008      339.615       13.069      865.501
10/06/2014  01:03:00      -68.632      -37.852       -4.560       15.413       12.323        9.957      237.565      151.851       99.150        0.333        0.024       78.378        3.871        0.002      339.525       12.918      865.501
10/06/2014  01:04:00      -82.571      -38.607      -12.287       14.335       11.284        9.582      205.504      127.320       91.806        0.444        0.021       91.151        5.146        0.003      339.471       12.826      865.499
10/06/2014  01:05:00     -102.884      -36.790       -9.808       10.882        9.594        5.294      118.413       92.047       28.027        0.614        0.012      109.264        4.204        0.001      339.537       12.938      865.495
10/06/2014  01:06:00     -107.314      -31.878       -6.716       10.957       11.739        9.624      120.066      137.801       92.620        0.646        0.018      111.948        6.842        0.004      339.552       12.964      865.503
10/06/2014  01:07:00     -124.175      -42.283      -13.023       10.475       17.486        9.075      109.724      305.759       82.358        0.894        0.025      131.176        3.450        0.001      339.465       12.818      865.509
10/06/2014  01:08:00     -126.575      -40.536       -9.430       11.620       15.709        9.427      135.015      246.763       88.875        0.911        0.024      132.908        7.208        0.003      339.402       12.710      865.510
10/06/2014  01:09:00     -106.577      -38.780       -3.408       14.094       12.734       11.059      198.627      162.143      122.312        0.668        0.024      113.413        9.512        0.007      339.395       12.698      865.527
10/06/2014  01:10:00     -110.293      -42.014       -8.086       13.588       12.133       11.814      184.631      147.216      139.580        0.723        0.024      118.024        8.700        0.005      339.498       12.872      865.532
10/06/2014  01:11:00     -110.005      -44.209      -11.856        6.999        8.485        5.948       48.988       71.995       35.375        0.718        0.008      118.556        0.660        0.000      339.591       13.029      865.530
10/06/2014  01:12:00     -101.315      -32.011      -11.093        9.220        9.438        5.796       85.008       89.082       33.593        0.581        0.010      106.252        2.860        0.001      339.560       12.975      865.519
10/06/2014  01:13:00      -89.691      -28.492      -10.719        9.509       12.368        7.086       90.427      152.979       50.214        0.463        0.015       94.108        3.482        0.001      339.514       12.899      865.517
10/06/2014  01:14:00      -78.584      -16.480       -8.384       14.334       11.759        8.980      205.474      138.283       80.633        0.347        0.021       80.294        6.358        0.006      339.526       12.920      865.519
10/06/2014  01:15:00      -88.664      -33.298      -12.272       17.030       13.931        8.875      290.018      194.061       78.767        0.484        0.028       94.710        4.900        0.003      339.556       12.970      865.512
10/06/2014  01:16:00      -46.411      -28.341       -8.956       27.260       25.439       18.249      743.086      647.140      333.008        0.238        0.086       54.380       14.145        0.068      339.406       12.717      865.498
10/06/2014  01:17:00      -52.292      -53.698       -5.487       25.117       20.955       17.526      630.842      439.125      307.158        0.351        0.069       74.953       15.950        0.045      339.311       12.556      865.491
10/06/2014  01:18:00      -56.750      -36.233      -11.339       26.250       24.005       16.115      689.059      576.246      259.680        0.309        0.076       67.331       12.884        0.037      339.379       12.671      865.496
10/06/2014  01:19:00     -100.473      -17.865       -5.487       40.583       32.418       22.475     1647.003     1050.922      505.128        0.682        0.160      102.048       21.913        0.046      339.377       12.667      865.502
10/06/2014  01:20:00      -50.986       16.716       -0.173       42.683       34.147       21.338     1821.812     1166.015      455.302        0.316        0.172       53.657       18.446        0.118      339.365       12.649      865.503
10/06/2014  01:21:00      -97.871      -28.240        3.730       45.102       42.014       20.954     2034.194     1765.182      439.069        0.731        0.212      101.863       15.748        0.024      339.542       12.947      865.507
10/06/2014  01:22:00      -82.928       -9.590       -1.252       40.440       33.454       23.927     1635.376     1119.174      572.479        0.515        0.166       83.480       23.994        0.083      339.517       12.903      865.515
10/06/2014  01:23:00      -52.848       -2.358        4.139       44.279       31.950       18.161     1960.648     1020.826      329.840        0.306        0.166       52.901       19.040        0.130      339.372       12.659      865.517
10/06/2014  01:24:00      -89.126       10.284       -8.443       41.681       33.560       23.277     1737.298     1126.252      541.810        0.576        0.170       89.717       23.989        0.071      339.565       12.987      865.513
10/06/2014  01:25:00      -44.272       13.626        8.153       45.101       31.940       22.916     2034.068     1020.154      525.160        0.290        0.179       46.322       23.623        0.260      339.437       12.769      865.524
10/06/2014  01:26:00      -22.695       -6.295        0.991       22.278       18.522       11.902      496.296      343.058      141.662        0.077        0.049       23.552       11.950        0.257      339.499       12.875      865.537
10/06/2014  01:27:00      -43.485      -18.771      -15.154       19.311       16.548       12.474      372.912      273.826      155.597        0.164        0.040       47.363        6.428        0.018      339.620       13.078      865.533
10/06/2014  01:28:00      -55.211      -35.946      -25.476       13.976       14.932       11.863      195.332      222.979      140.722        0.277        0.028       65.881        9.670        0.022      339.677       13.175      865.533
10/06/2014  01:29:00      -67.760      -23.557      -15.345       13.471       14.585        8.245      181.455      212.728       67.980        0.292        0.023       71.738        8.243        0.013      339.713       13.235      865.530
10/06/2014  01:30:00      -73.011      -22.971      -13.633       20.191       20.714       12.803      407.676      429.090      163.910        0.352        0.050       76.539        9.577        0.016      339.631       13.097      865.542
10/06/2014  01:31:00      -54.655      -33.064       -8.298       23.610       22.019       19.012      557.441      484.832      361.470        0.278        0.070       63.878       16.921        0.070      339.622       13.082      865.547
10/06/2014  01:32:00      -89.493      -43.131      -15.003       32.333       21.782       12.492     1045.395      474.462      156.051        0.588        0.084       99.345        6.322        0.004      339.462       12.812      865.549
10/06/2014  01:33:00     -103.636      -35.682      -22.696       15.252       14.545       12.528      232.631      211.554      156.952        0.656        0.030      109.607        6.275        0.003      339.400       12.708      865.558
10/06/2014  01:34:00      -79.425      -33.128       -8.288       21.572       17.427       15.376      465.334      303.690      236.431        0.424        0.050       86.057       14.164        0.027      339.430       12.758      865.567
10/06/2014  01:35:00      -94.394        1.682      -18.788       13.482        7.384        6.743      181.766       54.519       45.463        0.477        0.014       94.409        5.647        0.004      339.655       13.137      865.561
10/06/2014  01:36:00      -62.954        4.565       -7.602        9.618       10.788        7.333       92.501      116.373       53.771        0.215        0.013       63.119        4.620        0.005      340.036       13.779      865.550
10/06/2014  01:37:00      -59.655      -13.844      -12.208       11.696       11.579        6.424      136.789      134.069       41.267        0.211        0.016       61.241        4.056        0.004      339.718       13.242      865.545
10/06/2014  01:38:00      -80.490      -25.960      -15.191       15.116        8.330        8.830      228.495       69.393       77.962        0.388        0.019       84.573        6.853        0.007      339.549       12.958      865.551
10/06/2014  01:39:00      -82.919      -23.161      -13.612       11.339       10.156        6.683      128.571      103.144       44.668        0.394        0.014       86.093        4.308        0.003      339.473       12.829      865.559
10/06/2014  01:40:00      -69.120      -21.998       -9.644       10.977       15.533       10.434      120.487      241.269      108.872        0.291        0.024       72.536        4.255        0.003      339.532       12.929      865.575
10/06/2014  01:41:00      -47.062      -32.727      -12.746       12.029       12.283        8.596      144.696      150.867       73.891        0.191        0.018       57.322        3.683        0.004      339.509       12.891      865.592
10/06/2014  01:42:00      -68.093      -19.862      -11.470       15.971       12.157        7.715      255.084      147.801       59.526        0.281        0.023       70.931        5.220        0.005      339.500       12.877      865.601
10/06/2014  01:43:00      -46.974      -24.644       -3.355       12.567       12.087        7.360      157.925      146.106       54.168        0.159        0.018       53.046        5.072        0.009      339.516       12.902      865.609
10/06/2014  01:44:00      -51.992      -21.620       -9.175       11.533        8.524        5.657      133.003       72.653       31.999        0.175        0.012       56.308        3.884        0.005      339.494       12.863      865.610
10/06/2014  01:45:00      -55.555      -24.165       -7.934        6.173        8.580        7.039       38.109       73.610       49.550        0.195        0.008       60.583        1.374        0.001      339.544       12.949      865.601
10/06/2014  01:46:00      -43.354      -15.544       -6.856        5.943        5.387        4.974       35.314       29.017       24.743        0.113        0.004       46.056        2.518        0.003      339.548       12.956      865.598
10/06/2014  01:47:00      -42.978       -5.458       -6.216       11.593        8.600        8.531      134.403       73.956       72.770        0.110        0.014       43.323        8.679        0.040      339.547       12.956      865.602
10/06/2014  01:48:00      -28.816      -11.921        1.619        6.459        8.013        6.400       41.723       64.215       40.965        0.056        0.007       31.184        2.281        0.005      339.542       12.949      865.597
10/06/2014  01:49:00      -40.202      -14.054       -3.498        7.144        9.131        5.639       51.034       83.375       31.794        0.100        0.008       42.588        3.896        0.008      339.500       12.877      865.587
10/06/2014  01:50:00      -52.271      -13.279       -1.008        9.292        8.082        6.412       86.346       65.320       41.115        0.155        0.010       53.931        4.451        0.007      339.366       12.650      865.592
10/06/2014  01:51:00      -44.720      -13.892       -1.870        8.095        7.427        7.659       65.525       55.162       58.661        0.119        0.009       46.828        4.655        0.010      339.363       12.644      865.595
10/06/2014  01:52:00      -13.604      -25.679       -1.800       17.841        5.429        6.518      318.294       29.476       42.485        0.062        0.020       29.059        6.634        0.052      339.480       12.840      865.595
10/06/2014  01:53:00       12.354      -33.154       -5.349       12.309       10.015        8.898      151.522      100.294       79.172        0.081        0.017       35.380        2.237        0.004      339.458       12.806      865.588
10/06/2014  01:54:00        6.765      -29.337      -13.662       24.610       10.867       11.088      605.670      118.095      122.954        0.097        0.042       30.107        1.309        0.002      339.501       12.878      865.592
10/06/2014  01:55:00      -29.137       -9.892        2.401       17.597       10.628        7.526      309.664      112.955       56.639        0.072        0.024       30.771        7.356        0.057      339.425       12.749      865.600
10/06/2014  01:56:00      -48.598      -17.669       -2.528       11.262        9.539        6.672      126.841       90.995       44.516        0.147        0.013       51.710        5.658        0.012      339.372       12.660      865.614
10/06/2014  01:57:00      -72.779      -27.262      -13.355        7.133        6.199        6.658       50.884       38.430       44.329        0.318        0.007       77.718        4.945        0.004      339.396       12.702      865.625
10/06/2014  01:58:00      -85.556      -27.180      -10.565        6.863        7.819        7.882       47.108       61.133       62.131        0.417        0.009       89.769        4.493        0.003      339.313       12.560      865.621
10/06/2014  01:59:00      -88.193      -32.176      -11.485        7.365        8.620        5.355       54.238       74.310       28.671        0.455        0.008       93.879        4.716        0.003      339.251       12.455      865.617
10/06/2014  02:00:00      -96.219      -34.948       -6.748       17.127       15.042        6.105      293.320      226.268       37.274        0.554        0.028      102.369        3.033        0.001      339.203       12.375      865.609
10/06/2014  02:01:00     -115.585      -25.081      -16.239       11.012       11.705        8.620      121.261      137.019       74.302        0.729        0.017      118.275        4.591        0.002      339.190       12.353      865.611
10/06/2014  02:02:00     -113.480      -14.954      -11.834       16.296       13.999       12.538      265.545      195.974      157.212        0.693        0.031      114.461        7.480        0.004      339.131       12.256      865.613
10/06/2014  02:03:00      -99.471       -8.862      -16.657       12.166        8.425        9.555      148.019       70.975       91.307        0.528        0.016       99.865        5.664        0.003      339.113       12.222      865.620
10/06/2014  02:04:00      -98.427      -18.574      -13.774       13.090       14.143       11.302      171.338      200.026      127.737        0.536        0.025      100.164        5.587        0.003      339.158       12.300      865.631
10/06/2014  02:05:00      -95.137      -18.929       -9.901       19.388       11.047       12.394      375.880      122.044      153.605        0.508        0.033       97.002       10.664        0.012      339.148       12.283      865.634
10/06/2014  02:06:00      -94.115      -23.284       -7.946       22.545       18.233       12.763      508.293      332.444      162.905        0.523        0.050       96.952       10.920        0.013      339.173       12.326      865.626
10/06/2014  02:07:00     -108.478      -35.161       -8.285       16.707       16.437       11.659      279.131      270.162      135.933        0.688        0.034      114.034        7.322        0.004      339.099       12.199      865.621
10/06/2014  02:08:00      -95.199      -34.895        1.725       24.874       22.461       12.890      618.714      504.497      166.151        0.579        0.064      101.393       13.009        0.016      338.979       11.997      865.621
10/06/2014  02:09:00     -104.728      -34.922       -0.334       27.653       23.853       16.165      764.674      568.957      261.293        0.689        0.080      110.397       14.792        0.018      339.004       12.040      865.621
10/06/2014  02:10:00     -107.194      -36.788        3.645       36.646       31.895       17.337     1342.959     1017.268      300.580        0.776        0.133      113.331       18.145        0.026      339.008       12.047      865.612
10/06/2014  02:11:00      -90.820      -56.110       -1.062       37.313       29.540       19.842     1392.275      872.612      393.701        0.703        0.133      106.755       16.199        0.023      338.942       11.935      865.616
10/06/2014  02:12:00     -112.350      -56.036       -2.697       26.186       27.342       16.867      685.713      747.570      284.510        0.874        0.086      125.549       15.765        0.016      338.992       12.021      865.629
10/06/2014  02:13:00     -126.932      -67.788       -4.170       29.358       20.020       16.292      861.899      400.805      265.426        1.113        0.076      143.899       11.490        0.006      339.056       12.127      865.640
10/06/2014  02:14:00      -95.343      -48.412        4.063       40.752       31.504       18.618     1660.761      992.513      346.645        0.722        0.150      106.930       13.369        0.016      339.020       12.069      865.636
10/06/2014  02:15:00     -104.350      -61.138        5.857       54.351       35.818       24.625     2953.989     1282.939      606.392        0.975        0.242      120.941       24.978        0.043      339.022       12.070      865.628
10/06/2014  02:16:00      -81.866      -53.485        1.861       62.269       45.355       28.853     3877.429     2057.101      832.494        0.817        0.338       97.789       30.784        0.099      339.019       12.066      865.630
10/06/2014  02:17:00     -112.656      -81.878       -1.279       63.344       63.126       32.825     4012.499     3984.887     1077.463        1.423        0.454      139.267       38.316        0.076      339.069       12.148      865.605
10/06/2014  02:18:00     -118.763      -84.625       -4.924       76.426       54.175       29.815     5840.911     2934.981      888.949        1.548        0.483      145.829       38.679        0.070      339.057       12.129      865.583
10/06/2014  02:19:00     -101.073      -60.145        1.214       47.495       40.326       26.857     2255.728     1626.169      721.297        0.922        0.230      117.614       22.863        0.038      339.007       12.045      865.561
10/06/2014  02:20:00      -82.865      -43.825       11.234       48.144       24.532       24.186     2317.799      601.829      584.941        0.621        0.175       93.741       24.540        0.069      338.961       11.969      865.542
10/06/2014  02:21:00      -66.520      -40.193        4.125       33.379       22.423       20.211     1114.129      502.780      408.493        0.404        0.101       77.720       16.016        0.042      338.963       11.971      865.524
10/06/2014  02:22:00     -109.631      -43.599       -4.210       27.530       21.414       16.025      757.919      458.576      256.790        0.771        0.074      117.982       15.332        0.017      338.912       11.885      865.494
10/06/2014  02:23:00     -109.364      -45.293       -3.333       31.094       23.009       17.811      966.816      529.408      317.226        0.792        0.091      118.372       14.486        0.015      338.890       11.850      865.472
10/06/2014  02:24:00     -114.808      -55.827        5.188       46.761       22.604       24.350     2186.630      510.930      592.899        0.981        0.165      127.662       24.082        0.036      338.927       11.911      865.458
10/06/2014  02:25:00     -115.469      -58.694       -1.995       50.622       29.389       19.369     2562.634      863.686      375.139        1.029        0.190      129.530       17.843        0.019      338.890       11.849      865.447
10/06/2014  02:26:00     -130.035      -46.181        1.971       39.714       24.308       18.863     1577.204      590.874      355.830        1.078        0.126      137.992       17.166        0.015      338.895       11.858      865.430
10/06/2014  02:27:00     -147.207      -53.315        1.401       33.617       19.008       15.535     1130.112      361.299      241.342        1.312        0.087      156.564       17.098        0.012      338.906       11.876      865.411
10/06/2014  02:28:00     -129.413      -51.827        2.189       29.490       27.537       18.338      869.680      758.294      336.275        1.070        0.098      139.405       13.728        0.010      338.840       11.765      865.409
10/06/2014  02:29:00     -136.680      -67.413       -1.348       27.213       23.733       15.015      740.540      563.254      225.464        1.238        0.076      152.400       11.439        0.006      338.949       11.948      865.406
10/06/2014  02:30:00     -137.621      -64.454        0.577       27.896       20.296       16.815      778.200      411.941      282.758        1.228        0.074      151.966       14.633        0.009      338.936       11.928      865.389
10/06/2014  02:31:00     -120.755      -42.296       -4.670       32.225       29.159       19.752     1038.435      850.233      390.160        0.934        0.114      127.948       16.207        0.016      338.833       11.754      865.385
10/06/2014  02:32:00     -123.861      -44.674        0.980       34.569       22.406       16.981     1195.047      502.015      288.343        0.966        0.099      131.671       17.649        0.018      338.799       11.696      865.388
10/06/2014  02:33:00     -121.143      -42.114        0.449       36.986       28.673       16.203     1367.927      822.143      262.527        0.945        0.123      128.255        9.492        0.005      338.838       11.760      865.375
10/06/2014  02:34:00     -106.415      -31.666       -5.126       20.664       16.883       12.742      426.982      285.032      162.364        0.661        0.044      111.026       10.182        0.008      338.770       11.648      865.363
10/06/2014  02:35:00      -85.422      -21.000       -3.151       27.594       14.164       13.893      761.444      200.616      193.007        0.445        0.058       87.965       15.765        0.032      338.684       11.502      865.358
10/06/2014  02:36:00      -81.011      -38.655      -11.608       17.190       15.487       13.223      295.491      239.863      174.860        0.445        0.036       89.761       12.944        0.021      338.650       11.445      865.365
10/06/2014  02:37:00      -55.199      -45.109       -2.729       17.912       13.453       11.655      320.831      180.981      135.848        0.286        0.032       71.286        7.923        0.012      338.692       11.516      865.354
10/06/2014  02:38:00      -31.530       -7.508        0.641       12.270       21.743       14.990      150.553      472.755      224.708        0.095        0.042       32.411       12.615        0.151      338.740       11.595      865.344
10/06/2014  02:39:00      -33.585       -0.091       -8.378       13.915       24.150       12.564      193.616      583.229      157.852        0.107        0.047       33.585       13.168        0.154      338.931       11.919      865.334
10/06/2014  02:40:00      -44.902        2.503       -2.524       18.727       21.981       13.648      350.697      483.169      186.260        0.152        0.051       44.972       12.925        0.083      339.029       12.084      865.319
10/06/2014  02:41:00      -31.726        6.099       -5.273       18.676       20.340       11.063      348.779      413.715      122.386        0.098        0.044       32.307        9.878        0.093      339.055       12.127      865.305
10/06/2014  02:42:00      -30.241      -19.822       -1.171       11.828       15.395       11.973      139.898      237.008      143.358        0.091        0.026       36.159        8.994        0.062      339.061       12.138      865.306
10/06/2014  02:43:00      -10.417      -27.630       -0.802       11.795       19.511        9.943      139.125      380.679       98.861        0.075        0.031       29.528        8.702        0.087      338.856       11.791      865.314
10/06/2014  02:44:00        4.543      -16.281       -5.791       17.003       22.596        9.497      289.095      510.586       90.195        0.060        0.044       16.903        4.645        0.076      338.813       11.720      865.317
10/06/2014  02:45:00       10.868      -14.324        8.963       11.324       10.864        7.773      128.229      118.026       60.413        0.036        0.015       17.980        5.484        0.093      338.778       11.660      865.319
10/06/2014  02:46:00        5.064        8.436       15.477       11.545        9.296       12.028      133.288       86.422      144.676        0.035        0.018        9.840        6.987        0.504      338.769       11.646      865.330
10/06/2014  02:47:00       12.708       14.491       -2.372       14.812       13.016        6.135      219.393      169.422       37.632        0.040        0.021       19.274        6.332        0.108      339.245       12.446      865.333
10/06/2014  02:48:00       -1.412       20.588       -0.529       26.075       25.162       11.427      679.928      633.115      130.585        0.093        0.072       20.636       10.262        0.247      339.316       12.565      865.329
10/06/2014  02:49:00      -25.708      -36.347        6.619       14.059       12.233       15.296      197.644      149.638      233.962        0.130        0.029       44.520        8.713        0.038      339.251       12.456      865.313
10/06/2014  02:50:00       -9.635      -34.317       -8.939        9.286       10.272       11.772       86.235      105.513      138.591        0.084        0.017       35.644        8.236        0.053      338.901       11.868      865.302
10/06/2014  02:51:00      -41.554      -23.761       -7.849       14.574       10.453        7.482      212.394      109.260       55.976        0.137        0.019       47.868        3.570        0.006      338.651       11.445      865.304
10/06/2014  02:52:00      -67.196      -22.985       -9.425        9.421       12.364        7.885       88.756      152.868       62.167        0.272        0.015       71.018        5.220        0.005      338.674       11.485      865.302
10/06/2014  02:53:00      -69.322      -17.517      -10.193       11.760       11.520        7.056      138.301      132.707       49.785        0.277        0.016       71.501        4.751        0.004      338.701       11.531      865.300
10/06/2014  02:54:00      -81.322      -24.182      -13.372        6.597        9.375        6.890       43.523       87.893       47.473        0.378        0.009       84.841        4.721        0.003      338.653       11.450      865.282
10/06/2014  02:55:00      -85.562      -19.145      -12.890       12.574       14.552       12.663      158.109      211.759      160.353        0.419        0.027       87.678        6.848        0.006      338.684       11.502      865.263
10/06/2014  02:56:00     -105.522      -40.060      -11.159       13.892        9.779        7.688      192.983       95.637       59.107        0.661        0.017      112.870        5.287        0.002      338.641       11.431      865.255
10/06/2014  02:57:00     -101.367      -50.304       -5.518       13.285       16.147       11.080      176.503      260.729      122.771        0.670        0.028      113.163        6.679        0.003      338.590       11.344      865.254
10/06/2014  02:58:00     -100.049      -32.245       -8.077       14.480       16.317       10.449      209.666      266.260      109.191        0.585        0.029      105.117        8.240        0.006      338.583       11.333      865.240
10/06/2014  02:59:00      -97.582      -36.888      -12.851       17.401       13.446       11.194      302.789      180.799      125.312        0.583        0.030      104.322        6.593        0.004      338.578       11.325      865.238
10/06/2014  03:00:00     -112.641      -41.445      -11.560       18.304       16.024       12.253      335.020      256.774      150.139        0.764        0.037      120.024        5.798        0.002      338.603       11.366      865.239
10/06/2014  03:01:00      -95.091      -43.492       -2.358       17.599       16.192       13.698      309.738      262.194      187.633        0.585        0.038      104.565       10.601        0.010      338.562       11.298      865.239
10/06/2014  03:02:00      -64.837      -47.351       -6.336       16.553       10.409       12.947      273.991      108.354      167.633        0.352        0.027       80.287        7.539        0.009      338.595       11.355      865.236
10/06/2014  03:03:00      -76.340      -37.537       -3.943       10.245       14.081        9.904      104.964      198.287       98.098        0.383        0.020       85.069        7.912        0.009      338.639       11.428      865.233
10/06/2014  03:04:00      -70.588      -22.992       -6.999        8.406       10.978        8.299       70.653      120.518       68.876        0.291        0.013       74.238        5.104        0.005      338.639       11.428      865.239
10/06/2014  03:05:00      -80.742      -27.937       -8.961        9.766       13.294        8.046       95.371      176.732       64.738        0.386        0.017       85.438        4.122        0.002      338.715       11.554      865.243
10/06/2014  03:06:00      -62.224      -27.903       -1.911       12.035       12.215        7.481      144.843      149.204       55.959        0.250        0.018       68.193        6.582        0.009      338.777       11.659      865.260
10/06/2014  03:07:00      -15.258       -5.926        0.854        9.705       10.535        6.168       94.190      110.986       38.039        0.026        0.012       16.368        6.765        0.171      338.653       11.451      865.273
10/06/2014  03:08:00      -29.634      -15.043       -2.336       11.611        7.561        7.283      134.807       57.170       53.046        0.068        0.012       33.233        6.036        0.033      338.820       11.729      865.270
10/06/2014  03:09:00      -54.753      -17.987      -10.039        6.071        6.266        5.700       36.855       39.264       32.493        0.177        0.005       57.632        1.903        0.001      338.942       11.936      865.263
10/06/2014  03:10:00      -66.017      -28.659      -12.679        6.084        7.714        5.643       37.019       59.498       31.838        0.273        0.006       71.970        3.249        0.002      338.762       11.632      865.256
10/06/2014  03:11:00      -54.044      -16.371      -11.623        5.023        6.314        4.435       25.227       39.864       19.673        0.170        0.004       56.469        2.968        0.003      338.720       11.563      865.265
10/06/2014  03:12:00      -41.693      -22.359       -8.870        6.692        7.117        5.643       44.789       50.654       31.848        0.122        0.006       47.310        2.725        0.003      338.748       11.611      865.263
10/06/2014  03:13:00      -52.238      -24.986       -6.322       10.248        8.077        6.960      105.017       65.241       48.437        0.181        0.011       57.906        5.915        0.010      338.712       11.548      865.246
10/06/2014  03:14:00      -68.304      -25.108      -11.060        8.968       11.755        7.209       80.430      138.191       51.976        0.284        0.014       72.772        4.426        0.004      338.764       11.638      865.227
10/06/2014  03:15:00      -71.197      -32.005      -12.299       12.067       14.470        8.376      145.611      209.383       70.153        0.333        0.021       78.060        6.563        0.007      338.546       11.271      865.208
10/06/2014  03:16:00      -97.339      -21.330       -9.306       13.139       16.289        9.135      172.626      265.339       83.448        0.527        0.026       99.649        5.353        0.003      338.454       11.119      865.204
10/06/2014  03:17:00      -89.017      -27.010      -12.337       14.356       13.103       10.274      206.093      171.698      105.563        0.464        0.024       93.025        7.411        0.006      338.503       11.198      865.197
10/06/2014  03:18:00     -116.362      -25.165      -16.533       11.053       12.979       11.115      122.160      168.450      123.552        0.743        0.021      119.052        8.402        0.005      338.466       11.136      865.188
10/06/2014  03:19:00     -126.246      -35.166      -11.057       14.398       13.833       11.109      207.301      191.351      123.399        0.891        0.026      131.053        7.515        0.003      338.471       11.144      865.180
10/06/2014  03:20:00     -127.344      -45.200      -11.520        8.716       11.155        8.372       75.968      124.437       70.088        0.933        0.014      135.128        3.904        0.001      338.466       11.138      865.186
10/06/2014  03:21:00     -137.081      -36.515      -12.606       17.496       14.049       13.371      306.119      197.376      178.786        1.048        0.034      141.861       10.902        0.006      338.416       11.053      865.189
10/06/2014  03:22:00     -124.562      -46.827       -6.045       17.968       23.644       13.717      322.861      559.032      188.168        0.941        0.054      133.073        9.605        0.005      338.474       11.150      865.198
10/06/2014  03:23:00     -101.127      -60.842       -9.384       18.217       15.678       12.962      331.877      245.807      168.024        0.738        0.037      118.019        6.692        0.003      338.463       11.131      865.207
10/06/2014  03:24:00      -80.474      -42.949       -6.758       13.737       18.382       12.053      188.709      337.887      145.272        0.452        0.034       91.218        8.635        0.009      338.429       11.073      865.206
10/06/2014  03:25:00      -82.934      -34.827       -9.588       10.942       15.108        8.744      119.730      228.254       76.465        0.430        0.021       89.950        7.263        0.007      338.502       11.197      865.199
10/06/2014  03:26:00      -61.549      -46.866       -6.457       16.242       12.604        9.566      263.806      158.862       91.503        0.327        0.026       77.361        9.699        0.016      338.519       11.225      865.188
10/06/2014  03:27:00      -73.229      -47.967       -9.404       14.111       17.562       11.800      199.122      308.407      139.251        0.420        0.032       87.540        7.469        0.007      338.467       11.139      865.172
10/06/2014  03:28:00      -91.143      -29.446      -10.383       12.551       14.504        8.564      157.531      210.374       73.342        0.486        0.022       95.782        7.013        0.005      338.384       11.001      865.167
10/06/2014  03:29:00      -68.167      -19.338       -4.855       22.442       16.532       12.661      503.631      273.316      160.311        0.299        0.047       70.857       12.627        0.032      338.392       11.013      865.175
10/06/2014  03:30:00      -65.374      -12.935       -3.251       12.218       14.378        8.826      149.276      206.738       77.903        0.244        0.022       66.641        6.534        0.010      338.366       10.969      865.179
10/06/2014  03:31:00      -65.011      -24.509       -6.213        9.796       10.060        8.530       95.967      101.201       72.754        0.257        0.013       69.477        4.828        0.005      338.417       11.053      865.184
10/06/2014  03:32:00      -61.797      -14.305       -8.666       14.455       12.642        8.861      208.943      159.816       78.522        0.227        0.022       63.431        6.703        0.011      338.390       11.009      865.193
10/06/2014  03:33:00      -73.189      -18.859       -4.225       21.433       13.120        9.159      459.366      172.123       83.888        0.322        0.036       75.579        8.021        0.011      338.281       10.825      865.211
10/06/2014  03:34:00      -77.135      -18.608       -6.645       20.554       16.594       10.933      422.451      275.359      119.522        0.358        0.041       79.347        6.984        0.008      338.241       10.759      865.235
10/06/2014  03:35:00      -68.490      -21.438       -5.177       16.031       21.886       10.317      256.983      478.982      106.432        0.301        0.042       71.767        8.286        0.013      338.270       10.808      865.260
10/06/2014  03:36:00      -91.816      -27.059       -1.410       12.217       12.229       10.551      149.245      149.550      111.331        0.479        0.021       95.720        7.284        0.006      338.319       10.890      865.274
10/06/2014  03:37:00      -89.726      -42.464       -0.246       15.347       11.457        9.226      235.529      131.257       85.128        0.515        0.023       99.267        7.859        0.006      338.368       10.972      865.277
10/06/2014  03:38:00      -91.372      -38.490       -4.281       10.006       13.377        7.767      100.118      178.948       60.328        0.509        0.017       99.148        5.272        0.003      338.437       11.087      865.298
10/06/2014  03:39:00      -92.875      -42.086       -6.548        8.579        9.031        6.190       73.605       81.556       38.316        0.532        0.010      101.965        4.593        0.002      338.453       11.115      865.314
10/06/2014  03:40:00      -98.625      -41.400       -9.356        5.384        5.601        3.999       28.991       31.375       15.992        0.580        0.004      106.962        2.668        0.001      338.452       11.113      865.315
10/06/2014  03:41:00     -107.458      -27.659       -9.391       10.894        9.293        6.410      118.672       86.368       41.091        0.632        0.012      110.961        4.676        0.002      338.435       11.085      865.307
10/06/2014  03:42:00     -131.198      -30.523      -14.247        8.303        8.842        7.300       68.942       78.178       53.285        0.927        0.010      134.702        2.359        0.000      338.374       10.980      865.298
10/06/2014  03:43:00     -125.614      -47.759       -8.096       17.845       19.214       11.593      318.449      369.161      134.395        0.947        0.041      134.386        8.650        0.004      338.357       10.954      865.303
10/06/2014  03:44:00      -94.363      -20.545       -6.219       27.102       23.382       15.684      734.510      546.732      245.994        0.545        0.076       96.574       14.858        0.024      338.280       10.824      865.306
10/06/2014  03:45:00     -128.408       -8.831      -11.279       19.416       15.189       11.753      376.994      230.704      138.134        0.872        0.037      128.712        9.684        0.006      338.251       10.775      865.310
10/06/2014  03:46:00     -123.534      -23.903      -10.703       24.120       20.211       12.782      581.771      408.471      163.383        0.855        0.058      125.826       12.150        0.009      338.259       10.789      865.307
10/06/2014  03:47:00     -105.468      -23.784       -3.845       34.898       20.571       17.405     1217.872      423.161      302.945        0.682        0.097      108.116       17.230        0.025      338.167       10.635      865.306
10/06/2014  03:48:00     -120.273      -21.329       -5.928       39.209       22.076       17.091     1537.346      487.354      292.107        0.864        0.116      122.150       17.812        0.021      338.088       10.503      865.311
10/06/2014  03:49:00     -114.259      -11.503       -7.870       44.822       18.960       23.021     2009.021      359.500      529.944        0.807        0.145      114.836       25.098        0.048      338.041       10.422      865.305
10/06/2014  03:50:00     -110.637      -17.572       -3.788       41.152       20.816       16.459     1693.509      433.312      270.910        0.748        0.120      112.024       17.722        0.025      337.965       10.297      865.305
10/06/2014  03:51:00     -129.427      -26.010      -10.009       31.328       19.638       18.931      981.423      385.645      358.393        0.963        0.086      132.014       20.158        0.023      337.929       10.234      865.307
10/06/2014  03:52:00     -143.462      -44.229      -17.882       16.320       18.223       16.633      266.345      332.089      276.661        1.187        0.044      150.125        9.535        0.004      337.918       10.216      865.317
10/06/2014  03:53:00     -140.083      -40.343      -14.308       26.765       30.212       20.219      716.352      912.754      408.817        1.175        0.102      145.777       16.584        0.013      337.860       10.118      865.308
10/06/2014  03:54:00     -154.348      -51.324      -22.088       21.961       18.073       18.246      482.303      326.640      332.922        1.404        0.057      162.658       12.894        0.006      337.919       10.220      865.300
10/06/2014  03:55:00     -122.221      -44.218       -8.784       31.143       23.487       16.434      969.893      551.637      270.064        0.938        0.090      129.974       17.032        0.017      337.856       10.113      865.299
10/06/2014  03:56:00     -123.519      -31.875       -4.220       44.646       29.462       22.817     1993.250      867.981      520.635        0.984        0.169      127.566       21.569        0.029      337.856       10.113      865.302
10/06/2014  03:57:00     -110.797      -12.120       -9.027       38.186       30.782       21.048     1458.172      947.542      443.022        0.768        0.142      111.458       21.232        0.036      337.900       10.186      865.289
10/06/2014  03:58:00      -95.986      -33.508        3.747       35.942       33.577       19.657     1291.817     1127.447      386.415        0.658        0.140      101.666       17.100        0.028      337.892       10.172      865.268
10/06/2014  03:59:00     -100.883      -44.826       -1.732       30.202       22.005       15.348      912.163      484.232      235.574        0.691        0.082      110.393       11.805        0.011      337.927       10.231      865.261
10/06/2014  04:00:00      -92.502      -33.148       -3.997       26.035       32.103       17.263      677.838     1030.589      298.004        0.584        0.100       98.262       12.508        0.016      337.978       10.317      865.252
10/06/2014  04:01:00      -92.931      -24.721       -5.850       37.553       26.950       15.640     1410.225      726.283      244.610        0.583        0.119       96.163       18.304        0.036      337.968       10.300      865.235
10/06/2014  04:02:00      -91.850      -18.772       -7.292       32.833       20.921       19.108     1078.010      437.673      365.135        0.536        0.094       93.749       16.207        0.030      338.002       10.357      865.226
10/06/2014  04:03:00      -79.386      -16.577       -4.325       22.811       22.120       13.784      520.320      489.295      190.004        0.390        0.060       81.098       12.661        0.024      338.068       10.468      865.224
10/06/2014  04:04:00      -69.297       14.676       -4.351       45.455       37.317       18.783     2066.124     1392.564      352.791        0.442        0.191       70.834       13.361        0.036      338.331       10.910      865.224
10/06/2014  04:05:00     -110.271        9.314       -6.876       34.728       29.987       22.400     1206.007      899.194      501.762        0.745        0.130      110.663       16.903        0.023      338.514       11.217      865.238
10/06/2014  04:06:00     -105.776       -3.953       -9.024       51.416       29.111       24.412     2643.644      847.463      595.959        0.769        0.204      105.850       23.263        0.048      338.545       11.269      865.250
10/06/2014  04:07:00      -87.982      -15.113       -5.586       33.981       41.506       22.829     1154.716     1722.760      521.151        0.570        0.170       89.271       18.752        0.044      338.438       11.088      865.258
10/06/2014  04:08:00      -98.121      -40.052       -7.561       19.037       23.344       14.235      362.401      544.964      202.637        0.620        0.056      105.981       10.730        0.010      338.185       10.664      865.271
10/06/2014  04:09:00      -77.235      -58.695       -7.772       33.201       26.360       15.124     1102.276      694.838      228.721        0.575        0.101       97.007       14.410        0.022      338.115       10.547      865.275
10/06/2014  04:10:00      -42.236      -34.969        1.632       35.274       25.233       21.073     1244.280      636.697      444.070        0.267        0.116       54.833       21.190        0.149      338.107       10.534      865.276
10/06/2014  04:11:00      -73.915      -46.946       -9.018       22.747       18.382       15.592      517.438      337.895      243.110        0.442        0.055       87.564       11.737        0.018      338.086       10.499      865.274
10/06/2014  04:12:00      -98.434      -34.597      -12.303       26.696       22.066       20.007      712.652      486.891      400.298        0.632        0.080      104.337       15.727        0.023      338.053       10.443      865.281
10/06/2014  04:13:00     -105.213      -58.560      -10.245       18.465       20.300       10.841      340.938      412.089      117.524        0.774        0.044      120.412        7.016        0.003      338.093       10.509      865.291
10/06/2014  04:14:00     -117.796      -56.467      -10.921       36.280       22.550       18.092     1316.258      508.512      327.327        0.967        0.108      130.631       14.237        0.012      338.108       10.535      865.285
10/06/2014  04:15:00      -83.202      -59.328       -1.013       43.965       32.273       21.602     1932.917     1041.532      466.645        0.694        0.172      102.188       19.574        0.037      338.168       10.636      865.291
10/06/2014  04:16:00      -64.519      -60.826        6.325       57.244       44.783       23.348     3276.920     2005.473      545.141        0.686        0.291       88.671       28.747        0.105      338.162       10.627      865.302
10/06/2014  04:17:00      -86.224      -61.357       -5.799       31.248       24.657       18.251      976.409      607.950      333.116        0.657        0.096      105.827       15.282        0.021      338.200       10.689      865.306
10/06/2014  04:18:00      -76.894      -33.822       -9.770       15.359       21.853       13.520      235.904      477.548      182.796        0.402        0.045       84.004        6.371        0.006      338.312       10.879      865.311
10/06/2014  04:19:00      -69.900      -44.779        1.572       41.954       26.025       19.299     1760.171      677.324      372.466        0.485        0.140       83.013       18.302        0.049      338.184       10.664      865.337
10/06/2014  04:20:00     -119.039      -70.450       -6.521       22.477       17.614       14.093      505.212      310.254      198.608        1.009        0.051      138.324        4.441        0.001      338.040       10.422      865.344
10/06/2014  04:21:00      -58.926      -64.464        4.934       33.786       34.622       22.236     1141.484     1198.702      494.419        0.524        0.142       87.337       22.509        0.066      338.149       10.603      865.347
10/06/2014  04:22:00      -56.228      -52.645        7.679       37.927       31.581       24.392     1438.488      997.385      594.968        0.451        0.152       77.027       20.536        0.071      338.079       10.487      865.357
10/06/2014  04:23:00      -77.042      -25.334        2.344       35.711       25.582       20.322     1275.252      654.453      412.996        0.446        0.117       81.101       11.177        0.019      338.157       10.617      865.369
10/06/2014  04:24:00      -75.128      -54.556       -4.076       31.936       27.675       15.100     1019.891      765.929      228.022        0.533        0.101       92.847        5.297        0.003      338.269       10.805      865.363
10/06/2014  04:25:00      -96.102      -43.711       -7.392       23.906       22.959       14.732      571.507      527.096      217.039        0.626        0.066      105.575       11.555        0.012      338.130       10.571      865.351
10/06/2014  04:26:00      -96.558      -42.469       -2.830       21.648       19.542       14.019      468.629      381.905      196.537        0.609        0.052      105.485       14.517        0.019      338.161       10.624      865.345
10/06/2014  04:27:00      -72.606      -36.030        1.178       25.055       14.589       16.045      627.776      212.832      257.441        0.383        0.055       81.054       15.082        0.035      338.093       10.510      865.354
10/06/2014  04:28:00      -64.819      -38.808       -9.632       15.895       11.789       10.796      252.644      138.988      116.562        0.315        0.025       75.549        4.280        0.003      338.193       10.677      865.362
10/06/2014  04:29:00      -61.825      -22.449       -2.956       12.681       12.292        8.377      160.796      151.103       70.168        0.236        0.019       65.775        4.072        0.004      338.170       10.638      865.361
10/06/2014  04:30:00      -57.079      -31.259       -2.063       10.667       10.788       10.173      113.781      116.378      103.486        0.229        0.017       65.078        6.116        0.009      338.141       10.591      865.365
10/06/2014  04:31:00      -80.811      -46.153       -6.056       14.383       12.423        7.660      206.873      154.320       58.681        0.456        0.021       93.062        4.423        0.002      338.207       10.700      865.364
10/06/2014  04:32:00      -61.007      -51.300        1.720       32.549       28.072       20.642     1059.438      788.036      426.081        0.431        0.114       79.709       18.822        0.056      338.072       10.476      865.356
10/06/2014  04:33:00      -56.035      -58.011        1.019       31.213       28.346       21.046      974.254      803.510      442.948        0.436        0.111       80.655       20.303        0.063      338.173       10.645      865.348
10/06/2014  04:34:00     -116.972      -91.334       -9.519       38.982       37.672       28.333     1519.614     1419.186      802.743        1.293        0.187      148.406       21.165        0.020      338.209       10.704      865.334
10/06/2014  04:35:00     -143.601     -126.030      -10.367       32.213       45.151       26.362     1037.652     2038.574      694.974        2.019        0.189      191.063       19.394        0.010      338.213       10.709      865.321
10/06/2014  04:36:00     -100.741      -71.765       -6.364       46.587       37.445       22.894     2170.388     1402.119      524.155        0.972        0.205      123.689       12.971        0.011      338.191       10.674      865.318
10/06/2014  04:37:00      -68.552      -63.165        4.843       35.882       34.184       27.341     1287.530     1168.578      747.530        0.596        0.160       93.215       21.871        0.055      338.206       10.699      865.316
10/06/2014  04:38:00      -87.849      -55.722       -4.907       36.448       24.416       23.952     1328.485      596.137      573.713        0.667        0.125      104.031       24.008        0.053      338.184       10.662      865.314
10/06/2014  04:39:00      -88.267      -85.735       -1.609       23.579       18.539       16.444      555.956      343.711      270.401        0.816        0.059      123.051       11.029        0.008      338.177       10.651      865.311
10/06/2014  04:40:00      -57.862      -44.366      -10.377       25.067       23.678       14.588      628.375      560.664      212.806        0.341        0.070       72.914       13.705        0.035      338.177       10.651      865.311
10/06/2014  04:41:00       -8.556      -22.220        3.934       18.084       18.954       12.332      327.040      359.265      152.072        0.071        0.042       23.810        9.803        0.170      338.191       10.676      865.311
10/06/2014  04:42:00       -1.837       -9.642        0.640        9.301        9.256        9.787       86.518       85.669       95.791        0.018        0.013        9.816        3.202        0.106      338.208       10.702      865.313
10/06/2014  04:43:00       -3.926      -16.809       -7.434        6.925        5.838        6.284       47.957       34.084       39.495        0.024        0.006       17.262        3.198        0.034      338.205       10.700      865.307
10/06/2014  04:44:00      -17.959      -28.852        3.880       14.598       10.550        7.261      213.110      111.307       52.718        0.077        0.019       33.985        6.447        0.036      338.250       10.773      865.315
10/06/2014  04:45:00      -43.977        2.595       -4.673       10.158        7.624        7.702      103.177       58.125       59.323        0.109        0.011       44.053        4.432        0.010      338.220       10.723      865.320
10/06/2014  04:46:00      -59.669        6.112       -2.603        9.430        7.878        6.157       88.929       62.057       37.905        0.190        0.009       59.982        3.255        0.003      338.121       10.557      865.326
10/06/2014  04:47:00      -43.813       -9.988       -4.061        9.681        8.429        6.174       93.726       71.042       38.119        0.112        0.010       44.937        4.362        0.009      338.058       10.453      865.329
10/06/2014  04:48:00      -28.966        1.043       -4.928       10.658        9.694        7.040      113.593       93.979       49.566        0.056        0.013       28.985        3.974        0.019      337.981       10.321      865.334
10/06/2014  04:49:00      -20.628       15.883       -8.174        5.069       10.960        7.070       25.697      120.129       49.984        0.047        0.010       26.034        2.549        0.010      337.893       10.174      865.341
10/06/2014  04:50:00      -43.435        9.943      -10.696        7.902        7.941        8.162       62.441       63.058       66.614        0.115        0.010       44.559        3.462        0.006      337.939       10.252      865.351
10/06/2014  04:51:00      -32.853       -2.133       -5.601        8.229        5.263        4.562       67.711       27.696       20.810        0.062        0.006       32.922        3.308        0.010      337.997       10.349      865.356
10/06/2014  04:52:00      -31.184      -11.131       -4.939        8.957        6.808        5.038       80.220       46.355       25.383        0.064        0.008       33.111        3.577        0.012      338.009       10.369      865.370
10/06/2014  04:53:00      -51.806       -6.753       -8.689       13.241        7.270        4.919      175.318       52.848       24.197        0.153        0.013       52.244        4.289        0.007      337.990       10.338      865.373
10/06/2014  04:54:00      -74.648        1.807       -9.020       12.505        9.043        8.596      156.367       81.773       73.888        0.298        0.016       74.670        3.792        0.003      337.983       10.326      865.375
10/06/2014  04:55:00      -79.766        5.912       -9.934       13.336        8.683       10.825      177.836       75.397      117.177        0.343        0.019       79.984        7.874        0.010      337.841       10.088      865.375
10/06/2014  04:56:00      -70.348        2.416      -11.061       11.718        8.786        6.545      137.313       77.194       42.837        0.267        0.013       70.389        4.262        0.004      337.910       10.203      865.374
10/06/2014  04:57:00      -38.286       -7.918       -4.693       20.390       10.045        7.500      415.751      100.892       56.248        0.106        0.029       39.097       10.702        0.075      337.903       10.192      865.379
10/06/2014  04:58:00       17.040       -9.891       -9.217       12.842       12.297        8.907      164.927      151.218       79.330        0.043        0.020       19.703        6.659        0.114      337.992       10.340      865.395
10/06/2014  04:59:00        4.846       -2.011       -4.909        9.876       11.879        8.283       97.530      141.104       68.614        0.018        0.015        5.246        6.931        1.746      337.978       10.318      865.407
10/06/2014  05:00:00       -1.480        4.285       11.772        4.962        6.166        5.445       24.617       38.016       29.646        0.013        0.005        4.533        2.954        0.425      337.942       10.258      865.408
10/06/2014  05:01:00       -2.467       -3.795        4.977        7.004       13.717       10.812       49.056      188.154      116.891        0.020        0.018        4.526       10.481        5.363      337.872       10.139      865.410
10/06/2014  05:02:00        7.177      -26.845       -9.716       12.860        9.996        7.459      165.368       99.916       55.634        0.059        0.016       27.788        4.277        0.024      337.940       10.254      865.414
10/06/2014  05:03:00       -0.630      -16.794        1.326        6.757       10.707       11.486       45.655      114.644      131.934        0.029        0.015       16.806        4.734        0.079      337.936       10.246      865.413
10/06/2014  05:04:00       -1.592       -7.851       10.832       10.097       16.643       11.133      101.955      276.991      123.947        0.034        0.025        8.011       12.309        2.361      337.947       10.265      865.408
10/06/2014  05:05:00       -9.598      -39.942       -7.345       14.926       22.004       16.081      222.786      484.166      258.601        0.135        0.048       41.079       12.476        0.092      337.991       10.341      865.416
10/06/2014  05:06:00      -51.885      -22.668       -7.348       14.181        8.671        7.747      201.108       75.178       60.022        0.180        0.017       56.621        6.412        0.013      337.905       10.196      865.416
10/06/2014  05:07:00      -51.521      -51.500       -2.237       27.076       28.169       16.290      733.122      793.503      265.354        0.355        0.090       72.847        6.601        0.008      337.999       10.354      865.404
10/06/2014  05:08:00      -69.016      -49.147       -2.531       21.759       18.837       14.644      473.437      354.828      214.449        0.411        0.052       84.727       12.135        0.021      337.954       10.277      865.390
10/06/2014  05:09:00      -73.996      -38.005       -0.683       29.542       20.795       13.353      872.741      432.428      178.307        0.420        0.074       83.186       13.889        0.028      337.807       10.029      865.372
10/06/2014  05:10:00      -79.604      -66.085       -1.176       31.214       22.704       19.642      974.293      515.481      385.798        0.629        0.094      103.460       16.549        0.026      337.826       10.061      865.362
10/06/2014  05:11:00      -75.916      -75.063        3.669       22.938       21.485       15.620      526.139      461.615      243.971        0.632        0.062      106.760       11.590        0.012      337.976       10.314      865.359
10/06/2014  05:12:00      -76.689      -62.916        0.570       23.227       21.281       16.349      539.481      452.863      267.283        0.555        0.063       99.194        8.011        0.007      337.991       10.339      865.369
10/06/2014  05:13:00      -79.704      -54.420       -0.807       44.877       28.017       20.353     2013.916      784.929      414.236        0.626        0.161       96.511       21.245        0.048      337.983       10.325      865.377
10/06/2014  05:14:00      -70.334      -52.754       -3.226       34.905       21.423       16.820     1218.336      458.931      282.907        0.485        0.098       87.920       17.360        0.039      337.857       10.115      865.384
10/06/2014  05:15:00      -72.259      -35.298       -5.290       13.577       16.243        9.351      184.340      263.827       87.442        0.352        0.027       80.419        4.718        0.003      337.870       10.136      865.379
10/06/2014  05:16:00      -75.400      -45.963       -1.709       27.421       21.740       16.070      751.904      472.611      258.255        0.464        0.074       88.305       14.601        0.027      337.838       10.083      865.379
10/06/2014  05:17:00      -81.233      -44.895        0.562       30.018       21.475       14.160      901.107      461.197      200.498        0.509        0.078       92.814       14.417        0.024      337.783        9.991      865.377
10/06/2014  05:18:00      -71.861      -20.767       -8.169       24.472       26.747       13.332      598.885      715.393      177.738        0.358        0.075       74.802       10.017        0.018      337.779        9.984      865.378
10/06/2014  05:19:00      -87.415      -22.010       -3.632       25.792       18.012       17.584      665.206      324.417      309.188        0.472        0.065       90.143       16.545        0.034      337.659        9.783      865.384
10/06/2014  05:20:00      -88.614      -30.056       -0.291       31.606       19.738       15.554      998.970      389.607      241.941        0.519        0.082       93.572       14.103        0.023      337.654        9.774      865.383
10/06/2014  05:21:00      -63.244      -22.319        5.192       40.988       25.910       17.619     1680.053      671.345      310.417        0.359        0.133       67.067       21.888        0.107      337.574        9.639      865.372
10/06/2014  05:22:00      -73.630      -24.275        2.682       25.068       20.548       14.367      628.406      422.230      206.421        0.364        0.063       77.528       14.989        0.037      337.589        9.666      865.363
10/06/2014  05:23:00      -94.905       -9.568      -10.616       21.557       17.357       13.720      464.684      301.253      188.233        0.508        0.048       95.386        9.756        0.010      337.624        9.722      865.367
10/06/2014  05:24:00      -94.472      -16.627       -4.437       28.445       20.247       14.647      809.141      409.926      214.535        0.533        0.072       95.924       13.244        0.019      337.639        9.748      865.363
10/06/2014  05:25:00     -121.610      -43.382      -11.074       24.439       16.869       11.131      597.263      284.561      123.893        0.890        0.050      129.116       12.624        0.010      337.687        9.827      865.360
10/06/2014  05:26:00      -94.733      -50.993       -9.600       22.956       21.744       15.633      526.992      472.797      244.394        0.646        0.062      107.585       13.747        0.016      337.589        9.664      865.346
10/06/2014  05:27:00      -61.321      -27.589       -4.868       22.192       20.684       15.795      492.492      427.810      249.473        0.286        0.058       67.241       13.891        0.043      337.505        9.523      865.341
10/06/2014  05:28:00      -88.425      -23.563       -8.842       26.633       14.574       13.846      709.314      212.401      191.699        0.478        0.056       91.510       12.496        0.019      337.551        9.601      865.342
10/06/2014  05:29:00     -116.001      -47.793       -9.735       27.959       18.064       13.014      781.729      326.302      169.374        0.856        0.064      125.461       12.787        0.010      337.428        9.395      865.350
10/06/2014  05:30:00     -112.232      -23.761      -18.033       17.266       17.918       11.294      298.098      321.048      127.555        0.712        0.037      114.719        5.212        0.002      337.408        9.363      865.352
10/06/2014  05:31:00     -112.218       -5.890       -9.172       31.274       26.500       16.576      978.080      702.270      274.770        0.733        0.098      112.372       16.338        0.021      337.418        9.379      865.333
10/06/2014  05:32:00      -98.283      -39.478       -2.272       24.446       31.023       17.151      597.616      962.424      294.161        0.654        0.093      105.915       15.260        0.021      337.404        9.354      865.313
10/06/2014  05:33:00     -108.334      -34.483       -8.854       32.703       38.740       21.452     1069.474     1500.814      460.183        0.802        0.152      113.689       14.789        0.017      337.539        9.580      865.310
10/06/2014  05:34:00     -107.544      -33.769       -4.842       42.410       33.119       18.558     1798.628     1096.868      344.390        0.798        0.162      112.721       18.070        0.026      337.512        9.536      865.310
10/06/2014  05:35:00      -56.323      -44.516       -1.385       25.953       22.814       19.981      673.553      520.476      399.259        0.337        0.080       71.791       13.035        0.033      337.435        9.406      865.299
10/06/2014  05:36:00      -84.402      -19.779       -7.948       21.991       26.108       14.697      483.613      681.621      216.007        0.448        0.069       86.688       10.866        0.016      337.382        9.317      865.287
10/06/2014  05:37:00      -79.833      -27.550       -4.646       27.338       28.655       16.834      747.372      821.098      283.377        0.450        0.093       84.453       13.327        0.025      337.438        9.412      865.295
10/06/2014  05:38:00      -49.037      -35.426        3.089       42.982       24.406       21.402     1847.427      595.645      458.045        0.328        0.145       60.495       21.456        0.126      337.425        9.390      865.295
10/06/2014  05:39:00       -5.812      -11.778        6.157       24.436       24.334       20.721      597.134      592.137      429.377        0.091        0.081       13.134       17.299        1.735      337.352        9.268      865.294
10/06/2014  05:40:00       -8.941       -9.475       -0.007       24.314       12.754       13.640      591.153      162.667      186.047        0.055        0.047       13.028       12.944        0.987      337.416        9.376      865.302
10/06/2014  05:41:00      -69.158      -33.821       -2.541       26.654       19.877       17.257      710.434      395.093      297.804        0.367        0.070       76.985       15.050        0.038      337.451        9.434      865.321
10/06/2014  05:42:00      -69.694      -11.994       -0.976       21.609       12.746       12.378      466.942      162.456      153.205        0.289        0.039       70.718       11.303        0.026      337.442        9.419      865.333
10/06/2014  05:43:00      -52.487      -13.419       -3.350       15.516       11.914       11.866      240.755      141.940      140.800        0.173        0.026       54.175       11.337        0.044      337.561        9.618      865.327
10/06/2014  05:44:00      -51.271       -7.718       -6.268       10.283       10.815        8.657      105.747      116.955       74.938        0.151        0.015       51.849        4.782        0.009      337.639        9.751      865.319
10/06/2014  05:45:00      -29.980      -20.864       -1.978       12.610        8.501        8.359      159.011       72.261       69.865        0.082        0.015       36.525        5.974        0.027      337.654        9.776      865.319
10/06/2014  05:46:00      -30.687      -15.417       -3.259       13.009       14.110        8.317      169.235      199.081       69.173        0.081        0.022       34.342        6.544        0.036      337.632        9.738      865.309
10/06/2014  05:47:00      -45.188      -13.798       -9.595       10.278        8.085        6.795      105.633       65.367       46.170        0.127        0.011       47.248        3.755        0.006      337.632        9.737      865.305
10/06/2014  05:48:00      -36.677      -16.928       -9.019        6.260        7.650        6.647       39.186       58.518       44.183        0.093        0.007       40.395        3.753        0.009      337.647        9.763      865.313
10/06/2014  05:49:00      -25.000      -12.495       -1.099        9.587        7.945        8.129       91.909       63.122       66.088        0.050        0.011       27.949        4.286        0.024      337.669        9.800      865.316
10/06/2014  05:50:00      -37.809       -7.124       -3.706        8.589        7.728        4.186       73.773       59.727       17.524        0.082        0.008       38.474        2.999        0.006      337.561        9.617      865.303
10/06/2014  05:51:00      -46.308       -3.853       -6.419       19.456        8.540        6.624      378.528       72.939       43.874        0.135        0.025       46.468        6.068        0.017      337.601        9.683      865.298
10/06/2014  05:52:00      -71.031      -10.961       -8.732        7.915        7.991        6.807       62.647       63.852       46.340        0.271        0.009       71.872        3.921        0.003      337.463        9.452      865.298
10/06/2014  05:53:00      -69.231      -15.809      -12.148        6.230        8.512        6.515       38.816       72.452       42.449        0.267        0.008       71.013        1.614        0.001      337.521        9.550      865.298
10/06/2014  05:54:00      -70.359      -18.798      -10.595       12.895       11.772       10.418      166.288      138.578      108.526        0.291        0.021       72.827        4.122        0.003      337.487        9.495      865.286
10/06/2014  05:55:00      -82.313      -15.833      -11.715       14.886       14.021        9.445      221.599      196.577       89.215        0.384        0.025       83.822        4.789        0.003      337.576        9.643      865.272
10/06/2014  05:56:00      -86.203       -2.460       -9.340       21.010       13.158       11.850      441.412      173.121      140.412        0.414        0.038       86.238       10.604        0.015      337.509        9.531      865.260
10/06/2014  05:57:00      -89.429       -1.840       -8.762       13.658       11.624       13.587      186.541      135.128      184.618        0.429        0.025       89.448        8.721        0.010      337.530        9.566      865.264
10/06/2014  05:58:00      -84.234       -4.589       -4.793       27.900       16.877       15.016      778.413      284.832      225.475        0.421        0.064       84.359       15.095        0.032      337.462        9.453      865.282
10/06/2014  05:59:00      -92.182        9.828      -10.457       16.070       14.006        9.837      258.230      196.179       96.762        0.463        0.028       92.705        5.322        0.003      337.469        9.463      865.281
10/06/2014  06:00:00      -64.798      -14.270      -12.123       13.010       12.717       11.960      169.261      161.717      143.039        0.251        0.024       66.351        8.474        0.016      337.347        9.259      865.281
10/06/2014  06:01:00      -49.768      -10.347      -10.886       13.922       12.179        9.573      193.827      148.321       91.637        0.157        0.022       50.833        7.304        0.021      337.368        9.294      865.295
10/06/2014  06:02:00      -46.099       -7.642       -6.513       17.893       12.274       14.450      320.171      150.640      208.810        0.145        0.034       46.729       11.601        0.062      337.338        9.243      865.312
10/06/2014  06:03:00      -42.210       -9.649       -4.671       13.414       14.417        8.403      179.935      207.859       70.611        0.118        0.023       43.299        4.027        0.009      337.349        9.265      865.314
10/06/2014  06:04:00      -50.163      -13.305      -10.000       10.449        8.038        7.417      109.182       64.612       55.013        0.151        0.011       51.898        5.120        0.010      337.350        9.265      865.313
10/06/2014  06:05:00      -66.822      -20.301      -12.290       13.993       14.582       11.068      195.802      212.641      122.508        0.278        0.027       69.838        6.182        0.008      337.252        9.103      865.312
10/06/2014  06:06:00      -75.954      -15.183      -10.946       11.876       13.674       10.708      141.037      186.987      114.666        0.328        0.022       77.457        6.553        0.007      337.196        9.009      865.309
10/06/2014  06:07:00      -69.263      -48.720      -14.950       22.127       22.653       15.297      489.591      513.157      233.999        0.432        0.062       84.681        8.589        0.010      337.253        9.103      865.319
10/06/2014  06:08:00      -58.355      -62.935      -10.053       23.893       18.383       16.569      570.891      337.951      274.518        0.433        0.059       85.826       11.456        0.018      337.179        8.979      865.333
10/06/2014  06:09:00      -77.065      -44.616      -13.528       20.325       17.495       15.786      413.109      306.063      249.198        0.454        0.048       89.049        9.471        0.011      337.168        8.959      865.335
10/06/2014  06:10:00      -57.782      -28.135       -9.201       15.745       20.711       18.904      247.912      428.948      357.357        0.262        0.052       64.268       13.854        0.046      337.165        8.957      865.331
10/06/2014  06:11:00      -63.243      -24.812       -9.850       25.214       22.557       15.014      635.743      508.810      225.419        0.304        0.068       67.936       11.467        0.028      337.132        8.899      865.339
10/06/2014  06:12:00      -71.207      -22.482      -12.358       17.528       22.563       12.756      307.221      509.111      162.720        0.335        0.049       74.672       12.234        0.027      337.148        8.927      865.347
10/06/2014  06:13:00      -62.939      -22.798      -12.309       19.132       21.399       16.118      366.024      457.924      259.783        0.286        0.054       66.941        9.878        0.022      337.194        9.005      865.362
10/06/2014  06:14:00      -45.044      -23.389      -11.084       18.108       15.692       12.088      327.901      246.254      146.119        0.171        0.036       50.754        7.577        0.022      337.252        9.101      865.374
10/06/2014  06:15:00      -37.675      -25.391       -3.277       11.508       12.870       11.642      132.431      165.629      135.526        0.125        0.022       45.433        7.577        0.028      337.327        9.226      865.379
10/06/2014  06:16:00      -30.908      -27.859      -12.856       13.648       11.416       10.208      186.264      130.315      104.194        0.116        0.021       41.610        4.946        0.014      337.424        9.389      865.382
10/06/2014  06:17:00      -45.273      -20.059      -11.216       18.675       12.040        9.646      348.771      144.968       93.038        0.158        0.029       49.517        8.340        0.028      337.401        9.350      865.388
10/06/2014  06:18:00      -80.937      -36.719      -16.350       16.697       21.665       17.808      278.792      469.376      317.120        0.462        0.053       88.876       15.481        0.030      337.230        9.064      865.400
10/06/2014  06:19:00     -104.845      -25.732      -21.459       13.332       12.201        9.409      177.736      148.857       88.527        0.627        0.021      107.956        3.266        0.001      337.149        8.927      865.412
10/06/2014  06:20:00      -88.639      -33.977      -16.054       10.819       11.696        9.563      117.044      136.792       91.444        0.481        0.017       94.928        6.214        0.004      337.160        8.946      865.411
10/06/2014  06:21:00     -102.972      -39.991      -18.010       11.502       12.679        8.048      132.289      160.748       64.763        0.644        0.018      110.465        4.073        0.001      337.301        9.183      865.406
10/06/2014  06:22:00     -118.962      -45.486      -15.705       13.525       12.863        8.443      182.937      165.464       71.284        0.844        0.021      127.362        5.907        0.002      337.364        9.289      865.407
10/06/2014  06:23:00     -125.554      -58.689      -12.554       18.549       20.007       15.346      344.055      400.266      235.509        1.017        0.049      138.594        8.753        0.004      337.370        9.299      865.398
10/06/2014  06:24:00      -61.773      -54.193       -3.065       37.233       28.453       19.194     1386.293      809.589      368.396        0.466        0.128       82.175       19.347        0.055      337.294        9.171      865.398
10/06/2014  06:25:00      -86.623      -56.556        0.310       36.204       25.073       20.651     1310.705      628.667      426.476        0.653        0.118      103.452       17.150        0.027      337.288        9.161      865.403
10/06/2014  06:26:00     -111.693      -51.483       -4.708       35.916       26.800       15.180     1289.973      718.264      230.428        0.869        0.112      122.988       14.938        0.015      337.354        9.272      865.402
10/06/2014  06:27:00      -64.079      -46.827        1.951       34.317       29.194       18.090     1177.659      852.297      327.238        0.433        0.118       79.366       16.337        0.042      337.335        9.239      865.404
10/06/2014  06:28:00      -76.162      -49.206       -3.718       30.957       17.711       15.173      958.351      313.689      230.226        0.487        0.075       90.674       14.007        0.024      337.367        9.292      865.406
10/06/2014  06:29:00      -97.567      -30.248       -9.922       18.573       15.930       10.612      344.958      253.770      112.616        0.562        0.036      102.148        8.822        0.007      337.371        9.301      865.413
10/06/2014  06:30:00      -91.401      -24.087       -4.737       20.463       19.540       14.339      418.722      381.817      205.616        0.498        0.050       94.521       10.356        0.012      337.290        9.163      865.413
10/06/2014  06:31:00      -86.413      -32.797       -3.512       21.308       17.873       13.591      454.023      319.431      184.715        0.476        0.048       92.428       13.288        0.021      337.230        9.062      865.414
10/06/2014  06:32:00      -87.340      -20.962       -6.439       19.955       18.182       11.479      398.211      330.568      131.778        0.448        0.043       89.820        8.971        0.010      337.231        9.066      865.406
10/06/2014  06:33:00     -107.096      -22.374      -10.568       27.986       22.268       17.548      783.237      495.858      307.946        0.683        0.079      109.408       12.157        0.012      337.237        9.076      865.408
10/06/2014  06:34:00     -116.922      -21.904       -0.852       31.385       23.173       20.132      984.999      536.971      405.304        0.804        0.096      118.956       20.602        0.030      337.159        8.945      865.400
10/06/2014  06:35:00     -120.401      -47.821        2.183       39.441       25.549       18.892     1555.567      652.773      356.894        0.968        0.128      129.551       18.438        0.020      337.175        8.971      865.403
10/06/2014  06:36:00     -125.559      -50.752       -6.621       30.206       26.144       18.311      912.428      683.503      335.291        1.016        0.097      135.428       13.910        0.011      337.186        8.990      865.416
10/06/2014  06:37:00     -133.023      -49.965       -4.146       25.136       26.522       15.907      631.836      703.420      253.022        1.090        0.079      142.098       12.335        0.008      337.155        8.939      865.425
10/06/2014  06:38:00     -107.365      -25.815        2.731       26.682       24.037       16.226      711.941      577.781      263.267        0.688        0.078      110.425       14.365        0.017      337.106        8.856      865.429
10/06/2014  06:39:00      -89.599      -41.881       -1.207       24.920       26.121       14.192      621.022      682.302      201.399        0.564        0.075       98.904       10.634        0.012      337.188        8.995      865.427
10/06/2014  06:40:00      -93.860      -41.318        2.276       30.399       24.032       13.935      924.091      577.550      194.179        0.611        0.085      102.552       10.859        0.011      337.271        9.132      865.427
10/06/2014  06:41:00      -89.286      -65.106        0.324       31.464       25.381       18.693      989.980      644.185      349.435        0.710        0.099      110.502       12.599        0.013      337.308        9.194      865.425
10/06/2014  06:42:00      -84.418      -60.199        4.629       45.944       35.884       27.360     2110.839     1287.690      748.556        0.746        0.207      103.684       26.573        0.066      337.231        9.065      865.426
10/06/2014  06:43:00     -104.016      -61.042       -1.493       34.945       24.922       20.244     1221.179      621.094      409.837        0.840        0.113      120.605       14.541        0.015      337.237        9.076      865.431
10/06/2014  06:44:00     -110.920      -52.036        1.518       38.573       32.961       21.641     1487.876     1086.414      468.337        0.903        0.152      122.520       21.125        0.030      337.360        9.281      865.419
10/06/2014  06:45:00     -119.093      -45.977       -4.020       37.659       23.765       15.620     1418.219      564.778      243.990        0.927        0.111      127.660       18.293        0.021      337.418        9.379      865.415
10/06/2014  06:46:00     -123.192      -28.242       -4.758       20.768       21.035       15.875      431.321      442.479      252.009        0.856        0.056      126.387       10.735        0.007      337.388        9.330      865.414
10/06/2014  06:47:00      -89.646      -16.967       -2.994       31.763       21.221       15.133     1008.868      450.327      229.001        0.501        0.084       91.237       16.070        0.031      337.338        9.245      865.409
10/06/2014  06:48:00      -92.552      -24.000       -2.256       25.453       17.738       14.934      647.874      314.642      223.035        0.517        0.059       95.613       11.821        0.015      337.304        9.189      865.408
10/06/2014  06:49:00     -103.851      -30.939       -4.228       26.179       23.690       14.121      685.317      561.200      199.408        0.660        0.072      108.362       12.160        0.013      337.315        9.206      865.407
10/06/2014  06:50:00      -86.424      -14.294       -1.148       31.619       17.208       18.398      999.737      296.106      338.468        0.465        0.082       87.598       20.262        0.054      337.188        8.993      865.408
10/06/2014  06:51:00     -113.777      -20.798       -5.124       22.336       15.152       13.976      498.907      229.598      195.332        0.716        0.046      115.662       11.280        0.010      337.122        8.881      865.419
10/06/2014  06:52:00     -102.214      -17.302      -12.891       14.794       11.569       10.619      218.855      133.831      112.769        0.569        0.023      103.668        6.951        0.004      337.113        8.868      865.421
10/06/2014  06:53:00      -96.091      -38.362       -6.139       17.034       17.648       12.741      290.145      311.442      162.332        0.575        0.038      103.466        8.667        0.007      337.193        9.001      865.429
10/06/2014  06:54:00      -85.831      -48.633       -5.297       25.040       29.087       14.173      627.001      846.032      200.885        0.572        0.084       98.651       13.280        0.018      337.124        8.885      865.437
10/06/2014  06:55:00     -115.298      -30.948      -13.925       26.990       26.109       16.355      728.454      681.685      267.474        0.806        0.084      119.379       15.469        0.017      337.042        8.747      865.437
10/06/2014  06:56:00      -68.590      -24.721       -6.594       28.475       24.463       12.479      810.817      598.438      155.729        0.346        0.078       72.909        8.524        0.014      337.067        8.790      865.438
10/06/2014  06:57:00      -74.664      -16.147       -8.144       29.274       26.175       14.629      856.988      685.139      214.018        0.383        0.088       76.390       10.529        0.019      337.123        8.883      865.431
10/06/2014  06:58:00      -75.058       -7.754       -9.618       20.250       15.610       17.123      410.067      243.687      293.184        0.337        0.047       75.458        9.991        0.018      337.167        8.958      865.414
10/06/2014  06:59:00      -51.524       -5.081       -7.874       16.721       15.166       11.544      279.586      229.994      133.267        0.169        0.032       51.774        8.997        0.030      337.212        9.035      865.398
10/06/2014  07:00:00      -41.684      -18.159      -11.105       10.034       13.962        6.701      100.682      194.943       44.897        0.127        0.017       45.468        5.295        0.014      337.256        9.109      865.382
10/06/2014  07:01:00      -70.570      -50.135      -13.822       14.747       12.945        9.804      217.484      167.580       96.115        0.408        0.024       86.566        4.721        0.003      337.459        9.449      865.381
10/06/2014  07:02:00     -102.068      -48.186      -15.049       20.323       21.058       13.013      413.037      443.448      169.348        0.700        0.051      112.871        6.435        0.003      337.225        9.054      865.385
10/06/2014  07:03:00      -87.319      -64.895       -4.730       26.490       21.788       17.208      701.700      474.705      296.109        0.667        0.074      108.794       13.440        0.015      337.162        8.951      865.386
10/06/2014  07:04:00     -114.224      -38.840      -11.715       23.207       16.709       14.554      538.542      279.177      211.833        0.786        0.051      120.647       11.112        0.008      337.227        9.058      865.392
10/06/2014  07:05:00     -112.307      -18.480       -9.859       20.383       25.836       14.933      415.468      667.476      222.990        0.718        0.065      113.817       12.045        0.011      337.272        9.135      865.394
10/06/2014  07:06:00      -94.064      -19.487       -9.311       28.429       24.588       14.855      808.187      604.580      220.661        0.547        0.082       96.062       13.808        0.021      337.241        9.082      865.398
10/06/2014  07:07:00      -94.149      -53.645       -6.768       31.444       23.582       12.335      988.740      556.106      152.146        0.674        0.085      108.360        7.797        0.005      337.325        9.223      865.407
10/06/2014  07:08:00      -79.890      -58.828      -11.071       26.492       20.644       18.047      701.825      426.182      325.705        0.571        0.073       99.213       10.543        0.011      337.379        9.312      865.410
10/06/2014  07:09:00      -67.678      -61.517       -2.357       38.130       27.003       17.443     1453.867      729.187      304.270        0.543        0.124       91.458       19.966        0.048      337.331        9.232      865.399
10/06/2014  07:10:00      -55.605      -46.809        3.062       43.889       36.022       22.658     1926.224     1297.588      513.396        0.451        0.187       72.684       21.750        0.090      337.315        9.205      865.403
10/06/2014  07:11:00      -49.863      -49.848       10.801       40.514       33.214       19.542     1641.359     1103.189      381.895        0.411        0.156       70.506       15.283        0.047      337.323        9.218      865.412
10/06/2014  07:12:00     -101.961      -69.084       -7.612       34.769       26.225       12.722     1208.914      687.762      161.848        0.864        0.103      123.161       11.880        0.009      337.414        9.371      865.417
10/06/2014  07:13:00      -92.441      -61.182        0.515       32.541       20.338       19.485     1058.905      413.648      379.680        0.707        0.093      110.854       15.375        0.019      337.352        9.268      865.421
10/06/2014  07:14:00     -103.100      -50.875       -0.691       37.290       34.823       22.759     1390.580     1212.621      517.958        0.817        0.156      114.969       22.147        0.037      337.325        9.223      865.422
10/06/2014  07:15:00     -106.810      -63.522       -4.430       30.860       22.704       16.985      952.353      515.469      288.479        0.861        0.088      124.271       12.631        0.010      337.323        9.221      865.430
10/06/2014  07:16:00      -77.068      -48.975       -1.214       33.544       25.892       20.685     1125.176      670.376      427.850        0.528        0.111       91.313       19.418        0.045      337.316        9.208      865.437
10/06/2014  07:17:00      -88.324      -33.672       -5.155       24.117       22.814       13.465      581.611      520.474      181.316        0.512        0.064       94.525        8.327        0.008      337.326        9.224      865.441
10/06/2014  07:18:00      -85.496      -39.881       -2.135       19.078       20.803       11.481      363.963      432.778      131.822        0.492        0.046       94.341        9.773        0.011      337.308        9.195      865.445
10/06/2014  07:19:00      -75.291      -29.413        4.191       32.978       20.449       15.497     1087.551      418.155      240.151        0.415        0.087       80.833       17.555        0.047      337.284        9.154      865.453
10/06/2014  07:20:00      -70.516      -16.772        2.700       29.783       18.430       15.849      887.013      339.656      251.196        0.337        0.074       72.483       16.928        0.055      337.284        9.155      865.451
10/06/2014  07:21:00      -88.417      -15.999       -6.481       19.229       16.682       12.659      369.767      278.294      160.240        0.446        0.040       89.853       10.462        0.014      337.323        9.219      865.457
10/06/2014  07:22:00      -92.583       -6.896      -11.094        7.403       10.762        7.643       54.802      115.811       58.415        0.449        0.011       92.839        4.048        0.002      337.375        9.305      865.461
10/06/2014  07:23:00      -94.528      -33.287       -4.358       14.615       18.077       11.197      213.586      326.788      125.372        0.536        0.033      100.217        6.180        0.004      337.382        9.319      865.465
10/06/2014  07:24:00      -52.807      -42.081       -7.549       31.333       26.275       24.224      981.759      690.370      586.808        0.344        0.113       67.523       17.513        0.067      337.329        9.229      865.468
10/06/2014  07:25:00      -64.074      -36.090       -5.715       21.080       15.088       15.614      444.351      227.652      243.800        0.318        0.046       73.539        8.023        0.012      337.276        9.142      865.460
10/06/2014  07:26:00     -111.467      -65.425       -7.792       27.544       15.882       19.544      758.696      252.230      381.978        0.908        0.070      129.249       18.281        0.020      337.266        9.124      865.463
10/06/2014  07:27:00      -82.503      -33.602       -8.580       18.271       25.875       12.088      333.847      669.503      146.128        0.458        0.057       89.083       10.458        0.014      337.283        9.153      865.480
10/06/2014  07:28:00      -44.745      -17.756       -4.890       16.318       12.951        7.785      266.291      167.717       60.605        0.142        0.025       48.139        6.290        0.017      337.426        9.390      865.474
10/06/2014  07:29:00      -75.744      -26.206       -7.096       24.867       17.524       14.331      618.386      307.104      205.373        0.380        0.057       80.149       10.973        0.019      337.448        9.428      865.484
10/06/2014  07:30:00      -29.757      -50.476       -3.386       27.255       20.080       13.829      742.850      403.223      191.234        0.239        0.067       58.595        8.751        0.022      337.502        9.519      865.497
10/06/2014  07:31:00      -18.091      -39.399       -7.826        8.717       14.322        5.934       75.985      205.117       35.211        0.113        0.016       43.353        2.460        0.003      337.580        9.648      865.492
10/06/2014  07:32:00      -52.500      -18.677       -8.072       17.607       18.865        9.716      310.022      355.901       94.408        0.197        0.038       55.723        5.799        0.011      337.673        9.804      865.506
10/06/2014  07:33:00      -30.237      -30.097        0.946       29.909       31.728       18.844      894.520     1006.664      355.113        0.204        0.113       42.663       20.673        0.235      337.666        9.794      865.508
10/06/2014  07:34:00      -35.813      -40.655        2.457       13.663       14.698       10.956      186.673      216.039      120.034        0.173        0.026       54.179        7.058        0.017      337.723        9.890      865.521
10/06/2014  07:35:00      -62.385      -31.058       -2.703       26.779       18.906       14.778      717.093      357.424      218.385        0.308        0.065       69.688        6.689        0.009      337.671        9.802      865.525
10/06/2014  07:36:00      -50.358      -64.064       -4.732       26.649       25.832       16.250      710.170      667.268      264.057        0.415        0.082       81.488       11.020        0.018      337.658        9.781      865.532
10/06/2014  07:37:00      -46.301      -45.284       -1.429       26.348       18.012       15.056      694.231      324.435      226.694        0.272        0.062       64.765       10.346        0.026      337.672        9.804      865.528
10/06/2014  07:38:00      -37.490      -27.626       -1.825       15.681       14.903       11.405      245.895      222.104      130.082        0.138        0.030       46.570        8.511        0.033      337.797       10.014      865.534
10/06/2014  07:39:00      -56.684      -45.415       -6.389       42.779       22.809       10.520     1830.048      520.264      110.677        0.389        0.123       72.633       12.666        0.030      337.772        9.970      865.541
10/06/2014  07:40:00      -93.958      -48.787       -3.480       25.719       27.481       14.981      661.480      755.208      224.443        0.643        0.082      105.869       15.249        0.021      337.727        9.896      865.551
10/06/2014  07:41:00      -34.595      -34.609        3.510       38.116       20.654       17.911     1452.837      426.605      320.794        0.230        0.110       48.934       21.155        0.187      337.764        9.958      865.555
10/06/2014  07:42:00      -39.245      -33.575       -4.958       23.725        9.068        9.878      562.868       82.227       97.569        0.172        0.037       51.648        8.817        0.029      337.776        9.979      865.541
10/06/2014  07:43:00      -32.671      -14.163       -3.621       14.003        9.226        4.791      196.078       85.114       22.950        0.079        0.015       35.609        3.846        0.012      337.925       10.229      865.543
10/06/2014  07:44:00      -53.613      -11.888       -4.959       12.882        8.882        6.239      165.937       78.883       38.931        0.166        0.014       54.916        6.116        0.012      337.937       10.249      865.555
10/06/2014  07:45:00      -33.551      -26.656       -5.101       15.042        8.292        5.966      226.249       68.764       35.599        0.110        0.017       42.851        3.575        0.007      337.964       10.293      865.574
10/06/2014  07:46:00      -15.574      -25.980        4.448       28.662       15.859       16.541      821.483      251.509      273.604        0.114        0.067       30.291       14.870        0.241      337.988       10.334      865.592
10/06/2014  07:47:00      -43.612      -47.025       -1.191       24.077       20.377       17.904      579.716      415.235      320.539        0.271        0.066       64.136       12.977        0.041      337.912       10.207      865.601
10/06/2014  07:48:00      -26.928      -31.205       -1.991       25.608       15.594       16.006      655.753      243.181      256.193        0.143        0.058       41.217        5.991        0.021      338.015       10.380      865.606
10/06/2014  07:49:00      -22.202      -31.324       -2.050       15.293       19.471       11.074      233.884      379.105      122.632        0.111        0.037       38.394       10.017        0.068      338.054       10.445      865.609
10/06/2014  07:50:00      -19.862      -49.150       -1.082       12.458       25.538       10.307      155.209      652.180      106.229        0.186        0.046       53.011        6.685        0.016      338.148       10.603      865.615
10/06/2014  07:51:00      -29.672      -14.363       -8.013       13.354       24.169       10.457      178.326      584.163      109.344        0.101        0.044       32.965        8.074        0.060      338.166       10.632      865.606
10/06/2014  07:52:00      -35.067       -0.460        0.612       15.946       10.471       10.891      254.270      109.643      118.623        0.086        0.024       35.070       11.362        0.105      338.219       10.723      865.608
10/06/2014  07:53:00      -36.312       11.734        3.671       15.999       14.031        9.758      255.972      196.865       95.227        0.101        0.027       38.161        7.142        0.035      338.284       10.831      865.613
10/06/2014  07:54:00      -18.759        3.625       -5.209        9.144        5.771       14.501       83.621       33.309      210.277        0.036        0.016       19.106        8.789        0.212      338.437       11.088      865.608
10/06/2014  07:55:00      -27.481       -4.984       -4.070       15.439       13.593        9.408      238.360      184.775       88.504        0.065        0.026       27.930        6.533        0.055      338.352       10.944      865.611
10/06/2014  07:56:00      -34.409       -8.102        6.425       29.506       31.955       20.557      870.584     1021.113      422.599        0.180        0.116       35.350       19.902        0.317      338.365       10.969      865.621
10/06/2014  07:57:00       -8.462        2.491        1.084       23.640       31.633       17.313      558.843     1000.662      299.740        0.097        0.093        8.821       12.366        1.965      338.387       11.003      865.624
10/06/2014  07:58:00      -23.185        4.821        0.088       18.425       10.051       15.461      339.495      101.017      239.051        0.062        0.034       23.681       10.129        0.183      338.460       11.126      865.620
10/06/2014  07:59:00      -29.335      -35.923       -6.061       20.073       21.349       15.097      402.916      455.790      227.923        0.164        0.054       46.379        9.722        0.044      338.338       10.922      865.623
10/06/2014  08:00:00      -28.566      -40.113        2.304       28.889       22.878       13.613      834.572      523.421      185.316        0.199        0.077       49.245       12.571        0.065      338.375       10.984      865.621
10/06/2014  08:01:00      -44.357      -40.362       -5.136       19.489       28.825       13.392      379.839      830.863      179.356        0.251        0.070       59.972       12.729        0.045      338.304       10.865      865.618
10/06/2014  08:02:00      -24.508      -17.934       -2.754       19.593       16.048       10.108      383.893      257.535      102.179        0.084        0.037       30.369       10.287        0.115      338.333       10.912      865.612
10/06/2014  08:03:00      -24.461      -16.327        7.433       37.284       28.038       20.477     1390.124      786.114      419.305        0.176        0.130       29.409       19.152        0.424      338.553       11.284      865.628
10/06/2014  08:04:00      -32.199      -30.887        6.497       40.928       31.155       23.761     1675.074      970.658      564.583        0.262        0.161       44.619       14.630        0.108      338.443       11.098      865.630
10/06/2014  08:05:00        2.652      -17.856       -0.667       21.357       18.120       16.602      456.114      328.344      275.639        0.069        0.053       18.052       10.451        0.335      338.542       11.264      865.619
10/06/2014  08:06:00      -42.513      -21.596       -0.824       20.037       20.571       13.042      401.494      423.186      170.086        0.163        0.050       47.684        7.174        0.023      338.427       11.071      865.622
10/06/2014  08:07:00      -40.869      -31.555        0.862       19.744       25.445       16.438      389.824      647.451      270.208        0.199        0.065       51.633       10.015        0.038      338.481       11.161      865.627
10/06/2014  08:08:00      -39.766      -15.885        8.211       25.154       27.581       15.779      632.703      760.712      248.962        0.177        0.082       42.821       15.860        0.137      338.615       11.387      865.630
10/06/2014  08:09:00      -36.332      -11.707       -0.959       32.828       19.116       19.001     1077.709      365.403      361.040        0.163        0.090       38.172       15.680        0.169      338.651       11.447      865.644
10/06/2014  08:10:00      -35.284      -39.320       -0.166       29.334       28.592       22.560      860.482      817.529      508.951        0.249        0.109       52.830       13.019        0.061      338.698       11.526      865.650
10/06/2014  08:11:00      -45.259        4.822      -13.264       39.678       34.735       15.078     1574.334     1206.504      227.359        0.263        0.150       45.515        4.488        0.010      338.547       11.272      865.661
10/06/2014  08:12:00      -36.952      -20.833       -4.245       34.297       26.441       18.133     1176.316      699.118      328.803        0.201        0.110       42.420       12.759        0.090      338.622       11.399      865.669
10/06/2014  08:13:00      -15.250      -16.655        0.806       30.292       28.629       18.957      917.586      819.595      359.382        0.130        0.105       22.582       18.843        0.696      338.750       11.613      865.671
10/06/2014  08:14:00      -20.776       16.272       -4.630       48.647       29.911       26.781     2366.510      894.697      717.201        0.235        0.199       26.390       18.644        0.499      338.692       11.516      865.678
10/06/2014  08:15:00      -19.845       17.733        2.849       33.848       25.053       20.628     1145.717      627.632      425.495        0.146        0.110       26.613       14.441        0.294      338.743       11.602      865.689
10/06/2014  08:16:00       -3.731        6.814       28.839       14.657       35.821       14.600      214.820     1283.124      213.172        0.130        0.086        7.769       14.582        3.523      339.109       12.217      865.698
10/06/2014  08:17:00      -23.190       11.697       33.655       23.549       15.221       16.983      554.541      231.691      288.405        0.144        0.054       25.973       14.909        0.330      339.010       12.052      865.700
10/06/2014  08:18:00      -26.088       -6.378       10.918       19.961       17.446       13.190      398.449      304.372      173.963        0.086        0.044       26.856       10.699        0.159      338.974       11.991      865.714
10/06/2014  08:19:00        5.558       -2.285       -3.260       31.436       39.591       26.989      988.241     1567.445      728.395        0.166        0.164        6.010       16.012        7.099      338.924       11.905      865.723
10/06/2014  08:20:00      -40.184      -22.586       -9.334       31.087       23.631       16.205      966.386      558.422      262.597        0.200        0.089       46.096       13.360        0.084      338.672       11.482      865.726
10/06/2014  08:21:00      -24.689      -16.430       -0.702       20.772       14.180       11.160      431.497      201.085      124.550        0.082        0.038       29.656        9.978        0.113      338.699       11.527      865.722
10/06/2014  08:22:00      -34.902       -9.832       -8.681       22.070       12.425        6.361      487.101      154.388       40.457        0.104        0.034       36.261        3.778        0.011      338.770       11.648      865.716
10/06/2014  08:23:00      -33.191      -15.227       -6.541       25.673       21.143       12.382      659.091      447.026      153.308        0.132        0.063       36.517       11.862        0.106      338.822       11.735      865.713
10/06/2014  08:24:00      -51.827      -42.454        1.157       15.013       20.496       12.715      225.376      420.090      161.677        0.265        0.040       66.996        7.355        0.012      338.809       11.714      865.712
10/06/2014  08:25:00      -30.819       -4.991        3.474        9.169        8.924        8.065       84.080       79.638       65.037        0.061        0.011       31.220        5.127        0.027      338.952       11.951      865.709
10/06/2014  08:26:00      -17.423        4.791        8.891       10.686       11.240       12.184      114.186      126.347      148.445        0.040        0.019       18.070        8.757        0.235      339.252       12.459      865.707
10/06/2014  08:27:00       -3.052       -0.205       23.999       15.098       13.076       16.157      227.936      170.977      261.060        0.062        0.033        3.059       14.248       21.694      339.643       13.116      865.707
10/06/2014  08:28:00       24.136        0.882       14.020       25.337       21.171       25.474      641.988      448.213      648.912        0.126        0.087       24.152       15.904        0.434      339.424       12.748      865.711
10/06/2014  08:29:00       20.818      -29.950       13.697       25.442       24.879       20.077      647.275      618.956      403.081        0.159        0.083       36.474       17.078        0.219      339.238       12.434      865.720
10/06/2014  08:30:00       10.177       -9.383       16.113       21.764       36.494       23.297      473.685     1331.847      542.758        0.140        0.117       13.843       18.552        1.796      339.403       12.713      865.724
10/06/2014  08:31:00       -1.553       11.375       30.981       20.375       19.457       14.276      415.158      378.566      203.818        0.104        0.050       11.481        9.188        0.641      339.614       13.070      865.723
10/06/2014  08:32:00        3.505       22.386       39.894       28.107       24.638       17.890      789.991      607.013      320.040        0.191        0.086       22.659       17.447        0.593      339.452       12.794      865.729
10/06/2014  08:33:00       18.319       -1.256       28.009       23.229       30.384       22.480      539.599      923.182      505.330        0.154        0.098       18.362       15.175        0.683      339.317       12.568      865.733
10/06/2014  08:34:00        6.219       13.930       22.063       17.188       16.528       16.705      295.436      273.175      279.072        0.078        0.042       15.255        8.389        0.302      339.533       12.932      865.735
10/06/2014  08:35:00       19.617       -9.108        0.982       34.351       24.683       24.745     1179.963      609.259      612.295        0.143        0.120       21.628       17.199        0.632      339.212       12.390      865.735
10/06/2014  08:36:00       17.698       10.609        4.028       19.767       15.316       25.056      390.753      234.568      627.800        0.085        0.063       20.634       16.482        0.638      339.423       12.746      865.736
10/06/2014  08:37:00       11.704       25.942       29.555       17.282       13.780       14.776      298.659      189.893      218.328        0.120        0.035       28.460        5.416        0.036      339.561       12.980      865.735
10/06/2014  08:38:00       -0.301        6.414       29.440       11.537       18.099       12.931      133.108      327.572      167.209        0.077        0.031        6.421        9.061        1.992      339.859       13.482      865.735
10/06/2014  08:39:00       15.072        7.819       37.659       20.950       20.566       20.170      438.917      422.947      406.823        0.149        0.063       16.980       11.457        0.455      339.754       13.305      865.737
10/06/2014  08:40:00       25.582       -4.354       17.421       31.382       29.182       27.338      984.812      851.570      747.356        0.178        0.129       25.950       26.478        1.041      339.535       12.936      865.737
10/06/2014  08:41:00       23.268      -27.398       11.623       31.116       27.697       27.627      968.232      767.112      763.242        0.196        0.125       35.945       18.804        0.274      339.366       12.650      865.740
10/06/2014  08:42:00       14.708      -18.346       20.544       18.361       25.983       16.448      337.109      675.104      270.550        0.113        0.064       23.514       14.748        0.393      339.597       13.040      865.740
10/06/2014  08:43:00       13.604      -15.812       18.103       27.050       33.944       20.410      731.696     1152.218      416.572        0.153        0.115       20.859       11.403        0.299      339.540       12.943      865.735
10/06/2014  08:44:00      -11.057      -20.258       17.306       24.662       41.643       18.044      608.195     1734.102      325.603        0.175        0.133       23.080       16.557        0.515      339.602       13.047      865.735
10/06/2014  08:45:00       -0.911      -45.034       -5.747       28.786       20.341       18.169      828.651      413.776      330.112        0.182        0.079       45.044       11.325        0.063      339.622       13.081      865.732
10/06/2014  08:46:00      -19.284      -25.166       12.583       23.746       11.717       10.840      563.862      137.283      117.502        0.099        0.041       31.705        5.319        0.028      339.639       13.111      865.724
10/06/2014  08:47:00        8.264       15.242       19.520       17.696       19.513       21.234      313.132      380.774      450.871        0.091        0.057       17.338       18.736        1.168      339.892       13.538      865.725
10/06/2014  08:48:00      -21.928       -8.640        3.013       16.176        7.699        5.922      261.653       59.281       35.068        0.046        0.018       23.569        1.526        0.004      339.798       13.379      865.737
10/06/2014  08:49:00      -24.910        2.744       15.565        9.081        9.002        9.581       82.465       81.043       91.801        0.056        0.013       25.060        7.639        0.093      339.858       13.480      865.744
10/06/2014  08:50:00        6.633       24.565       -3.775       17.186       10.143       15.280      295.346      102.877      233.479        0.065        0.032       25.445        8.025        0.099      339.769       13.330      865.753
10/06/2014  08:51:00       36.542       20.640        6.012       20.258       15.490       15.890      410.400      239.930      252.478        0.135        0.045       41.968        9.067        0.047      339.796       13.376      865.761
10/06/2014  08:52:00        0.935        1.330       18.844       11.074       13.636        8.152      122.641      185.941       66.458        0.037        0.019        1.626        3.353        4.254      340.508       14.578      865.765
10/06/2014  08:53:00       33.732      -21.932       11.808       30.398       23.789       21.726      924.024      565.932      472.024        0.186        0.098       40.235       12.468        0.096      339.651       13.130      865.773
10/06/2014  08:54:00        7.896       20.561       30.735       32.577       26.282       26.592     1061.274      690.758      707.109        0.194        0.123       22.025       17.093        0.602      340.005       13.727      865.786
10/06/2014  08:55:00       -6.547       -2.627       37.815       19.574       31.596       19.184      383.128      998.285      368.042        0.161        0.087        7.055       10.784        2.337      340.376       14.353      865.787
10/06/2014  08:56:00       -8.563        8.522       41.029        9.014       16.747       12.665       81.246      280.447      160.414        0.118        0.026       12.081        9.876        0.668      340.702       14.906      865.792
10/06/2014  08:57:00       -1.876       -3.300       26.359       15.841       19.593       14.839      250.950      383.898      220.197        0.078        0.043        3.796       12.923       11.590      340.442       14.465      865.799
10/06/2014  08:58:00       14.563       20.308       27.066       25.486       32.064       19.641      649.547     1028.079      385.785        0.171        0.103       24.990       19.445        0.605      340.109       13.904      865.797
10/06/2014  08:59:00       43.571       41.308       -5.893       20.066       21.037       20.951      402.654      442.560      438.931        0.246        0.064       60.039       10.755        0.032      339.842       13.453      865.796
10/06/2014  09:00:00       35.083       33.001       12.375       19.116       20.327       21.836      365.428      413.206      476.811        0.186        0.063       48.166       18.080        0.141      340.117       13.915      865.793
10/06/2014  09:01:00       33.873       18.503       -1.355       31.875       19.581       24.440     1016.045      383.422      597.331        0.174        0.100       38.597       16.847        0.191      340.093       13.876      865.791
10/06/2014  09:02:00       50.708       27.924       11.855       23.317       17.632       23.080      543.687      310.896      532.671        0.244        0.069       57.889       15.971        0.076      340.122       13.924      865.790
10/06/2014  09:03:00       -6.739       12.983        9.501       25.037       25.283       17.613      626.834      639.238      310.219        0.094        0.079       14.628        8.094        0.306      340.494       14.553      865.785
10/06/2014  09:04:00       37.151       56.341       45.831       28.223       25.017       24.408      796.515      625.852      595.729        0.434        0.101       67.487       18.412        0.074      340.388       14.374      865.780
10/06/2014  09:05:00       26.386       14.092       15.125       23.520       20.521       25.297      553.200      421.105      639.928        0.137        0.081       29.914       14.407        0.232      340.331       14.276      865.785
10/06/2014  09:06:00       19.501       25.561       20.822       32.809       42.025       27.750     1076.431     1766.086      770.040        0.254        0.181       32.150       19.238        0.358      340.412       14.415      865.782
10/06/2014  09:07:00       23.715       -9.794       39.882       29.552       32.537       29.018      873.339     1058.627      842.052        0.251        0.139       25.658       20.553        0.642      340.642       14.803      865.791
10/06/2014  09:08:00       17.799       12.041       20.971       33.201       21.837       24.730     1102.318      476.840      611.571        0.155        0.110       21.489       12.689        0.349      340.386       14.370      865.791
10/06/2014  09:09:00       37.606      -19.530        6.044       24.499       26.161       29.018      600.198      684.386      842.064        0.198        0.106       42.375       13.635        0.104      340.145       13.965      865.790
10/06/2014  09:10:00       18.861      -21.639       24.533       31.602       32.928       29.056      998.671     1084.224      844.276        0.218        0.146       28.705       26.651        0.862      340.542       14.635      865.794
10/06/2014  09:11:00        9.993       14.585       50.048       23.974       39.640       24.634      574.731     1571.337      606.813        0.278        0.138       17.680       24.617        1.939      340.668       14.849      865.797
10/06/2014  09:12:00       40.975       23.637       36.002       28.182       26.800       22.746      794.230      718.217      517.394        0.278        0.101       47.304       16.981        0.129      340.237       14.119      865.803
10/06/2014  09:13:00       26.327       10.009        8.401       23.908       36.532       23.746      571.588     1334.558      563.888        0.167        0.124       28.165       14.988        0.283      340.324       14.267      865.813
10/06/2014  09:14:00       36.826      -15.904        8.903       22.030       21.685       23.465      485.338      470.240      550.629        0.160        0.075       40.113       13.643        0.116      340.168       14.003      865.819
10/06/2014  09:15:00       36.068      -16.513        3.978       30.841       27.689       25.051      951.165      766.689      627.572        0.197        0.117       39.668       18.583        0.219      340.278       14.189      865.831
10/06/2014  09:16:00       40.343      -13.620        5.730       24.892       23.722       26.827      619.620      562.753      719.666        0.187        0.095       42.581       10.350        0.059      340.307       14.237      865.844
10/06/2014  09:17:00       39.146        5.406       19.864       25.486       28.642       25.580      649.514      820.361      654.339        0.204        0.106       39.518       10.594        0.072      340.585       14.706      865.850
10/06/2014  09:18:00       33.424        3.445        7.006       24.851       25.999       19.061      617.557      675.954      363.306        0.142        0.083       33.601       11.805        0.123      340.494       14.553      865.856
10/06/2014  09:19:00       17.471       18.458       35.146       21.937       16.813       24.274      481.217      282.663      589.216        0.162        0.068       25.415       12.887        0.257      340.795       15.063      865.857
10/06/2014  09:20:00       12.206       15.875       24.295       19.781       22.839       17.623      391.299      521.638      310.579        0.111        0.061       20.024       12.955        0.419      341.013       15.433      865.854
10/06/2014  09:21:00        5.683       29.661       35.445       18.821       20.617       22.855      354.240      425.059      522.337        0.173        0.065       30.200       11.737        0.151      340.992       15.395      865.859
10/06/2014  09:22:00        5.723      -16.967       15.463       28.448       29.588       18.963      809.311      875.461      359.591        0.130        0.102       17.907        8.376        0.219      340.811       15.090      865.858
10/06/2014  09:23:00       33.972        2.276       17.001       19.521       21.927       18.324      381.056      480.790      335.754        0.132        0.060       34.048       12.883        0.143      340.592       14.719      865.851
10/06/2014  09:24:00       41.057       18.861        4.421       23.580       16.098       17.343      556.017      259.140      300.764        0.159        0.056       45.182       11.067        0.060      340.576       14.691      865.859
10/06/2014  09:25:00       12.440       11.795       12.156       31.760       20.541       22.549     1008.695      421.927      508.472        0.119        0.097       17.142        8.922        0.271      340.876       15.199      865.856
10/06/2014  09:26:00       32.565       10.430       36.233       37.930       33.014       23.171     1438.670     1089.893      536.881        0.277        0.153       34.194       21.144        0.382      341.006       15.419      865.854
10/06/2014  09:27:00       27.743        0.248       21.954       28.308       30.253       31.736      801.323      915.245     1007.171        0.199        0.136       27.744       24.081        0.753      340.931       15.292      865.853
10/06/2014  09:28:00       36.683       27.248       42.691       28.198       27.237       16.771      795.123      741.835      281.254        0.286        0.091       45.695       16.964        0.138      340.724       14.943      865.852
10/06/2014  09:29:00       -7.679       15.748       37.430       20.570       21.538       21.391      423.115      463.869      457.571        0.153        0.067       17.520       14.699        0.704      341.355       16.009      865.839
10/06/2014  09:30:00      -27.336       -4.750        6.472       20.183       13.909       13.828      407.345      193.458      191.224        0.080        0.040       27.746       11.574        0.174      341.160       15.681      865.831
10/06/2014  09:31:00      -29.388       12.056       -7.834       21.730       11.398        7.960      472.194      129.925       63.369        0.087        0.033       31.765        1.892        0.004      340.979       15.373      865.825
10/06/2014  09:32:00       16.850        9.943       24.137       21.018       21.063       27.854      441.748      443.671      775.825        0.131        0.083       19.565       18.809        0.924      341.338       15.981      865.812
10/06/2014  09:33:00       -6.692       23.580      -11.654       24.369       25.049       19.036      593.864      627.451      362.352        0.116        0.079       24.511       10.228        0.174      341.029       15.459      865.800
10/06/2014  09:34:00      -37.463       -5.220       15.311       25.914       18.274       14.255      671.555      333.936      203.217        0.144        0.060       37.825       11.513        0.093      341.336       15.978      865.800
10/06/2014  09:35:00      -24.746      -47.741        8.768       30.431       30.498       19.912      926.058      930.098      396.472        0.261        0.113       53.773       17.247        0.103      341.129       15.628      865.788
10/06/2014  09:36:00      -46.222      -61.477        4.451       40.745       41.658       21.544     1660.167     1735.374      464.134        0.490        0.193       76.915       17.475        0.052      341.125       15.620      865.790
10/06/2014  09:37:00      -93.339      -82.492       -3.782       30.198       33.804       19.131      911.946     1142.703      365.999        0.898        0.121      124.568       17.002        0.019      341.011       15.429      865.794
10/06/2014  09:38:00      -64.264      -60.002       -2.373       31.550       24.973       20.770      995.388      623.652      431.381        0.489        0.103       87.921       14.749        0.028      341.094       15.569      865.800
10/06/2014  09:39:00      -38.370      -46.293       13.867       38.346       29.357       24.952     1470.389      861.827      622.586        0.338        0.148       60.128       23.798        0.157      341.287       15.895      865.808
10/06/2014  09:40:00      -77.570      -23.420       -1.943       22.208       23.471       14.219      493.189      550.892      202.182        0.391        0.062       81.029        9.472        0.014      341.093       15.568      865.809
10/06/2014  09:41:00      -32.112       -5.531       -7.269       20.204       15.498       15.083      408.199      240.198      227.492        0.100        0.044       32.585        8.499        0.068      341.314       15.941      865.818
10/06/2014  09:42:00        4.205       23.955       11.271       25.078       29.975       20.088      628.888      898.475      403.531        0.132        0.097       24.322        5.529        0.052      341.809       16.779      865.828
10/06/2014  09:43:00       -1.744      -18.187       31.932       20.506       42.625       26.458      420.482     1816.905      700.052        0.214        0.147       18.271       23.253        1.620      341.960       17.036      865.828
10/06/2014  09:44:00        5.538       -6.225       37.814       23.563       55.409       35.487      555.215     3070.210     1259.337        0.319        0.244        8.332       37.987       20.787      341.771       16.715      865.830
10/06/2014  09:45:00        3.323       -8.436       32.399       35.173       38.407       27.596     1237.125     1475.070      761.537        0.230        0.174        9.067       29.157       10.340      341.851       16.854      865.828
10/06/2014  09:46:00       38.074       21.005       40.630       42.789       47.392       36.200     1830.875     2246.013     1310.473        0.446        0.269       43.484       33.050        0.578      341.579       16.390      865.824
10/06/2014  09:47:00       -1.279       19.622       52.624       22.065       35.676       22.099      486.883     1272.748      488.378        0.270        0.112       19.663       22.711        1.334      341.946       17.012      865.811
10/06/2014  09:48:00      -53.260        6.674        0.182       25.484       20.277       25.300      649.449      411.141      640.114        0.229        0.085       53.677       22.557        0.177      341.549       16.339      865.806
10/06/2014  09:49:00      -57.535      -46.665        3.870       37.276       36.033       19.464     1389.470     1298.349      378.856        0.428        0.153       74.080       13.634        0.034      341.529       16.303      865.798
10/06/2014  09:50:00      -83.212      -61.236        3.867       40.948       26.418       21.611     1676.704      697.907      467.047        0.676        0.142      103.315       21.237        0.042      341.492       16.242      865.783
10/06/2014  09:51:00      -93.918      -52.020      -12.059       18.136       30.827       10.289      328.923      950.332      105.861        0.653        0.069      107.363        6.958        0.004      341.403       16.092      865.772
10/06/2014  09:52:00      -32.591      -26.761        5.495       46.458       25.394       18.265     2158.344      644.857      333.614        0.247        0.157       42.170       19.796        0.220      341.797       16.759      865.758
10/06/2014  09:53:00      -82.478      -48.558       -3.888       27.858       18.723       18.772      776.059      350.559      352.372        0.533        0.074       95.710       18.442        0.037      341.532       16.308      865.752
10/06/2014  09:54:00      -92.820      -58.733       -8.430       20.522       33.859       13.553      421.155     1146.424      183.697        0.694        0.088      109.842       12.287        0.013      341.488       16.233      865.741
10/06/2014  09:55:00      -91.452        4.501      -11.232       25.792       27.049       12.758      665.248      731.638      162.754        0.503        0.078       91.562       16.092        0.031      341.573       16.377      865.727
10/06/2014  09:56:00      -67.224      -57.671       -4.187       47.975       37.590       22.555     2301.609     1413.002      508.716        0.604        0.211       88.573       18.628        0.044      341.715       16.620      865.717
10/06/2014  09:57:00      -93.543      -64.636       -3.724       45.941       39.428       20.710     2110.569     1554.567      428.901        0.852        0.205      113.702       24.406        0.046      341.732       16.650      865.715
10/06/2014  09:58:00      -65.165      -66.182       -2.027       22.223       35.136       17.664      493.882     1234.543      312.002        0.534        0.102       92.880       10.463        0.013      341.610       16.443      865.721
10/06/2014  09:59:00      -37.464      -49.237        1.050       33.952       28.623       24.180     1152.711      819.258      584.696        0.319        0.128       61.869       22.802        0.136      341.746       16.673      865.714
10/06/2014  10:00:00      -68.853      -83.932       -0.117       26.837       24.543       20.005      720.233      602.360      400.212        0.675        0.086      108.560       20.662        0.036      341.678       16.557      865.712
10/06/2014  10:01:00      -54.371      -66.387       -2.737       27.296       29.092       12.764      745.096      846.329      162.913        0.456        0.088       85.811       13.359        0.024      341.738       16.659      865.703
10/06/2014  10:02:00      -71.365      -37.106       -3.814       27.960       12.543       13.572      781.779      157.321      184.192        0.380        0.056       80.435       13.752        0.029      341.753       16.685      865.696
10/06/2014  10:03:00      -83.763      -25.493       -1.674       30.415       26.440       20.956      925.065      699.099      439.149        0.487        0.103       87.556       15.368        0.031      341.889       16.915      865.697
10/06/2014  10:04:00      -50.461      -48.829        1.637       43.864       35.343       24.395     1924.059     1249.153      595.129        0.435        0.188       70.218       17.389        0.061      342.042       17.174      865.696
10/06/2014  10:05:00      -99.328      -59.212       -1.877       30.876       24.663       17.512      953.298      608.248      306.670        0.762        0.093      115.638       17.956        0.024      341.856       16.858      865.693
10/06/2014  10:06:00      -61.806      -35.342        0.878       38.267       21.928       19.736     1464.370      480.856      389.495        0.370        0.117       71.198       19.408        0.074      341.953       17.024      865.681
10/06/2014  10:07:00      -49.632      -31.381        0.864       22.606       21.334       20.094      511.033      455.124      403.759        0.241        0.068       58.720       11.304        0.037      342.011       17.122      865.683
10/06/2014  10:08:00      -54.088      -29.623       -7.598       12.868       30.582       13.183      165.597      935.275      173.794        0.257        0.064       61.669       10.969        0.032      341.904       16.941      865.669
10/06/2014  10:09:00      -73.048      -10.422      -15.388       12.192       20.061        7.972      148.637      402.463       63.551        0.315        0.031       73.787        3.221        0.002      341.870       16.882      865.667
10/06/2014  10:10:00      -82.605      -21.247       -0.388       30.311       30.030       17.571      918.750      901.794      308.741        0.470        0.106       85.294       14.952        0.031      342.013       17.126      865.654
10/06/2014  10:11:00      -67.310      -12.944       -2.708       17.757       26.331       12.601      315.297      693.313      158.785        0.294        0.058       68.543        7.995        0.014      341.946       17.012      865.652
10/06/2014  10:12:00      -96.609      -15.598       -7.069       28.188       19.291       17.372      794.587      372.135      301.804        0.555        0.073       97.860       14.006        0.020      342.077       17.235      865.640
10/06/2014  10:13:00      -60.434      -19.879       -5.991       18.994       21.178       17.318      360.764      448.492      299.928        0.260        0.055       63.619       12.273        0.037      342.107       17.285      865.630
10/06/2014  10:14:00      -33.815       28.869        7.378       21.415       20.136       26.906      458.619      405.460      723.920        0.181        0.079       44.462       18.793        0.179      342.539       18.021      865.622
10/06/2014  10:15:00      -38.852       74.535        1.075       16.963       26.518       26.597      287.734      703.228      707.427        0.438        0.085       84.053       21.471        0.065      342.681       18.262      865.609
10/06/2014  10:16:00      -56.787       50.470      -12.059       29.017       23.465       21.215      842.003      550.585      450.092        0.388        0.092       75.973       12.464        0.027      342.402       17.787      865.612
10/06/2014  10:17:00      -26.025       47.107        6.242       24.743       24.338       29.183      612.199      592.333      851.663        0.250        0.103       53.818       21.437        0.159      342.883       18.606      865.611
10/06/2014  10:18:00       19.015       20.939       25.087       21.780       24.275       19.581      474.369      589.272      383.398        0.144        0.072       28.285       11.976        0.179      343.196       19.138      865.610
10/06/2014  10:19:00       56.824       27.051       18.342       29.708       26.034       32.265      882.539      677.753     1041.024        0.345        0.130       62.934       18.711        0.088      342.552       18.042      865.611
10/06/2014  10:20:00       95.213       -5.399       13.870       31.006       32.561       30.048      961.377     1060.189      902.884        0.611        0.146       95.366       18.650        0.038      341.969       17.051      865.606
10/06/2014  10:21:00       44.675      -17.268       -9.762       30.707       37.542       24.610      942.926     1409.417      605.656        0.267        0.148       47.897       12.150        0.064      342.165       17.384      865.605
10/06/2014  10:22:00       39.901       -5.441       20.300       33.031       35.937       25.628     1091.078     1291.495      656.782        0.254        0.152       40.271       18.845        0.219      342.655       18.215      865.597
10/06/2014  10:23:00       -9.077      -28.951       23.079       39.396       42.180       26.629     1552.078     1779.144      709.081        0.275        0.202       30.340        9.161        0.091      342.473       17.908      865.597
10/06/2014  10:24:00      -28.561      -31.841       -4.104       26.864       26.987       22.160      721.677      728.298      491.046        0.189        0.097       42.774       19.491        0.208      342.633       18.179      865.600
10/06/2014  10:25:00      -32.632      -13.596       -8.089       17.194       16.936       20.504      295.639      286.817      420.401        0.116        0.050       35.351       12.590        0.127      342.592       18.111      865.601
10/06/2014  10:26:00       -7.552       15.038       21.644       22.756       24.620       22.720      517.821      606.128      516.203        0.120        0.082       16.828       11.928        0.502      342.890       18.616      865.603
10/06/2014  10:27:00       31.072        9.056       24.926       41.990       41.852       32.161     1763.201     1751.602     1034.336        0.311        0.227       32.365       29.040        0.805      342.347       17.694      865.599
10/06/2014  10:28:00       41.502       -9.531       25.973       32.762       31.732       29.148     1073.317     1006.907      849.628        0.271        0.146       42.582       21.573        0.257      342.275       17.571      865.599
10/06/2014  10:29:00       41.214        3.697       14.339       39.022       29.004       25.450     1522.755      841.223      647.693        0.246        0.151       41.379       27.262        0.434      342.469       17.903      865.596
10/06/2014  10:30:00       25.596       39.627        9.851       31.713       23.901       26.085     1005.696      571.278      680.448        0.229        0.113       47.175       14.492        0.094      342.771       18.415      865.593
10/06/2014  10:31:00       -3.623        2.495       15.527       22.908       38.760       23.884      524.791     1502.300      570.429        0.143        0.130        4.399       12.905        8.607      343.340       19.384      865.595
10/06/2014  10:32:00       34.147      -11.399       20.186       43.539       28.005       29.692     1895.624      784.273      881.601        0.263        0.178       35.999       23.804        0.437      342.672       18.246      865.591
10/06/2014  10:33:00       78.504      -53.379       -1.717       38.735       37.795       32.643     1500.419     1428.478     1065.572        0.650        0.200       94.932       20.379        0.046      342.218       17.475      865.582
10/06/2014  10:34:00       19.600      -35.752       14.458       39.096       54.443       40.266     1528.499     2963.996     1621.340        0.399        0.306       40.772       32.320        0.628      342.996       18.797      865.579
10/06/2014  10:35:00        4.981      -41.032       22.892       44.116       50.121       39.908     1946.244     2512.120     1592.657        0.414        0.303       41.334       21.944        0.282      343.230       19.195      865.568
10/06/2014  10:36:00       14.153      -43.613        6.696       49.592       47.845       40.860     2459.371     2289.120     1669.580        0.428        0.321       45.851       12.182        0.071      343.079       18.939      865.565
10/06/2014  10:37:00       26.875      -39.575        7.543       52.372       46.931       50.084     2742.849     2202.525     2508.404        0.490        0.373       47.838       36.719        0.589      343.141       19.044      865.551
10/06/2014  10:38:00        5.839       -1.057       44.859       32.439       59.165       32.435     1052.262     3500.470     1052.050        0.383        0.280        5.934       29.011       23.899      343.342       19.386      865.550
10/06/2014  10:39:00        4.875       -2.376       33.383       31.220       38.555       25.346      974.692     1486.492      642.429        0.212        0.155        5.423       24.074       19.704      343.267       19.259      865.545
10/06/2014  10:40:00       10.584        7.319       16.242       19.631       16.513       21.705      385.384      272.689      471.117        0.078        0.056       12.868       16.039        1.554      343.302       19.320      865.551
10/06/2014  10:41:00        1.528       20.876        1.465       22.488       19.102       17.109      505.693      364.882      292.724        0.080        0.058       20.932       10.505        0.252      343.037       18.866      865.553
10/06/2014  10:42:00        5.597       56.718       14.212       29.351       27.963       24.029      861.501      781.901      577.405        0.284        0.111       56.994       16.817        0.087      343.301       19.316      865.549
10/06/2014  10:43:00       28.753       16.811       41.878       52.713       39.433       30.675     2778.701     1554.973      940.953        0.407        0.264       33.307       33.256        0.997      343.199       19.144      865.546
10/06/2014  10:44:00       29.041        2.956       16.083       27.973       33.968       37.092      782.489     1153.838     1375.852        0.221        0.166       29.191       29.855        1.046      343.033       18.861      865.533
10/06/2014  10:45:00      112.888       62.496       45.512       67.148       57.838       46.453     4508.883     3345.190     2157.921        1.436        0.501      129.033       42.147        0.107      343.001       18.803      865.525
10/06/2014  10:46:00      118.619       94.094       33.624       41.379       47.437       40.800     1712.241     2250.226     1664.606        1.484        0.281      151.408       14.409        0.009      342.911       18.654      865.521
10/06/2014  10:47:00       76.565       73.563       16.287       35.694       31.964       31.352     1274.048     1021.669      982.946        0.741        0.164      106.178       17.139        0.026      342.845       18.541      865.519
10/06/2014  10:48:00       33.473       57.514        3.023       35.727       41.844       33.558     1276.404     1750.891     1126.156        0.429        0.208       66.545       28.285        0.181      343.095       18.967      865.520
10/06/2014  10:49:00       28.307       54.785       -2.910       28.881       29.011       22.513      834.126      841.642      506.818        0.300        0.109       61.666       17.844        0.084      343.285       19.289      865.501
10/06/2014  10:50:00        8.313       -6.051       -2.134       27.643       45.890       28.403      764.154     2105.860      806.727        0.189        0.184       10.282       27.090        6.941      343.291       19.299      865.498
10/06/2014  10:51:00       12.585        6.222       41.988       26.769       46.757       22.345      716.585     2186.249      499.305        0.268        0.170       14.039       21.631        2.374      343.454       19.577      865.486
10/06/2014  10:52:00       -0.283      -37.654       -8.935       35.147       20.409       19.476     1235.321      416.545      379.301        0.176        0.102       37.655       20.031        0.283      342.962       18.739      865.478
10/06/2014  10:53:00        4.046       17.114       22.400       32.805       30.276       23.733     1076.163      916.607      563.256        0.168        0.128       17.585       19.240        1.197      343.751       20.083      865.459
10/06/2014  10:54:00       95.519       48.796        4.736       75.194       45.028       39.230     5654.135     2027.487     1539.019        1.037        0.461      107.261       13.310        0.015      343.337       19.376      865.447
10/06/2014  10:55:00      133.633       54.296        8.796       65.764       46.564       37.983     4324.966     2168.190     1442.741        1.441        0.397      144.242       22.921        0.025      343.546       19.734      865.425
10/06/2014  10:56:00      130.363       66.601       15.154       59.883       32.978       33.309     3585.916     1087.516     1109.518        1.372        0.289      146.391       27.486        0.035      343.191       19.127      865.418
10/06/2014  10:57:00       60.594       49.223        7.456       46.905       37.221       31.050     2200.038     1385.413      964.118        0.535        0.227       78.067       17.908        0.053      343.526       19.700      865.403
10/06/2014  10:58:00      117.727       91.308       10.874       40.604       25.130       21.208     1648.725      631.523      449.780        1.252        0.137      148.985        1.828        0.000      343.229       19.195      865.393
10/06/2014  10:59:00       68.568       72.573       -2.154       36.435       23.262       24.517     1327.529      541.143      601.086        0.622        0.123       99.842       16.081        0.026      343.208       19.158      865.376
10/06/2014  11:00:00       70.473       53.618       32.458       32.279       20.809       29.393     1041.926      433.032      863.969        0.562        0.117       88.551       12.715        0.021      343.296       19.308      865.364
10/06/2014  11:01:00       35.996       27.767       12.271       50.298       24.855       24.569     2529.915      617.786      603.658        0.298        0.188       45.461       22.745        0.250      343.796       20.160      865.336
10/06/2014  11:02:00      108.388       50.666        4.879       43.304       45.136       32.813     1875.247     2037.214     1076.672        0.966        0.249      119.645       19.063        0.025      343.464       19.594      865.323
10/06/2014  11:03:00       93.207       76.333        6.795       35.149       34.989       26.310     1235.425     1224.216      692.242        0.886        0.158      120.475        8.189        0.005      343.198       19.142      865.304
10/06/2014  11:04:00       32.556       57.227       -4.842       30.506       40.804       18.996      930.625     1664.974      360.842        0.366        0.148       65.839       14.987        0.052      343.309       19.330      865.293
10/06/2014  11:05:00       10.473       85.330      -11.375       36.663       33.588       19.778     1344.181     1128.126      391.173        0.519        0.143       85.970       19.818        0.053      343.374       19.441      865.282
10/06/2014  11:06:00       24.016       62.518       -2.618       28.482       37.969       25.427      811.202     1441.630      646.546        0.370        0.145       66.972       24.316        0.132      343.717       20.026      865.259
10/06/2014  11:07:00       47.221       25.668       20.420       33.487       49.668       29.699     1121.366     2466.868      882.035        0.389        0.224       53.746       22.572        0.176      343.671       19.948      865.258
10/06/2014  11:08:00        3.068       16.984       45.276       37.085       52.362       39.480     1375.275     2741.728     1558.655        0.401        0.284       17.259       32.277        3.498      343.850       20.252      865.235
10/06/2014  11:09:00       24.151       57.996       59.218       51.409       27.500       32.640     2642.891      756.270     1065.366        0.596        0.223       62.823       30.780        0.240      343.521       19.692      865.238
10/06/2014  11:10:00       42.743       35.639       18.729       33.559       27.734       25.575     1126.209      769.154      654.094        0.300        0.127       55.652       16.648        0.089      343.850       20.252      865.225
10/06/2014  11:11:00       11.084      -35.328        2.462       42.083       46.331       26.962     1770.973     2146.521      726.937        0.301        0.232       37.026       30.295        0.669      343.547       19.736      865.228
10/06/2014  11:12:00       31.369       18.315       34.343       35.924       55.958       28.125     1290.508     3131.305      791.018        0.385        0.261       36.324       21.332        0.345      343.590       19.811      865.213
10/06/2014  11:13:00       51.945       63.396       58.327       33.442       34.358       37.818     1118.373     1180.464     1430.212        0.692        0.186       81.959       18.407        0.050      343.784       20.141      865.213
10/06/2014  11:14:00       32.773      -11.426       23.523       35.022       57.631       46.393     1226.568     3321.360     2152.280        0.423        0.335       34.707       46.178        1.770      343.555       19.750      865.200
10/06/2014  11:15:00       -2.472       -2.286       20.978       24.450       38.908       38.327      597.813     1513.817     1468.963        0.202        0.179        3.367       34.784      106.738      343.958       20.438      865.202
10/06/2014  11:16:00       18.636       36.797       25.326       22.195       28.502       43.385      492.639      812.368     1882.219        0.276        0.159       41.247       25.423        0.380      343.847       20.247      865.193
10/06/2014  11:17:00       -0.852       20.136       16.907       28.745       28.162       22.118      826.301      793.086      489.212        0.140        0.105       20.154       15.096        0.561      344.127       20.725      865.193
10/06/2014  11:18:00       14.877      -17.409       14.478       17.769       22.822       16.443      315.732      520.827      270.376        0.092        0.055       22.900        6.696        0.086      344.000       20.509      865.172
10/06/2014  11:19:00       10.457      -32.641       -0.158       16.453       20.276       14.699      270.711      411.106      216.074        0.104        0.045       34.275        8.214        0.057      343.680       19.962      865.168
10/06/2014  11:20:00       30.517       22.755       23.227       46.628       26.468       13.099     2174.201      700.573      171.576        0.252        0.152       38.067        4.323        0.013      344.268       20.968      865.155
10/06/2014  11:21:00       72.149       61.037       30.998       27.091       18.148       25.374      733.940      329.360      643.856        0.580        0.085       94.504       10.657        0.013      343.738       20.062      865.158
10/06/2014  11:22:00       22.679       25.847       21.808       21.531       14.998       19.805      463.584      224.935      392.241        0.137        0.054       34.386       12.706        0.137      343.993       20.497      865.147
10/06/2014  11:23:00       37.264       21.273       21.716       34.591       41.993       35.274     1196.535     1763.382     1244.234        0.326        0.210       42.909       28.360        0.437      344.153       20.770      865.134
10/06/2014  11:24:00      -16.460       -8.729       24.192       29.629       22.493       25.375      877.856      505.919      643.885        0.148        0.101       18.631       19.681        1.116      344.665       21.647      865.125
10/06/2014  11:25:00        2.212       29.004       61.264       41.258       47.494       27.322     1702.257     2255.707      746.504        0.465        0.235       29.088       30.292        1.084      344.420       21.226      865.123
10/06/2014  11:26:00       65.601       64.571       14.471       29.334       24.579       26.040      860.477      604.135      678.082        0.541        0.107       92.048       15.707        0.029      343.896       20.330      865.129
10/06/2014  11:27:00       12.194        3.592      -11.249       24.287       30.927       20.522      589.852      956.488      421.168        0.113        0.098       12.712       18.135        2.035      343.908       20.352      865.125
10/06/2014  11:28:00       21.402        8.320       25.944       30.181       28.522       21.941      910.877      813.504      481.388        0.170        0.110       22.962       13.686        0.355      344.439       21.259      865.131
10/06/2014  11:29:00        0.207       -8.768        3.684       24.035       26.230       24.786      577.672      688.021      614.360        0.098        0.094        8.770       19.747        5.070      344.288       21.001      865.123
10/06/2014  11:30:00       79.439       57.087       13.862       48.758       37.463       35.799     2377.365     1403.477     1281.567        0.741        0.253       97.824       20.443        0.044      344.218       20.882      865.120
10/06/2014  11:31:00       51.340       62.265       10.250       31.662       25.178       31.899     1002.491      633.935     1017.522        0.464        0.133       80.701       13.303        0.027      344.295       21.013      865.109
10/06/2014  11:32:00       68.732       70.956        1.960       36.793       31.035       21.080     1353.755      963.193      444.355        0.626        0.138       98.787       12.365        0.016      344.352       21.109      865.111
10/06/2014  11:33:00       53.812       49.760       17.494       27.274       32.725       30.842      743.870     1070.953      951.242        0.422        0.138       73.293       24.156        0.109      344.647       21.614      865.100
10/06/2014  11:34:00       30.467       48.844       -4.393       23.133       32.370       27.870      535.136     1047.815      776.718        0.285        0.118       57.568       11.751        0.042      344.303       21.025      865.104
10/06/2014  11:35:00      -16.899      -49.513      -18.053       13.108       20.716       14.831      171.818      429.161      219.972        0.194        0.041       52.317        8.194        0.025      344.122       20.716      865.091
10/06/2014  11:36:00      -45.189       17.299      -17.581       20.008       16.452       12.481      400.316      270.656      155.773        0.174        0.041       48.387        5.288        0.012      344.228       20.898      865.090
10/06/2014  11:37:00      -40.432       -2.607       -9.315       22.119       13.392       15.418      489.239      179.349      237.719        0.132        0.045       40.516       12.820        0.100      344.313       21.042      865.072
10/06/2014  11:38:00       13.811        2.707        5.163       33.961       17.628       26.566     1153.383      310.736      705.755        0.120        0.108       14.074       22.699        2.601      344.263       20.958      865.062
10/06/2014  11:39:00       19.717       14.110       -7.818       20.969       25.349       24.810      439.719      642.571      615.513        0.117        0.085       24.246       17.302        0.509      344.236       20.912      865.046
10/06/2014  11:40:00       63.993       55.988        2.887       26.208       40.043       29.782      686.872     1603.473      886.991        0.521        0.159       85.027       20.771        0.060      344.275       20.978      865.035
10/06/2014  11:41:00       17.179       -6.855       23.111       27.799       48.086       27.196      772.774     2312.266      739.597        0.235        0.191       18.496       23.483        1.612      344.600       21.534      865.027
10/06/2014  11:42:00       68.344       64.133       39.116       73.499       37.799       33.002     5402.086     1428.779     1089.164        0.912        0.396       93.723       17.398        0.034      344.779       21.842      865.008
10/06/2014  11:43:00       35.236        9.043       41.384       51.409       47.962       33.028     2642.922     2300.320     1090.839        0.453        0.302       36.378       31.788        0.764      344.959       22.147      864.992
10/06/2014  11:44:00       79.279      -14.408       25.400       45.325       30.364       35.065     2054.334      921.993     1229.553        0.567        0.210       80.577       26.296        0.107      344.314       21.045      864.983
10/06/2014  11:45:00       34.822      -19.258       28.056       26.063       29.768       22.122      679.287      886.129      489.402        0.221        0.103       39.792       23.175        0.339      344.610       21.550      864.965
10/06/2014  11:46:00        5.243       24.056       38.910       17.714       54.004       35.378      313.771     2916.398     1251.600        0.330        0.224       24.621       38.443        2.438      344.947       22.128      864.945
10/06/2014  11:47:00       48.849       31.704       53.405       43.581       60.124       22.972     1899.294     3614.915      527.710        0.614        0.302       58.236       21.855        0.141      344.747       21.785      864.928
10/06/2014  11:48:00       32.439        1.990       41.623       28.849       39.342       26.715      832.254     1547.763      713.713        0.294        0.155       32.500       18.139        0.312      344.711       21.725      864.919
10/06/2014  11:49:00       11.041      -37.021       11.538       19.681       24.752       20.096      387.328      612.682      403.838        0.151        0.070       38.632       11.500        0.089      344.635       21.594      864.909
10/06/2014  11:50:00        8.384       35.698       19.568       17.798       50.568       25.394      316.762     2557.087      644.875        0.262        0.176       36.669       25.073        0.468      345.156       22.485      864.887
10/06/2014  11:51:00      -12.756       81.761        6.171       17.572       42.543       27.941      308.769     1809.925      780.683        0.489        0.145       82.750       28.697        0.120      345.372       22.858      864.871
10/06/2014  11:52:00       20.286       13.654       11.537       24.305       20.346       24.156      590.710      413.954      583.496        0.116        0.079       24.453       16.126        0.435      345.473       23.028      864.845
10/06/2014  11:53:00        1.882        0.082       14.489       16.528       13.328       10.880      273.183      177.630      118.376        0.039        0.028        1.884        6.879       13.335      345.735       23.479      864.834
10/06/2014  11:54:00        5.674      -33.693       -0.820       27.392       25.620       26.121      750.310      656.383      682.329        0.163        0.104       34.167       22.612        0.438      344.794       21.865      864.810
10/06/2014  11:55:00       40.914        7.181       10.249       25.623       29.767       21.826      656.552      886.050      476.381        0.192        0.101       41.539       16.590        0.160      344.866       21.991      864.800
10/06/2014  11:56:00        9.787        8.773       15.743       18.067       16.516       19.960      326.403      272.765      398.391        0.071        0.050       13.144       11.832        0.810      345.722       23.457      864.773
10/06/2014  11:57:00       69.144       64.086        7.508       49.334       24.233       26.355     2433.838      587.225      694.582        0.633        0.186       94.276        8.203        0.008      345.014       22.243      864.754
10/06/2014  11:58:00        6.123       20.530       23.119       28.072       25.726       24.003      788.048      661.811      576.122        0.151        0.101       21.424       19.508        0.829      345.819       23.623      864.731
10/06/2014  11:59:00       90.531       30.630        7.957       46.823       27.567       29.527     2192.385      759.915      871.870        0.651        0.191       95.572       15.788        0.027      345.054       22.312      864.725
10/06/2014  12:00:00      149.794       88.703       34.210       31.325       28.375       28.118      981.252      805.157      790.645        1.703        0.129      174.088       17.355        0.010      344.945       22.125      864.710
10/06/2014  12:01:00       66.071       62.089       21.211       34.496       28.311       38.019     1189.973      801.531     1445.429        0.605        0.172       90.666       12.853        0.020      344.816       21.903      864.706
10/06/2014  12:02:00       99.877       62.938       11.080       41.117       35.630       35.461     1690.619     1269.530     1257.478        0.914        0.211      118.053       14.156        0.014      344.847       21.956      864.688
10/06/2014  12:03:00       79.313       54.596        4.615       34.993       19.570       26.917     1224.532      383.003      724.541        0.581        0.117       96.287       16.376        0.029      345.066       22.329      864.682
10/06/2014  12:04:00       14.391       16.313       -4.057       30.990       35.008       22.400      960.406     1225.545      501.745        0.159        0.134       21.753       12.187        0.314      344.982       22.189      864.676
10/06/2014  12:05:00      -44.544        0.099       13.034       29.651       24.696       19.137      879.187      609.909      366.238        0.200        0.093       44.544       13.070        0.086      345.343       22.806      864.658
10/06/2014  12:06:00       23.956       -2.019       23.875       34.603       18.324       30.427     1197.361      335.774      925.775        0.180        0.123       24.041       12.954        0.290      345.327       22.780      864.639
10/06/2014  12:07:00       15.328      -20.403       13.594       26.176       41.737       26.209      685.187     1741.981      686.921        0.197        0.156       25.519       15.739        0.380      344.997       22.213      864.616
10/06/2014  12:08:00       34.737       34.945       48.363       41.192       42.262       31.077     1696.746     1786.118      965.777        0.461        0.222       49.273       13.905        0.080      345.597       23.242      864.608
10/06/2014  12:09:00       -3.871        1.376       31.146       22.336       35.924       21.742      498.900     1290.499      472.721        0.162        0.113        4.109       19.356       22.193      345.798       23.586      864.596
10/06/2014  12:10:00       32.775      -32.136       11.561       29.288       22.162       26.393      857.784      491.157      696.585        0.214        0.102       45.901        9.064        0.039      345.073       22.343      864.589
10/06/2014  12:11:00       36.137      -13.055       18.938       33.910       29.537       28.771     1149.883      872.442      827.783        0.234        0.143       38.423       20.596        0.287      345.572       23.199      864.581
10/06/2014  12:12:00       19.211       13.701       36.148       33.452       29.121       25.068     1119.008      848.030      628.427        0.223        0.130       23.597       14.223        0.363      345.813       23.612      864.571
10/06/2014  12:13:00       26.540       27.865       27.113       26.725       24.339       22.027      714.208      592.400      485.190        0.200        0.090       38.481       16.349        0.181      345.387       22.882      864.566
10/06/2014  12:14:00       48.034      -15.511       13.577       34.509       25.311       26.825     1190.902      640.651      719.588        0.264        0.128       50.476       21.458        0.181      345.095       22.382      864.557
10/06/2014  12:15:00        2.135      -34.630       31.211       25.993       68.175       29.284      675.634     4647.890      857.529        0.418        0.309       34.695       36.954        1.134      345.717       23.447      864.545
10/06/2014  12:16:00        7.232      -23.053       18.684       30.878       34.535       20.419      953.461     1192.651      416.920        0.175        0.128       24.161       21.506        0.792      345.517       23.103      864.539
10/06/2014  12:17:00       32.612      -24.807        3.022       43.465       41.488       22.696     1889.220     1721.230      515.111        0.291        0.206       40.975       11.822        0.083      344.980       22.185      864.527
10/06/2014  12:18:00       30.837      -21.879      -11.645       28.920       26.486       17.625      836.350      701.520      310.648        0.171        0.092       37.810       16.158        0.183      344.778       21.838      864.517
10/06/2014  12:19:00       10.746       26.790       46.233       43.862       37.364       30.071     1923.836     1396.105      904.272        0.360        0.211       28.865       34.480        1.427      345.346       22.810      864.503
10/06/2014  12:20:00       31.766       34.001       43.579       53.012       47.730       25.037     2810.257     2278.106      626.847        0.489        0.286       46.531        9.695        0.043      345.815       23.617      864.490
10/06/2014  12:21:00       66.360       -5.909       21.088       33.572       52.367       29.557     1127.102     2742.340      873.639        0.481        0.237       66.622       16.630        0.062      345.513       23.097      864.481
10/06/2014  12:22:00       27.258       -4.836        9.809       27.067       20.635       17.881      732.599      425.798      319.747        0.117        0.074       27.683        5.980        0.047      345.693       23.406      864.478
10/06/2014  12:23:00       17.279        9.736        8.298       18.098       22.189       25.841      327.527      492.372      667.738        0.097        0.074       19.833       16.940        0.730      345.818       23.620      864.470
10/06/2014  12:24:00       38.041       48.302      -19.426       15.987       20.567       24.030      255.585      422.999      577.432        0.271        0.063       61.483       13.474        0.048      345.517       23.104      864.450
10/06/2014  12:25:00       23.582       25.569       12.821       27.819       50.862       23.858      773.889     2586.907      569.202        0.265        0.196       34.784       11.628        0.112      345.715       23.444      864.440
10/06/2014  12:26:00        3.187      -23.572        8.936       28.357       32.641       28.726      804.116     1065.442      825.169        0.167        0.135       23.787       24.068        1.024      345.809       23.607      864.426
10/06/2014  12:27:00        2.395       10.603       19.877       17.722       21.810       17.952      314.074      475.696      322.276        0.081        0.056       10.871       12.840        1.395      346.152       24.195      864.419
10/06/2014  12:28:00       10.796       20.486       26.634       27.679       22.969       16.368      766.121      527.576      267.899        0.140        0.078       23.157        6.704        0.084      346.203       24.282      864.397
10/06/2014  12:29:00       -1.127       29.122       23.645       21.248       28.359       19.207      451.487      804.260      368.910        0.152        0.081       29.143       15.286        0.275      346.500       24.793      864.395
10/06/2014  12:30:00      -26.790        5.853       -2.348       18.698       19.727       16.360      349.628      389.160      267.639        0.088        0.050       27.422       14.755        0.290      346.213       24.300      864.374
10/06/2014  12:31:00       27.455      -48.984       -7.657       21.998       24.110       25.559      483.927      581.316      653.283        0.246        0.086       56.154        8.018        0.020      346.042       24.005      864.368
10/06/2014  12:32:00        2.609        3.632       38.594       20.656       40.671       24.567      426.682     1654.111      603.555        0.210        0.134        4.472       24.607       30.272      346.827       25.355      864.346
10/06/2014  12:33:00       18.072      -38.665       17.939       33.309       44.927       26.977     1109.515     2018.454      727.743        0.300        0.193       42.680       19.314        0.205      346.467       24.735      864.337
10/06/2014  12:34:00       14.009       10.647       37.375       33.905       34.818       31.463     1149.552     1212.313      989.903        0.253        0.168       17.596       26.671        2.298      346.653       25.056      864.323
10/06/2014  12:35:00        9.623        4.772       36.314       26.620       45.386       29.484      708.633     2059.865      869.294        0.254        0.182       10.741       20.054        3.486      346.864       25.419      864.313
10/06/2014  12:36:00       29.700       61.264       82.586       63.321       48.582       41.156     4009.497     2360.203     1693.829        0.976        0.403       68.084       40.910        0.361      346.513       24.816      864.295
10/06/2014  12:37:00       57.457        8.962        4.837       61.713       39.010       27.135     3808.481     1521.818      736.306        0.473        0.303       58.152       18.638        0.103      346.262       24.383      864.300
10/06/2014  12:38:00      -42.903       -2.924       -3.140       24.148       28.179       21.252      583.134      794.062      451.667        0.184        0.091       43.002       13.899        0.104      346.246       24.355      864.274
10/06/2014  12:39:00       13.476        4.571       30.899       29.968       17.303       14.556      898.071      299.408      211.871        0.128        0.070       14.231       14.482        1.036      346.888       25.460      864.260
10/06/2014  12:40:00      100.908       53.188       32.876       43.332       42.123       34.793     1877.677     1774.346     1210.547        0.948        0.243      114.068       23.809        0.044      346.000       23.934      864.249
10/06/2014  12:41:00       59.309       38.441       -6.770       33.331       58.279       33.121     1110.940     3396.487     1097.011        0.532        0.280       70.677       11.127        0.025      346.008       23.946      864.228
10/06/2014  12:42:00       41.425        1.738       28.615       34.135       62.792       32.482     1165.178     3942.842     1055.056        0.435        0.308       41.461       38.183        0.848      346.577       24.926      864.197
10/06/2014  12:43:00       12.795      -43.769       15.291       34.583       64.825       39.415     1195.967     4202.314     1553.551        0.463        0.348       45.601       34.423        0.570      346.752       25.227      864.179
10/06/2014  12:44:00       29.257       10.595       51.397       46.424       53.209       47.814     2155.152     2831.151     2286.154        0.544        0.364       31.116       27.710        0.793      346.906       25.490      864.158
10/06/2014  12:45:00       24.757      -30.869       41.251       30.799       41.634       33.817      948.596     1733.417     1143.569        0.355        0.191       39.571       26.164        0.437      346.857       25.407      864.163
10/06/2014  12:46:00       68.291      -94.905       11.026       66.027       41.823       48.996     4359.564     1749.193     2400.561        1.115        0.425      116.921       47.675        0.166      346.318       24.478      864.149
10/06/2014  12:47:00       26.129      -86.056       -0.208       41.503       30.101       23.898     1722.506      906.051      571.130        0.564        0.160       89.936       13.711        0.023      346.241       24.346      864.142
10/06/2014  12:48:00       -1.509        3.251        4.263       28.872       27.400       24.563      833.618      750.787      603.319        0.111        0.109        3.584        9.641        7.236      347.009       25.668      864.127
10/06/2014  12:49:00        7.436       17.090       28.754       22.768       23.120       17.051      518.362      534.522      290.726        0.126        0.067       18.638       14.926        0.641      347.564       26.624      864.127
10/06/2014  12:50:00      -14.364       33.339       23.468       41.349       31.459       29.974     1709.762      989.697      898.459        0.273        0.180       36.302       23.914        0.434      347.226       26.041      864.098
10/06/2014  12:51:00       -5.795       35.708       41.186       28.555       31.114       21.792      815.416      968.103      474.891        0.263        0.113       36.175       11.237        0.096      347.467       26.457      864.076
10/06/2014  12:52:00       13.209      -21.267       23.949       25.009       33.547       28.895      625.471     1125.429      834.908        0.189        0.129       25.035       24.132        0.929      347.266       26.112      864.070
10/06/2014  12:53:00       16.727      -54.582       11.526       42.935       34.937       40.665     1843.413     1220.574     1653.655        0.405        0.236       57.087       35.361        0.384      346.894       25.470      864.045
10/06/2014  12:54:00       32.677      -30.493       -2.721       33.434       68.850       27.256     1117.838     4740.351      742.865        0.430        0.330       44.695       20.585        0.212      346.631       25.017      864.031
10/06/2014  12:55:00      -18.743        5.023        3.765       34.842       27.696       21.370     1213.972      767.057      456.681        0.141        0.122       19.404        7.842        0.163      347.295       26.161      864.013
10/06/2014  12:56:00       20.589       51.154       63.269       32.659       54.658       29.662     1066.604     2987.458      879.838        0.599        0.247       55.142       25.411        0.212      346.999       25.651      864.007
10/06/2014  12:57:00       66.349       64.027       11.469       62.412       37.878       42.419     3895.289     1434.768     1799.352        0.788        0.356       92.204       19.645        0.045      346.653       25.055      863.997
10/06/2014  12:58:00       16.996      121.607       -9.244       46.220       50.353       31.397     2136.286     2535.394      985.749        1.041        0.283      122.789       25.643        0.044      346.752       25.227      863.976
10/06/2014  12:59:00        8.706      133.012      -12.907       25.324       34.804       29.230      641.313     1211.319      854.419        1.032        0.135      133.297       23.701        0.032      346.553       24.885      863.977
10/06/2014  13:00:00      -24.942       66.465      -17.635       46.133       47.164       24.124     2128.225     2224.475      581.987        0.514        0.247       70.990       22.257        0.098      346.586       24.938      863.961
10/06/2014  13:01:00      -27.894       16.865      -21.208       39.502       25.913       14.492     1560.424      671.480      210.027        0.198        0.122       32.596       19.090        0.343      346.617       24.994      863.952
10/06/2014  13:02:00       -7.892       71.733       -8.246       25.739       48.251       24.769      662.488     2328.155      613.494        0.444        0.180       72.166       21.324        0.087      346.909       25.498      863.930
10/06/2014  13:03:00       54.462       63.590       11.618       37.405       34.960       35.217     1399.147     1222.229     1240.208        0.550        0.193       83.724       27.858        0.111      346.780       25.274      863.915
10/06/2014  13:04:00       41.379       40.391       27.255       35.533       29.356       25.078     1262.602      861.754      628.899        0.342        0.138       57.825       19.420        0.113      347.033       25.710      863.892
10/06/2014  13:05:00       70.871       65.123        9.335       62.758       46.791       41.048     3938.537     2189.438     1684.923        0.858        0.391       96.248       28.076        0.085      346.918       25.512      863.872
10/06/2014  13:06:00       41.069       88.277        5.475       38.960       59.834       36.296     1517.890     3580.161     1317.372        0.796        0.321       97.362       36.560        0.141      346.897       25.476      863.851
10/06/2014  13:07:00       75.286       60.373       18.462       43.563       47.961       34.590     1897.768     2300.213     1196.452        0.752        0.270       96.504       16.496        0.029      347.192       25.985      863.831
10/06/2014  13:08:00       69.731       60.126       21.973       36.177       40.403       33.510     1308.787     1632.423     1122.912        0.651        0.203       92.073       23.213        0.064      347.372       26.294      863.824
10/06/2014  13:09:00       76.622       59.961       10.612       65.583       33.209       32.390     4301.148     1102.868     1049.129        0.801        0.323       97.294       19.755        0.041      347.039       25.720      863.800
10/06/2014  13:10:00       36.134       71.988       -1.545       55.736       52.113       29.542     3106.480     2715.756      872.720        0.659        0.335       80.548       22.682        0.079      347.123       25.864      863.789
10/06/2014  13:11:00       23.293       78.839       20.801       50.200       68.781       48.216     2520.071     4730.816     2324.782        0.838        0.479       82.208       41.958        0.260      347.205       26.006      863.770
10/06/2014  13:12:00       25.098       20.415        7.114       30.347       32.083       28.507      920.922     1029.300      812.628        0.193        0.138       32.353       11.937        0.136      347.195       25.989      863.751
10/06/2014  13:13:00       18.663       -2.662       38.963       33.194       27.024       23.608     1101.810      730.303      557.347        0.213        0.119       18.852       23.081        1.499      347.434       26.401      863.729
10/06/2014  13:14:00       76.539       73.790        1.183       65.567       52.888       42.275     4299.038     2797.163     1787.185        1.009        0.444      106.317       34.053        0.103      346.938       25.545      863.722
10/06/2014  13:15:00       -3.445       34.905      -12.974       36.223       46.689       16.579     1312.095     2179.875      274.848        0.258        0.188       35.074        9.504        0.073      347.158       25.925      863.710
10/06/2014  13:16:00       78.670       60.992       11.148       53.792       37.371       37.994     2893.632     1396.587     1443.556        0.788        0.287       99.544       27.461        0.076      347.087       25.802      863.690
10/06/2014  13:17:00      107.247       69.948       45.090       97.681       51.548       53.388     9541.483     2657.214     2850.297        1.674        0.752      128.042       32.570        0.065      347.219       26.028      863.675
10/06/2014  13:18:00       78.124       29.626       26.439       72.966       61.052       35.757     5323.993     3727.391     1278.553        0.900        0.516       83.552       29.844        0.128      347.074       25.780      863.660
10/06/2014  13:19:00       88.955       71.051        8.435       79.248       65.907       53.755     6280.266     4343.674     2889.562        1.327        0.676      113.848       36.507        0.103      347.189       25.977      863.655
10/06/2014  13:20:00      135.189       99.172       27.053       43.813       43.472       32.451     1919.584     1889.801     1053.042        1.685        0.243      167.664       14.115        0.007      346.996       25.645      863.641
10/06/2014  13:21:00       35.425       28.300       17.457       28.749       40.388       19.560      826.497     1631.181      382.600        0.260        0.142       45.341       12.870        0.081      347.234       26.057      863.637
10/06/2014  13:22:00       -0.240        4.520        4.090       27.459       19.007       18.712      754.017      361.272      350.152        0.075        0.073        4.526        9.308        4.229      347.677       26.820      863.609
10/06/2014  13:23:00       10.225      -53.243       -1.705       30.260       29.698       28.387      915.688      881.992      805.831        0.277        0.130       54.216       13.748        0.064      347.240       26.067      863.596
10/06/2014  13:24:00        2.959       -2.882       25.413       25.121       36.401       20.771      631.047     1325.024      431.426        0.152        0.119        4.131       12.109        8.594      347.514       26.538      863.575
10/06/2014  13:25:00       67.202       45.394       37.399       59.958       38.236       36.182     3595.012     1461.966     1309.104        0.717        0.318       81.097       26.121        0.104      347.194       25.987      863.560
10/06/2014  13:26:00      136.891       78.413       20.132       64.523       38.445       43.879     4163.201     1477.992     1925.384        1.643        0.378      157.758       30.899        0.038      346.974       25.607      863.543
10/06/2014  13:27:00       98.884       80.508       33.465       42.480       31.247       30.961     1804.559      976.371      958.582        1.056        0.187      127.513       11.711        0.008      347.082       25.793      863.524
10/06/2014  13:28:00       76.710       83.840       27.374       46.715       28.037       41.644     2182.334      786.048     1734.203        0.918        0.235      113.638       27.547        0.059      347.125       25.868      863.520
10/06/2014  13:29:00       91.577       66.884        5.064       65.754       60.216       39.407     4323.541     3625.926     1552.913        1.119        0.475      113.401       31.516        0.077      347.049       25.737      863.510
10/06/2014  13:30:00      -11.771       52.877       -6.736       41.179       41.854       24.578     1695.725     1751.798      604.098        0.352        0.203       54.171       24.522        0.205      347.558       26.616      863.498
10/06/2014  13:31:00      -27.463      171.504      -18.098       49.731       88.940       40.341     2473.162     7910.353     1627.380        2.125        0.601      173.689       43.748        0.063      347.186       25.970      863.486
10/06/2014  13:32:00       11.835      108.370       -3.857       61.904       62.961       27.276     3832.093     3964.086      744.003        1.022        0.427      109.014       28.642        0.069      347.401       26.344      863.459
10/06/2014  13:33:00       40.973      -11.622       27.668       50.893       62.069       43.685     2590.050     3852.500     1908.360        0.546        0.418       42.589       24.217        0.323      347.688       26.840      863.447
10/06/2014  13:34:00       75.327      -94.073        7.592       59.951      102.587       44.813     3594.163    10524.145     2008.185        1.535        0.806      120.515       54.956        0.208      347.471       26.463      863.426
10/06/2014  13:35:00       54.542      -65.164       -1.387       47.892       51.401       28.663     2293.644     2642.099      821.545        0.649        0.288       84.978       29.654        0.122      347.111       25.842      863.424
10/06/2014  13:36:00        0.821       21.389        1.342       19.404       17.289       15.313      376.530      298.903      234.484        0.068        0.045       21.405        9.636        0.203      347.399       26.340      863.397
10/06/2014  13:37:00      -46.652        2.178        5.255       35.122       27.294       12.801     1233.541      744.973      163.876        0.218        0.107       46.703       14.580        0.097      347.377       26.303      863.377
10/06/2014  13:38:00      -31.938       28.481        1.285       36.981       26.794       21.634     1367.605      717.945      468.010        0.219        0.128       42.792       21.226        0.246      347.251       26.085      863.358
10/06/2014  13:39:00       13.054       13.919       -6.105       19.654       23.359       23.724      386.277      545.635      562.825        0.095        0.075       19.083       13.654        0.512      347.547       26.596      863.352
10/06/2014  13:40:00       69.023       62.510       28.774       63.151       67.088       39.982     3988.007     4500.748     1598.593        0.979        0.504       93.122       36.158        0.151      347.666       26.800      863.338
10/06/2014  13:41:00      112.655       83.622       30.706       91.735       59.374       48.845     8415.258     3525.246     2385.829        1.747        0.716      140.299       11.662        0.007      347.472       26.464      863.308
10/06/2014  13:42:00      119.446       96.382       38.773       66.157       38.404       47.475     4376.697     1474.879     2253.831        1.658        0.405      153.482       23.307        0.023      347.306       26.179      863.299
10/06/2014  13:43:00       45.120       61.202       16.133       55.875       51.532       35.523     3121.990     2655.595     1261.855        0.654        0.352       76.036       27.950        0.135      347.574       26.642      863.293
10/06/2014  13:44:00       68.607       82.205       44.322       67.363       61.760       54.223     4537.838     3814.294     2940.138        1.236        0.565      107.073       44.800        0.175      347.733       26.916      863.273
10/06/2014  13:45:00       17.858      -16.760       23.849       37.265       49.117       42.376     1388.647     2412.439     1795.721        0.338        0.280       24.491       37.806        2.383      347.418       26.373      863.276
10/06/2014  13:46:00       41.399        0.701       21.924       33.362       47.017       30.600     1113.031     2210.643      936.379        0.323        0.213       41.405       25.053        0.366      347.565       26.626      863.255
10/06/2014  13:47:00       90.909       27.324       23.891       75.772       74.402       38.588     5741.468     5535.665     1489.013        1.117        0.638       94.926       27.980        0.087      347.618       26.716      863.237
10/06/2014  13:48:00       40.662       -4.830        0.520       58.130       77.950       37.649     3379.069     6076.171     1417.441        0.627        0.544       40.948       22.950        0.314      347.817       27.061      863.219
10/06/2014  13:49:00       52.797       56.013        2.235       53.606       38.649       34.072     2873.589     1493.717     1160.896        0.573        0.276       76.974       27.885        0.131      347.727       26.905      863.210
10/06/2014  13:50:00       44.649       74.016        4.117       57.935       38.374       29.832     3356.415     1472.556      889.970        0.660        0.286       86.440       24.659        0.081      347.728       26.907      863.190
10/06/2014  13:51:00       49.061       73.765       91.302       85.384      102.534       67.841     7290.446    10513.254     4602.368        1.929        1.120       88.590       68.732        0.602      347.669       26.804      863.170
10/06/2014  13:52:00      159.043      123.165       60.829       50.688       55.417       53.854     2569.261     3071.068     2900.296        2.635        0.427      201.157       46.745        0.054      347.201       25.997      863.168
10/06/2014  13:53:00       79.129        4.292       19.152       44.155       66.834       33.873     1949.646     4466.745     1147.405        0.710        0.378       79.246       34.990        0.195      347.557       26.611      863.133
10/06/2014  13:54:00      139.172       70.392       54.923       86.753       74.886       54.817     7526.091     5607.895     3004.873        2.174        0.807      155.961       38.140        0.060      347.679       26.822      863.112
10/06/2014  13:55:00       85.476       84.978       48.779       54.228       53.963       53.086     2940.663     2912.017     2818.138        1.279        0.434      120.530       34.655        0.083      347.464       26.452      863.106
10/06/2014  13:56:00       67.005       39.261       18.179       38.072       25.789       31.596     1449.474      665.074      998.334        0.474        0.156       77.660       16.056        0.043      347.565       26.627      863.093
10/06/2014  13:57:00      122.862     -135.751      -19.584       76.686       87.669       38.564     5880.669     7685.836     1487.149        2.448        0.753      183.094       48.234        0.069      347.448       26.421      863.062
10/06/2014  13:58:00       36.460      -50.576      -16.417       72.819       68.835       17.504     5302.564     4738.294      306.401        0.725        0.517       62.348       15.278        0.060      347.320       26.203      863.055
10/06/2014  13:59:00       11.304       11.419       -8.674       27.811       36.048       22.052      773.460     1299.453      486.275        0.145        0.128       16.068       19.949        1.541      347.647       26.767      863.040
10/06/2014  14:00:00        3.983       73.816       -0.876       21.384       46.515       27.029      457.283     2163.625      730.568        0.441        0.168       73.924       20.319        0.076      347.652       26.778      863.015
10/06/2014  14:01:00        3.121       23.457       19.579       28.901       29.557       25.545      835.294      873.596      652.566        0.165        0.118       23.663       20.507        0.751      347.911       27.224      862.988
10/06/2014  14:02:00       12.733       20.036       -0.541       41.956       48.809       30.243     1760.306     2382.303      914.631        0.281        0.253       23.740       25.586        1.162      347.825       27.074      862.979
10/06/2014  14:03:00       18.634      -86.725        6.633       64.557       66.987       33.917     4167.545     4487.288     1150.395        0.886        0.490       88.704       24.352        0.075      347.706       26.870      862.969
10/06/2014  14:04:00       52.635      -15.904        9.825       28.684       29.864       21.772      822.766      891.851      474.039        0.265        0.109       54.985       16.162        0.086      347.504       26.522      862.954
10/06/2014  14:05:00      -27.035       49.701      -22.158       32.846       35.845       26.626     1078.860     1284.881      708.968        0.338        0.154       56.578       17.448        0.095      347.459       26.443      862.940
10/06/2014  14:06:00     -100.017       27.768      -12.537       37.528       28.395       26.463     1408.362      806.299      700.282        0.692        0.146      103.800       17.906        0.030      347.589       26.668      862.918
10/06/2014  14:07:00        9.576       33.001       14.578       35.320       22.295       17.156     1247.500      497.069      294.317        0.172        0.102       34.363        8.797        0.066      348.003       27.383      862.912
10/06/2014  14:08:00       84.494       59.913       25.656       47.629       31.705       45.450     2268.533     1005.209     2065.678        0.836        0.267      103.580       27.439        0.070      347.670       26.808      862.908
10/06/2014  14:09:00      109.219       48.090       26.162       36.169       50.606       45.791     1308.169     2560.996     2096.775        1.044        0.298      119.337       26.064        0.048      347.753       26.950      862.883
10/06/2014  14:10:00      147.448       94.173       18.585       70.436       73.800       46.213     4961.271     5446.488     2135.638        2.175        0.627      174.956       22.387        0.016      347.717       26.887      862.865
10/06/2014  14:11:00      133.412      112.117      -16.977       38.351       28.780       32.002     1470.816      828.271     1024.101        1.699        0.166      174.267       12.304        0.005      347.425       26.384      862.867
10/06/2014  14:12:00       52.876      109.152        3.581       54.059       40.919       51.574     2922.415     1674.383     2659.872        1.099        0.363      121.285       24.741        0.042      347.713       26.881      862.850
10/06/2014  14:13:00       72.001       20.851       38.262       36.982       49.587       33.808     1367.686     2458.845     1143.003        0.603        0.248       74.960        9.868        0.017      347.787       27.008      862.846
10/06/2014  14:14:00       46.342      -27.319       20.214       38.202       38.412       26.228     1459.388     1475.520      687.888        0.346        0.181       53.795       30.178        0.315      347.745       26.937      862.826
10/06/2014  14:15:00       20.659       -4.097       27.721       41.608       71.526       38.135     1731.218     5115.903     1454.292        0.476        0.415       21.062        8.630        0.168      347.959       27.306      862.811
10/06/2014  14:16:00       29.747       95.293      134.867       70.864       81.044       70.885     5021.679     6568.129     5024.717        2.238        0.831       99.828       58.603        0.345      347.989       27.357      862.797
10/06/2014  14:17:00       53.301      -16.039       55.015       73.496      122.214       79.764     5401.700    14936.241     6362.255        1.641        1.335       55.662       94.535        2.884      347.946       27.283      862.780
10/06/2014  14:18:00       71.553      -57.491       20.694       60.874       66.758       53.680     3705.635     4456.633     2881.589        0.995        0.552       91.788       47.758        0.271      347.939       27.272      862.775
10/06/2014  14:19:00       46.996      -38.762       19.029       46.271       71.529       55.960     2140.983     5116.431     3131.576        0.723        0.519       60.919       49.426        0.658      347.735       26.919      862.763
10/06/2014  14:20:00       58.836       85.344      100.968       79.830       60.822       51.796     6372.877     3699.346     2682.876        1.685        0.638      103.660       44.550        0.185      347.775       26.988      862.746
10/06/2014  14:21:00       81.676       41.020       70.369       60.410       45.692       37.907     3649.350     2087.747     1436.978        1.024        0.359       91.398       37.826        0.171      347.677       26.819      862.732
10/06/2014  14:22:00       89.276       48.174        5.913       26.736       30.689       25.913      714.827      941.831      671.478        0.633        0.116      101.445        8.267        0.007      347.482       26.484      862.714
10/06/2014  14:23:00       64.285       44.978        1.663       43.339       29.275       21.968     1878.310      857.030      482.571        0.469        0.161       78.458       11.312        0.021      347.791       27.016      862.695
10/06/2014  14:24:00       15.649       45.345       58.609       41.257       45.265       36.934     1702.108     2048.952     1364.138        0.542        0.256       47.970       31.576        0.433      348.192       27.710      862.687
10/06/2014  14:25:00       59.886       59.081       45.375       24.343       45.213       40.026      592.592     2044.221     1602.074        0.669        0.212       84.124       34.890        0.172      347.595       26.679      862.680
10/06/2014  14:26:00       24.451       12.481       -5.270       16.637       24.434       13.059      276.791      597.036      170.537        0.091        0.052       27.452        9.590        0.122      347.713       26.882      862.663
10/06/2014  14:27:00       38.789       23.363       12.295       35.921       37.910       28.428     1290.315     1437.185      808.126        0.287        0.177       45.282       22.496        0.247      347.836       27.093      862.649
10/06/2014  14:28:00       -9.110      -24.738       23.424       50.434       50.261       26.111     2543.584     2526.127      681.794        0.350        0.288       26.362        9.415        0.128      347.945       27.284      862.645
10/06/2014  14:29:00        5.272        6.211       27.280       28.740       25.827       21.609      825.993      667.029      466.939        0.138        0.098        8.147       13.629        2.799      348.359       27.998      862.646
10/06/2014  14:30:00       -0.433      -43.433       18.157       18.088       35.737       29.971      327.182     1277.134      898.273        0.236        0.125       43.435       13.579        0.098      348.123       27.589      862.638
10/06/2014  14:31:00       93.836       55.998       25.130       59.841       45.198       33.704     3580.979     2042.839     1135.929        0.966        0.338      109.275       23.192        0.045      347.829       27.082      862.639
10/06/2014  14:32:00       50.739       31.092       17.923       49.385       37.989       34.926     2438.926     1443.127     1219.817        0.448        0.255       59.508       25.537        0.184      347.690       26.841      862.617
10/06/2014  14:33:00       62.661      110.398       -2.764       49.754       53.358       36.803     2475.437     2847.078     1354.475        1.140        0.334      126.942       23.716        0.035      347.776       26.990      862.605
10/06/2014  14:34:00       58.250       50.513       -3.995       20.192       24.658       28.053      407.737      608.038      786.974        0.388        0.090       77.101       18.618        0.058      347.769       26.980      862.605
10/06/2014  14:35:00       97.596       24.563        9.288       23.556       29.984       32.533      554.888      899.016     1058.426        0.636        0.126      100.639       14.593        0.021      347.594       26.677      862.599
10/06/2014  14:36:00       57.474       12.025       14.547       20.548       24.181       22.966      422.228      584.733      527.446        0.260        0.077       58.719       16.166        0.076      347.637       26.751      862.582
10/06/2014  14:37:00       23.591       15.299        9.447       18.610       20.967       19.974      346.340      439.617      398.946        0.103        0.059       28.118        9.325        0.110      347.792       27.017      862.565
10/06/2014  14:38:00       12.301       26.941       17.152       21.127       22.337       15.055      446.350      498.940      226.664        0.117        0.059       29.616       11.077        0.140      348.078       27.513      862.564
10/06/2014  14:39:00       29.946       83.986      102.608       51.514       59.876       43.034     2653.716     3585.088     1851.918        1.328        0.405       89.165       40.871        0.210      348.024       27.417      862.558
10/06/2014  14:40:00       82.046       32.722       34.303       48.239       48.833       55.148     2327.036     2384.679     3041.265        0.836        0.388       88.330       32.488        0.135      347.734       26.918      862.563
10/06/2014  14:41:00       36.822       32.481       -7.995       25.456       33.520       23.663      647.999     1123.607      559.936        0.240        0.117       49.101       12.737        0.067      347.775       26.988      862.543
10/06/2014  14:42:00       33.554      -90.665        3.612       28.860       26.845       21.022      832.902      720.664      441.922        0.568        0.100       96.674       14.622        0.023      348.006       27.388      862.534
10/06/2014  14:43:00       62.711      -78.182        5.202       55.483       68.903       39.210     3078.380     4747.645     1537.387        0.972        0.468      100.225       45.178        0.203      348.031       27.431      862.527
10/06/2014  14:44:00       79.092      -55.861        8.015       39.555       58.080       31.904     1564.594     3373.238     1017.872        0.770        0.298       96.830       35.368        0.133      347.986       27.352      862.523
10/06/2014  14:45:00       27.338      -28.702       40.840       43.695       66.264       45.884     1909.220     4390.943     2105.377        0.582        0.420       39.638       43.790        1.220      348.103       27.553      862.497
10/06/2014  14:46:00        5.387       -4.721       26.413       53.896       33.357       34.523     2904.805     1112.669     1191.831        0.298        0.260        7.163       29.277       16.706      348.420       28.104      862.483
10/06/2014  14:47:00       32.589      -16.306       35.242       41.672       53.723       28.088     1736.530     2886.182      788.916        0.399        0.271       36.440       33.862        0.864      348.396       28.061      862.476
10/06/2014  14:48:00       39.910      -33.689       30.233       44.520       43.768       31.081     1982.030     1915.674      966.020        0.425        0.243       52.228       29.936        0.329      348.141       27.621      862.477
10/06/2014  14:49:00       55.588     -109.297       -0.001       69.531       46.720       39.357     4834.494     2182.738     1548.935        1.180        0.428      122.621       37.849        0.095      348.056       27.472      862.463
10/06/2014  14:50:00       30.488       34.114       35.227       38.685       38.062       22.825     1496.551     1448.735      520.982        0.340        0.173       45.753       19.029        0.173      348.360       27.999      862.452
10/06/2014  14:51:00      123.183       84.688       20.836       54.192       47.944       48.115     2936.787     2298.588     2315.046        1.516        0.378      149.486       28.366        0.036      348.095       27.540      862.450
10/06/2014  14:52:00       62.053       44.764       17.900       48.092       29.845       31.113     2312.824      890.719      967.991        0.517        0.209       76.514       15.225        0.040      348.151       27.638      862.445
10/06/2014  14:53:00       47.426      121.933        3.097      115.026       54.393       36.823    13230.888     2958.545     1355.903        1.733        0.877      130.832       49.284        0.142      348.107       27.560      862.426
10/06/2014  14:54:00       41.281      102.349       -1.735       73.903       50.981       42.279     5461.702     2599.074     1787.534        1.101        0.492      110.361       39.598        0.129      348.185       27.696      862.413
10/06/2014  14:55:00       -6.377      173.253      -24.264       58.317       77.721       39.470     3400.923     6040.513     1557.861        2.082        0.550      173.370       34.261        0.039      348.255       27.815      862.403
10/06/2014  14:56:00       57.260      195.269      -19.859       51.045       94.871       56.011     2605.591     9000.506     3137.286        2.827        0.737      203.492       57.962        0.081      347.977       27.335      862.407
10/06/2014  14:57:00       -9.726      187.039      -28.445       32.828       37.364       18.695     1077.654     1396.046      349.497        1.935        0.141      187.291       11.371        0.004      347.847       27.113      862.392
10/06/2014  14:58:00      -50.503      156.827       -6.083       51.746       64.100       43.161     2677.642     4108.758     1862.888        1.791        0.432      164.758       36.484        0.049      347.999       27.374      862.380
10/06/2014  14:59:00      -25.062       49.742       31.905       52.800       54.874       35.638     2787.793     3011.197     1270.090        0.559        0.353       55.699       34.548        0.385      348.347       27.978      862.368
10/06/2014  15:00:00       30.486       54.195        3.129       23.918       40.310       28.023      572.058     1624.926      785.277        0.343        0.149       62.181       26.560        0.182      348.106       27.559      862.373
10/06/2014  15:01:00       84.261       44.091       24.980       53.860       38.508       26.696     2900.909     1482.829      712.664        0.738        0.255       95.099       11.296        0.014      348.194       27.713      862.361
10/06/2014  15:02:00       37.130       46.418       55.340       52.642       43.939       35.087     2771.150     1930.610     1231.086        0.626        0.297       59.441       32.497        0.299      348.275       27.852      862.339
10/06/2014  15:03:00       75.544       73.567       47.666       72.453       42.865       46.163     5249.422     1837.439     2130.998        1.130        0.461      105.446       42.276        0.161      348.062       27.485      862.328
10/06/2014  15:04:00       84.480       51.866       25.718       74.750       50.363       28.761     5587.515     2536.421      827.209        0.972        0.448       99.131       17.019        0.029      348.080       27.515      862.322
10/06/2014  15:05:00        9.774        7.105        0.074       21.624       23.510       19.263      467.605      552.726      371.074        0.077        0.070       12.083        7.764        0.413      348.264       27.833      862.315
10/06/2014  15:06:00       -3.279       19.248       13.976       23.066       30.312       21.296      532.039      918.843      453.532        0.124        0.095       19.526       23.289        1.423      348.550       28.328      862.303
10/06/2014  15:07:00      -36.181        0.620       -4.877       52.940       60.947       21.776     2802.593     3714.575      474.185        0.416        0.350       36.186       11.324        0.098      348.498       28.238      862.284
10/06/2014  15:08:00      -89.348       74.843      -19.127       38.489       53.426       29.927     1481.417     2854.359      895.629        0.959        0.262      116.553       31.486        0.073      348.406       28.078      862.269
10/06/2014  15:09:00      -14.177       59.954       -0.186       24.457       42.368       23.885      598.168     1795.043      570.504        0.338        0.148       61.607       21.269        0.119      348.240       27.791      862.273
10/06/2014  15:10:00       37.030       47.547        0.972       45.816       24.932       24.189     2099.069      621.628      585.114        0.347        0.165       60.266       18.294        0.092      348.178       27.685      862.270
10/06/2014  15:11:00       56.704       54.551       34.360       59.625       40.838       32.354     3555.168     1667.711     1046.753        0.682        0.313       78.684       29.742        0.143      348.255       27.817      862.247
10/06/2014  15:12:00      117.587       80.771        5.327       34.791       37.117       31.687     1210.386     1377.656     1004.038        1.198        0.180      142.656       23.247        0.027      348.047       27.457      862.239
10/06/2014  15:13:00       99.613       42.783        8.573       42.409       42.193       32.411     1798.553     1780.251     1050.473        0.823        0.231      108.412       21.685        0.040      348.310       27.913      862.231
10/06/2014  15:14:00        1.860       48.240        2.861       44.469       29.778       24.894     1977.507      886.746      619.731        0.291        0.174       48.275       20.137        0.174      348.229       27.771      862.217
10/06/2014  15:15:00      -39.838       45.852       -4.698       42.678       51.401       25.152     1821.385     2642.054      632.644        0.440        0.255       60.741       32.598        0.288      348.386       28.044      862.197
10/06/2014  15:16:00       28.161      107.264       -3.474       85.321       54.468       48.477     7279.722     2966.730     2349.972        1.245        0.630      110.899       43.282        0.152      348.203       27.727      862.195
10/06/2014  15:17:00       63.833      127.486       -7.662       53.504       88.037       51.223     2862.681     7750.575     2623.788        1.681        0.662      142.574       52.923        0.138      348.168       27.666      862.186
10/06/2014  15:18:00       54.755       98.624      -15.469       65.191       51.203       40.775     4249.892     2621.766     1662.605        1.075        0.427      112.804       36.275        0.103      348.083       27.521      862.181
10/06/2014  15:19:00       37.745       91.882       -1.354       36.947       47.549       29.842     1365.088     2260.941      890.524        0.719        0.226       99.332       23.809        0.057      348.235       27.783      862.164
10/06/2014  15:20:00       74.574       49.827       15.310       43.799       29.196       28.025     1918.354      852.396      785.418        0.592        0.178       89.689       20.734        0.053      348.236       27.784      862.151
10/06/2014  15:21:00       42.723       26.417       15.333       47.614       44.534       37.461     2267.108     1983.290     1403.324        0.421        0.283       50.231       29.531        0.346      348.460       28.173      862.145
10/06/2014  15:22:00       66.908       98.700       37.825       77.868       39.754       52.627     6063.375     1580.366     2769.622        1.303        0.521      119.240       38.134        0.102      348.392       28.054      862.134
10/06/2014  15:23:00       56.327       47.574       23.399       45.042       44.261       41.663     2028.764     1959.053     1735.815        0.585        0.286       73.729       34.187        0.215      348.463       28.178      862.121
10/06/2014  15:24:00       76.596       17.099      102.071       91.899      109.244       59.381     8445.435    11934.316     3526.085        2.024        1.195       78.481       57.685        0.540      348.472       28.192      862.095
10/06/2014  15:25:00      130.289      111.201      110.542      123.707       97.875       82.988    15303.439     9579.457     6887.042        3.666        1.588      171.292       71.759        0.176      348.237       27.783      862.074
10/06/2014  15:26:00      140.611      110.366      107.544       97.698      108.808       80.334     9544.909    11839.228     6453.485        3.567        1.392      178.751       71.703        0.161      348.281       27.861      862.085
10/06/2014  15:27:00      115.211      159.831      139.967      103.559       86.774       64.682    10724.498     7529.751     4183.738        4.042        1.122      197.027       60.695        0.095      348.148       27.629      862.092
10/06/2014  15:28:00       86.506       87.614       99.757       81.816       73.863       59.582     6693.860     5455.791     3550.009        2.040        0.785      123.124       49.090        0.159      348.197       27.716      862.092
10/06/2014  15:29:00      127.345       69.840       67.753       73.222       86.929       65.233     5361.516     7556.605     4255.304        2.143        0.859      145.239       43.919        0.091      348.056       27.471      862.084
10/06/2014  15:30:00       15.551       17.177       54.040       37.235       62.441       39.186     1386.462     3898.935     1535.518        0.514        0.341       23.171       32.548        1.973      348.367       28.010      862.081
10/06/2014  15:31:00      -10.879       22.869       21.012       23.521       33.077       35.094      553.253     1094.057     1231.554        0.198        0.144       25.325       15.357        0.368      348.588       28.394      862.085
10/06/2014  15:32:00       38.970       13.137       30.448       31.243       48.405       33.458      976.118     2343.020     1119.440        0.353        0.222       41.125       20.269        0.243      348.415       28.095      862.081
10/06/2014  15:33:00       57.006       23.120        1.369       38.920       40.910       30.201     1514.741     1673.607      912.107        0.394        0.205       61.516       23.680        0.148      348.263       27.830      862.085
10/06/2014  15:34:00       63.134       -0.518       11.682       21.111       29.339       22.166      445.655      860.749      491.351        0.296        0.090       63.136        9.677        0.023      348.144       27.626      862.072
10/06/2014  15:35:00       74.735       53.011       58.303       86.712       67.500       65.685     7518.947     4556.196     4314.582        1.409        0.819       91.627       50.550        0.304      348.209       27.738      862.062
10/06/2014  15:36:00      181.056      141.288       60.013       87.194       76.793       58.185     7602.867     5897.090     3385.476        3.661        0.844      229.660       43.145        0.035      348.229       27.768      862.048
10/06/2014  15:37:00      112.157       41.456       19.556      106.527       82.355       48.115    11347.919     6782.348     2315.082        1.756        1.022      119.573       43.764        0.134      348.386       28.042      862.052
10/06/2014  15:38:00       56.661      -35.623       12.239       56.245       66.953       31.733     3163.539     4482.703     1006.977        0.664        0.433       66.929       20.539        0.094      348.130       27.600      862.062
10/06/2014  15:39:00      -72.978       35.768      -10.897       36.921       50.492       27.674     1363.174     2549.460      765.829        0.570        0.234       81.272       22.668        0.078      348.473       28.195      862.043
10/06/2014  15:40:00     -116.738      -80.252       -5.444       39.719       50.306       35.622     1577.622     2530.675     1268.962        1.274        0.269      141.662       24.493        0.030      348.356       27.993      862.015
10/06/2014  15:41:00      -86.382      -36.347        8.799       60.120       41.679       30.358     3614.416     1737.164      921.637        0.757        0.314       93.717       23.361        0.062      348.384       28.040      861.997
10/06/2014  15:42:00      -24.568       14.670       13.870       31.342       28.023       20.701      982.338      785.303      428.548        0.160        0.110       28.614       16.850        0.347      348.496       28.235      861.985
10/06/2014  15:43:00       18.410       20.540       14.033       20.061       18.246       12.754      402.425      332.932      162.652        0.093        0.045       27.583        7.813        0.080      348.426       28.113      861.989
10/06/2014  15:44:00      -23.438       91.856      -22.098       35.828       34.516       20.314     1283.676     1191.344      412.663        0.618        0.144       94.799       20.567        0.047      348.285       27.869      861.986
10/06/2014  15:45:00      138.097       78.017       45.969       77.822       71.502       68.296     6056.272     5112.502     4664.304        2.155        0.792      158.610       41.905        0.070      348.382       28.035      861.964
10/06/2014  15:46:00      196.751      126.636       21.103       86.892       81.355       73.130     7550.218     6618.714     5347.935        3.735        0.976      233.982       51.150        0.048      348.379       28.029      861.966
10/06/2014  15:47:00      131.305       66.887       20.314       90.479       52.134       37.019     8186.450     2717.997     1370.373        1.720        0.614      147.360       24.321        0.027      348.173       27.674      861.956
10/06/2014  15:48:00      141.078       91.473        3.362       82.183       63.988       33.360     6754.068     4094.401     1112.889        2.012        0.598      168.138       19.309        0.013      348.400       28.066      861.944
10/06/2014  15:49:00      157.159       96.998       15.961      106.856       63.714       45.397    11418.186     4059.451     2060.885        2.595        0.877      184.682       20.449        0.012      348.375       28.023      861.936
10/06/2014  15:50:00       94.140       85.656       -5.245       49.635       44.200       38.749     2463.611     1953.611     1501.455        1.107        0.296      127.276       22.224        0.030      348.373       28.021      861.922
10/06/2014  15:51:00      118.981      110.825       18.053       70.744       72.934       62.824     5004.768     5319.349     3946.875        2.052        0.714      162.600       44.276        0.074      348.259       27.822      861.920
10/06/2014  15:52:00       56.783       72.384       21.125       58.781       54.029       37.532     3455.216     2919.175     1408.688        0.835        0.389       91.998       29.144        0.100      348.389       28.049      861.922
10/06/2014  15:53:00       67.879      136.145       -6.883       59.568       78.091       50.002     3548.394     6098.267     2500.164        1.767        0.607      152.128       42.389        0.078      348.324       27.934      861.920
10/06/2014  15:54:00       98.142      102.219        3.262       71.330       56.910       50.420     5088.009     3238.763     2542.220        1.548        0.543      141.706       34.053        0.058      348.297       27.889      861.918
10/06/2014  15:55:00       55.072       88.642        0.826       53.423       54.299       37.014     2854.026     2948.425     1370.065        0.903        0.359      104.357       29.010        0.077      348.342       27.968      861.910
10/06/2014  15:56:00       74.544       64.586       18.093       36.978       41.741       38.965     1367.364     1742.340     1518.292        0.734        0.231       98.632       28.925        0.086      348.301       27.896      861.911
10/06/2014  15:57:00      110.058       36.452       12.493       67.781       50.182       34.042     4594.259     2518.272     1158.827        1.093        0.414      115.937       36.411        0.099      348.333       27.952      861.911
10/06/2014  15:58:00       70.955       78.783        5.273       63.751       53.386       39.080     4064.190     2850.103     1527.225        0.985        0.422      106.025       31.683        0.089      348.451       28.156      861.905
10/06/2014  15:59:00      165.127       96.269       23.263       73.113       53.487       46.580     5345.564     2860.833     2169.652        2.372        0.519      191.141       22.874        0.014      348.293       27.881      861.898
10/06/2014  16:00:00      140.614       97.514       25.790       78.671       60.505       45.237     6189.113     3660.802     2046.389        2.092        0.595      171.117       29.739        0.030      348.317       27.922      861.892
10/06/2014  16:01:00      101.868       67.306        3.184       66.268       58.604       41.431     4391.412     3434.419     1716.544        1.223        0.477      122.095       29.097        0.057      348.301       27.897      861.882
10/06/2014  16:02:00       66.214      108.341      -10.118       43.760       56.832       41.935     1914.942     3229.858     1758.578        1.156        0.345      126.973       36.015        0.080      348.212       27.743      861.879
10/06/2014  16:03:00       20.754       34.426      -14.401       33.136       33.716       18.648     1098.023     1136.766      347.754        0.220        0.129       40.198       19.379        0.232      348.292       27.882      861.874
10/06/2014  16:04:00       47.549       45.656      -20.912       53.567       28.099       24.050     2869.379      789.574      578.412        0.451        0.212       65.919       23.903        0.131      348.355       27.991      861.864
10/06/2014  16:05:00      120.129      100.158       -4.131       81.004       44.490       32.944     6561.609     1979.403     1085.275        1.705        0.481      156.406       19.935        0.016      348.302       27.897      861.864
10/06/2014  16:06:00      130.359       73.893       18.226       91.939       66.010       55.290     8452.813     4357.332     3057.031        1.932        0.793      149.845       41.315        0.076      348.402       28.070      861.847
10/06/2014  16:07:00      227.427      139.880       30.716       76.924       75.393       54.735     5917.249     5684.123     2995.919        4.341        0.730      267.001       42.592        0.025      348.207       27.731      861.841
10/06/2014  16:08:00      201.936      117.680       24.859       59.038       44.330       41.711     3485.466     1965.127     1739.777        3.122        0.360      233.723       27.593        0.014      348.169       27.663      861.840
10/06/2014  16:09:00      166.769       90.188       12.399       67.457       59.757       35.336     4550.391     3570.856     1248.616        2.273        0.468      189.594       31.338        0.027      348.202       27.723      861.828
10/06/2014  16:10:00      116.378      120.001        0.454       75.501       60.377       54.569     5700.460     3645.400     2977.799        2.013        0.616      167.165       43.912        0.069      348.262       27.827      861.821
10/06/2014  16:11:00       63.124       67.023        1.081       55.622       49.513       38.384     3093.797     2451.497     1473.323        0.775        0.351       92.069       25.772        0.078      348.341       27.966      861.817
10/06/2014  16:12:00       32.191      134.041      -29.656       32.152       37.842       12.015     1033.737     1431.994      144.349        1.125        0.131      137.853       13.316        0.009      348.197       27.718      861.809
10/06/2014  16:13:00       11.809       50.352       -1.489       27.732       20.606       16.236      769.071      424.602      263.600        0.207        0.073       51.718       15.335        0.088      348.266       27.835      861.805
10/06/2014  16:14:00       70.670       36.853       26.752       48.022       28.008       33.910     2306.118      784.470     1149.909        0.565        0.212       79.702       26.075        0.107      348.412       28.089      861.792
10/06/2014  16:15:00      236.567      144.399       16.680       68.415       65.221       41.927     4680.630     4253.733     1757.889        4.389        0.535      277.155       25.902        0.009      348.239       27.787      861.791
10/06/2014  16:16:00      104.339       65.826       19.961       97.804       53.659       42.294     9565.693     2879.333     1788.815        1.492        0.712      123.368       30.816        0.062      348.269       27.840      861.792
10/06/2014  16:17:00       87.470       94.190       -0.111       61.588       49.928       43.467     3793.108     2492.820     1889.420        1.235        0.409      128.541       32.243        0.063      348.280       27.860      861.778
10/06/2014  16:18:00      151.035       98.595       15.741       63.063       46.757       38.643     3976.978     2186.178     1493.253        2.022        0.383      180.368       22.851        0.016      348.181       27.688      861.759
10/06/2014  16:19:00      162.882      141.564       22.351      112.078       71.991       59.881    12561.447     5182.663     3585.714        3.420        1.066      215.803       45.223        0.044      348.254       27.814      861.747
10/06/2014  16:20:00       33.518      226.231      -30.733       50.346       76.936       44.879     2534.760     5919.181     2014.157        3.186        0.523      228.700       39.529        0.030      348.176       27.677      861.755
10/06/2014  16:21:00       29.025      129.655       -3.897       53.042       96.790       55.824     2813.501     9368.258     3116.327        1.648        0.765      132.865       59.725        0.202      348.258       27.820      861.748
10/06/2014  16:22:00       45.369      119.026        4.224       64.796       83.564       47.580     4198.529     6982.946     2263.848        1.484        0.672      127.379       51.643        0.164      348.246       27.799      861.754
10/06/2014  16:23:00       94.160       66.950        5.851       53.229       29.389       27.614     2833.294      863.728      762.542        0.892        0.223      115.535       16.952        0.022      348.213       27.746      861.755
10/06/2014  16:24:00       61.090       50.575       -0.425       28.362       21.614       16.134      804.430      467.149      260.319        0.391        0.077       79.309       14.621        0.034      348.184       27.696      861.746
10/06/2014  16:25:00       52.942       42.491       12.412       28.049       21.222       25.507      786.720      450.378      650.627        0.332        0.094       67.885       15.130        0.050      348.337       27.958      861.742
10/06/2014  16:26:00       79.324       28.279       14.476       66.958       43.383       35.897     4483.413     1882.081     1288.602        0.748        0.383       84.214       19.216        0.052      348.340       27.966      861.733
10/06/2014  16:27:00      100.525       65.375       32.770       59.445       45.584       46.556     3533.692     2077.856     2167.447        1.161        0.389      119.914       15.806        0.017      348.411       28.088      861.740
10/06/2014  16:28:00       48.017       49.700       33.286       80.672       49.314       43.684     6508.011     2431.853     1908.298        0.836        0.542       69.106       31.977        0.214      348.449       28.153      861.738
10/06/2014  16:29:00       99.924       70.368       23.628       97.224       73.328       37.059     9452.599     5376.953     1373.361        1.585        0.810      122.215       28.577        0.055      348.390       28.049      861.732
10/06/2014  16:30:00      135.659      140.675       24.527      114.796       80.832       80.757    13178.009     6533.810     6521.737        3.251        1.312      195.430       62.176        0.101      348.372       28.017      861.713
10/06/2014  16:31:00      142.326      100.912       54.904       96.584       43.897       54.011     9328.471     1926.907     2917.148        2.381        0.709      174.471       46.618        0.071      348.385       28.041      861.721
10/06/2014  16:32:00       45.767       41.546       72.537       77.145       68.438       48.331     5951.280     4683.739     2335.906        1.102        0.649       61.811       50.566        0.669      348.344       27.971      861.720
10/06/2014  16:33:00      174.475      115.040       34.229       98.717       70.396       68.609     9745.027     4955.539     4707.241        3.212        0.970      208.988       29.877        0.020      348.340       27.962      861.726
10/06/2014  16:34:00      100.690       52.035       21.949       92.560       81.422       56.243     8567.433     6629.549     3163.299        1.584        0.918      113.341       33.984        0.090      348.295       27.884      861.729
10/06/2014  16:35:00      154.312       76.129        8.974       65.858       59.389       57.878     4337.221     3527.052     3349.916        2.045        0.561      172.069        7.571        0.002      348.390       28.048      861.730
10/06/2014  16:36:00      142.411       69.642       64.602      113.919       85.378       71.565    12977.513     7289.370     5121.504        2.734        1.269      158.527       64.383        0.165      348.225       27.761      861.721
10/06/2014  16:37:00      187.314      100.016       94.556      130.643       91.923       81.284    17067.577     8449.778     6607.162        4.307        1.606      212.343       68.402        0.104      348.258       27.819      861.713
10/06/2014  16:38:00      107.054       53.304       99.455       91.430       98.705       60.256     8359.360     9742.763     3630.727        2.296        1.087      119.591       57.789        0.234      348.264       27.831      861.707
10/06/2014  16:39:00      112.174       64.029       68.253      101.144       61.272       56.808    10230.141     3754.214     3227.142        1.927        0.861      129.161       56.449        0.191      348.260       27.825      861.708
10/06/2014  16:40:00      197.786       71.488       27.293       98.834       76.613       65.179     9768.066     5869.476     4248.334        3.243        0.994      210.309       46.676        0.049      348.337       27.957      861.714
10/06/2014  16:41:00      114.249      104.584       81.171       89.896       65.136       57.154     8081.243     4242.652     3266.604        2.308        0.780      154.890       43.274        0.078      348.221       27.757      861.713
10/06/2014  16:42:00      172.087      108.142       33.166       76.170       60.800       55.410     5801.825     3696.611     3070.311        2.749        0.628      203.245       42.076        0.043      348.341       27.963      861.724
10/06/2014  16:43:00      111.567       42.585       18.387       94.516       60.790       42.695     8933.302     3695.450     1822.903        1.452        0.723      119.418       23.787        0.040      348.370       28.015      861.724
10/06/2014  16:44:00       77.069       57.004       13.412       50.428       34.826       37.621     2542.994     1212.866     1415.348        0.727        0.259       95.859       30.294        0.100      348.283       27.866      861.720
10/06/2014  16:45:00       74.856       55.399       31.541       81.395       55.855       42.362     6625.206     3119.756     1794.537        1.060        0.577       93.126       38.846        0.174      348.296       27.888      861.715
10/06/2014  16:46:00      188.906      114.559       24.032       67.742       43.380       44.041     4588.962     1881.809     1939.603        2.890        0.421      220.928       26.385        0.014      348.270       27.839      861.711
10/06/2014  16:47:00       77.854       40.958       17.920       82.397       49.788       34.487     6789.270     2478.825     1189.340        0.926        0.523       87.970       22.543        0.066      348.376       28.027      861.707
10/06/2014  16:48:00       82.178       48.225       14.137       55.730       47.422       36.012     3105.790     2248.828     1296.898        0.796        0.333       95.283       21.980        0.053      348.389       28.049      861.702
10/06/2014  16:49:00       57.798       48.446        4.852       42.160       34.083       24.810     1777.489     1161.676      615.521        0.463        0.178       75.416       16.110        0.046      348.274       27.851      861.697
10/06/2014  16:50:00       26.203       68.994       -2.032       32.780       55.750       27.812     1074.510     3108.019      773.533        0.520        0.248       73.802       27.352        0.137      348.285       27.869      861.692
10/06/2014  16:51:00      134.810       81.061       24.677       47.507       34.520       28.785     2256.902     1191.599      828.593        1.481        0.214      157.304       17.486        0.012      348.234       27.778      861.690
10/06/2014  16:52:00      122.830       72.609        2.016       47.252       31.070       36.952     2232.750      965.361     1365.447        1.246        0.228      142.686       21.269        0.022      348.326       27.941      861.682
10/06/2014  16:53:00       89.202       89.501        9.507       83.217       50.616       38.058     6925.145     2562.024     1448.442        1.349        0.547      126.362       34.216        0.073      348.313       27.916      861.674
10/06/2014  16:54:00       78.710       29.181       24.010       53.478       47.906       37.257     2859.918     2295.020     1388.059        0.708        0.327       83.946       32.440        0.149      348.268       27.841      861.660
10/06/2014  16:55:00       58.050       54.862       48.987       50.720       52.058       32.653     2572.486     2710.061     1066.248        0.756        0.317       79.873       26.143        0.107      348.202       27.726      861.655
10/06/2014  16:56:00       55.708       31.150       33.558       48.856       37.999       30.450     2386.922     1443.956      927.213        0.498        0.238       63.826       25.337        0.158      348.098       27.547      861.649
10/06/2014  16:57:00       40.246       24.063       29.190       37.645       35.983       29.539     1417.155     1294.799      872.535        0.332        0.179       46.891       19.598        0.175      348.238       27.790      861.642
10/06/2014  16:58:00        9.475        9.572       33.669       33.438       36.591       22.562     1118.071     1338.913      509.032        0.214        0.148       13.468       20.508        2.319      348.298       27.892      861.639
10/06/2014  16:59:00        6.910      -14.865       19.915       18.417       33.528       19.887      339.195     1124.155      395.497        0.126        0.093       16.392       16.064        0.960      348.402       28.074      861.632
10/06/2014  17:00:00       16.043       -9.637        7.217       19.572       36.696       15.592      383.049     1346.585      243.110        0.119        0.099       18.715       17.104        0.835      348.415       28.094      861.635
10/06/2014  17:01:00       65.938       37.027        3.181       49.777       36.568       20.530     2477.742     1337.242      421.463        0.498        0.212       75.623       15.735        0.043      348.346       27.974      861.633
10/06/2014  17:02:00       50.232       53.410        2.836       46.648       33.511       24.596     2176.047     1122.967      604.969        0.464        0.195       73.320       20.038        0.075      348.315       27.921      861.623
10/06/2014  17:03:00       37.920       33.258        4.915       61.630       44.360       33.369     3798.251     1967.838     1113.498        0.472        0.344       50.438       27.681        0.301      348.280       27.860      861.625
10/06/2014  17:04:00       -5.771       88.556      -14.541       19.699       35.131       14.438      388.065     1234.201      208.459        0.496        0.092       88.744       13.013        0.022      348.317       27.925      861.628
10/06/2014  17:05:00       31.056       50.297       -6.480       34.105       26.659       19.149     1163.151      710.681      366.699        0.289        0.112       59.112        8.431        0.020      348.361       28.001      861.624
10/06/2014  17:06:00       80.612       45.443       11.205       56.220       53.153       29.889     3160.644     2825.207      893.375        0.778        0.344       92.538       19.515        0.044      348.340       27.964      861.619
10/06/2014  17:07:00       64.967       34.017       -4.132       50.739       36.035       23.903     2574.452     1298.523      571.342        0.492        0.222       73.334       14.983        0.042      348.328       27.944      861.612
10/06/2014  17:08:00      100.273       48.653       17.489       54.537       44.646       35.111     2974.331     1993.234     1232.767        0.946        0.310      111.453        9.930        0.008      348.331       27.949      861.615
10/06/2014  17:09:00      195.630      113.037       20.181       66.807       49.537       41.359     4463.237     2453.932     1710.546        3.004        0.431      225.939       23.986        0.011      348.303       27.897      861.622
10/06/2014  17:10:00      116.658       70.938        9.551       67.688       53.987       35.545     4581.668     2914.585     1263.462        1.374        0.438      136.533       26.164        0.037      348.194       27.710      861.629
10/06/2014  17:11:00       71.858       60.506       -2.014       32.041       26.913       26.134     1026.631      724.333      682.969        0.563        0.122       93.939       20.333        0.047      348.174       27.678      861.628
10/06/2014  17:12:00      113.922       76.030       17.940       45.494       32.948       32.472     2069.711     1085.581     1054.460        1.164        0.210      136.963       14.493        0.011      348.222       27.761      861.627
10/06/2014  17:13:00      182.836      101.844       26.715      101.334       70.689       58.104    10268.592     4996.883     3376.108        3.158        0.932      209.287       55.998        0.072      348.206       27.730      861.623
10/06/2014  17:14:00      144.472       79.584       34.964       79.767       54.784       49.771     6362.749     3001.251     2477.156        2.013        0.592      164.941       31.255        0.036      348.172       27.673      861.630
10/06/2014  17:15:00      138.600       34.927        2.702       96.159       75.045       56.713     9246.474     5631.801     3216.312        1.926        0.905      142.933       37.858        0.070      348.150       27.635      861.619
10/06/2014  17:16:00      135.830       85.167       46.742       60.723       51.243       39.990     3687.224     2625.797     1599.182        1.790        0.396      160.322       20.991        0.017      348.133       27.606      861.609
10/06/2014  17:17:00      113.288       76.740       18.504       67.300       45.667       32.690     4529.322     2085.466     1068.632        1.337        0.384      136.833       10.222        0.006      348.187       27.699      861.609
10/06/2014  17:18:00       64.632       27.942       15.407       59.422       31.641       30.174     3530.958     1001.156      910.486        0.532        0.272       70.413       20.250        0.083      348.257       27.821      861.597
10/06/2014  17:19:00       51.275       13.536        6.366       27.618       35.011       21.259      762.770     1225.756      451.966        0.265        0.122       53.032       16.093        0.092      348.234       27.782      861.592
10/06/2014  17:20:00      168.627       84.020       38.705       65.272       52.840       45.673     4260.454     2792.045     2086.010        2.306        0.457      188.399       39.825        0.045      348.140       27.616      861.590
10/06/2014  17:21:00      156.012       64.183       12.258       70.915       58.419       46.388     5028.921     3412.775     2151.870        1.960        0.530      168.698       35.137        0.043      348.141       27.618      861.584
10/06/2014  17:22:00       98.626       29.456       20.548       53.320       26.815       36.996     2842.994      719.045     1368.723        0.797        0.247      102.931       16.006        0.024      348.155       27.647      861.585
10/06/2014  17:23:00       43.729       38.757        0.677       30.316       26.376       24.792      919.059      695.693      614.635        0.282        0.111       58.433       11.485        0.039      348.151       27.637      861.575
10/06/2014  17:24:00       54.621       58.793        6.721       27.356       18.950       21.284      748.375      359.111      453.018        0.402        0.078       80.250       16.427        0.042      348.195       27.713      861.574
10/06/2014  17:25:00       87.858       51.401       12.242       16.862       21.855       16.522      284.330      477.630      272.972        0.577        0.052      101.790       12.107        0.014      348.218       27.753      861.571
10/06/2014  17:26:00       32.127       25.819       -3.502       18.562       37.410       22.578      344.548     1399.490      509.769        0.198        0.113       41.216       17.158        0.173      348.207       27.736      861.578
10/06/2014  17:27:00       10.435       -8.853        1.835       15.302       21.387       15.160      234.159      457.406      229.830        0.056        0.046       13.685       10.994        0.645      348.231       27.776      861.572
10/06/2014  17:28:00       24.956      -21.960        4.257       34.810       19.691       16.995     1211.749      387.720      288.822        0.151        0.094       33.242       11.731        0.125      347.882       27.174      861.562
10/06/2014  17:29:00       32.686       25.340       40.422       30.385       27.326       28.057      923.218      746.700      787.174        0.290        0.123       41.359       23.744        0.330      347.915       27.231      861.553
10/06/2014  17:30:00       37.886      -14.822       21.396       51.565       29.094       29.450     2658.937      846.457      867.319        0.324        0.219       40.682       27.345        0.452      348.024       27.418      861.538
10/06/2014  17:31:00       46.215     -136.251      -17.040       48.530       47.797       37.512     2355.170     2284.538     1407.129        1.352        0.302      143.875       18.296        0.016      348.197       27.716      861.528
10/06/2014  17:32:00       38.849      -82.265        9.390       35.981       16.329       26.800     1294.621      266.638      718.220        0.532        0.114       90.977       27.357        0.090      348.227       27.767      861.529
10/06/2014  17:33:00       11.475      -56.033       -1.369       17.899       38.963       20.973      320.357     1518.076      439.887        0.278        0.114       57.196       25.238        0.195      348.288       27.875      861.525
10/06/2014  17:34:00       24.083        6.795       25.197       20.641       15.436       13.667      426.052      238.272      186.774        0.106        0.043       25.023        8.565        0.117      347.967       27.320      861.519
10/06/2014  17:35:00       29.839       -2.507        8.018       23.990       20.554       20.365      575.497      422.484      414.722        0.119        0.071       29.944       19.765        0.436      347.773       26.984      861.531
10/06/2014  17:36:00        8.995       -7.030        1.579       18.171       21.978       19.070      330.178      483.032      363.676        0.065        0.059       11.416       15.292        1.794      347.764       26.970      861.530
10/06/2014  17:37:00       33.845      -59.290        4.292       33.587       29.607       22.939     1128.070      876.576      526.206        0.360        0.127       68.270       16.748        0.060      347.751       26.948      861.532
10/06/2014  17:38:00       26.062        0.927       34.579       43.398       58.359       30.490     1883.366     3405.723      929.636        0.405        0.311       26.079       25.839        0.982      347.887       27.181      861.535
10/06/2014  17:39:00      133.407       81.597       25.968       62.193       39.681       36.980     3867.936     1574.581     1367.553        1.597        0.341      156.383       20.195        0.017      348.139       27.616      861.539
10/06/2014  17:40:00      203.014      153.196       22.306       99.470       64.729       58.865     9894.218     4189.860     3465.070        4.136        0.877      254.329       29.344        0.013      348.136       27.608      861.546
10/06/2014  17:41:00      175.811       90.501       29.645       70.881       54.125       38.016     5024.142     2929.492     1445.186        2.469        0.470      197.737       16.969        0.007      348.092       27.535      861.541
10/06/2014  17:42:00      116.879       87.997       17.893       53.538       47.442       43.518     2866.266     2250.757     1893.776        1.437        0.351      146.301       28.082        0.037      348.094       27.538      861.543
10/06/2014  17:43:00      111.771       66.472       17.866       39.618       27.834       24.015     1569.576      774.737      576.704        1.008        0.146      130.043       12.405        0.009      348.048       27.460      861.543
10/06/2014  17:44:00       71.539       40.112       17.475       38.232       34.292       26.068     1461.711     1175.964      679.520        0.517        0.166       82.017       14.255        0.030      348.056       27.474      861.541
10/06/2014  17:45:00       59.696       45.706        9.642       35.980       28.964       28.037     1294.591      838.939      786.073        0.433        0.146       75.184       18.774        0.062      348.066       27.492      861.533
10/06/2014  17:46:00       89.255       63.841       14.280       54.977       36.982       32.269     3022.431     1367.653     1041.279        0.884        0.272      109.736       17.694        0.026      348.089       27.531      861.527
10/06/2014  17:47:00       37.493       23.110        9.900       41.738       42.899       25.840     1742.091     1840.333      667.692        0.314        0.213       44.043       28.472        0.418      348.020       27.412      861.522
10/06/2014  17:48:00       22.574       17.429       13.364       14.932       22.471       15.801      222.977      504.934      249.682        0.098        0.049       28.519       13.151        0.213      348.007       27.389      861.523
10/06/2014  17:49:00       21.484       18.378        5.533       12.617       14.612       10.814      159.194      213.501      116.933        0.066        0.024       28.272        7.490        0.070      348.070       27.497      861.513
10/06/2014  17:50:00       50.498       35.249       -1.176       38.463       25.985       17.217     1479.396      675.220      296.413        0.312        0.123       61.584       15.652        0.065      348.030       27.428      861.510
10/06/2014  17:51:00       95.487       33.971        4.888       27.118       30.859       20.644      735.374      952.281      426.190        0.620        0.106      101.350       13.373        0.017      347.983       27.349      861.509
10/06/2014  17:52:00       50.333       37.077       12.442       44.144       23.077       26.191     1948.698      532.556      685.958        0.361        0.158       62.514       11.900        0.036      347.872       27.156      861.514
10/06/2014  17:53:00       32.150       26.413       14.205       36.955       28.373       21.231     1365.647      805.018      450.770        0.228        0.131       41.609       10.627        0.065      347.913       27.227      861.517
10/06/2014  17:54:00       48.518       27.697        5.109       25.103       20.402       22.609      630.167      416.223      511.152        0.235        0.078       55.867       13.727        0.060      347.896       27.198      861.524
10/06/2014  17:55:00       92.218       54.763        8.865       39.004       25.678       20.157     1521.312      659.360      406.290        0.708        0.129      107.252       15.000        0.020      347.878       27.166      861.528
10/06/2014  17:56:00      132.907      117.483        7.035       77.482       48.919       49.034     6003.516     2393.085     2404.285        2.116        0.540      177.388       32.560        0.034      347.942       27.275      861.533
10/06/2014  17:57:00       78.400       51.520        8.660       39.873       30.197       27.579     1589.883      911.878      760.580        0.607        0.163       93.813       21.778        0.054      347.814       27.056      861.536
10/06/2014  17:58:00       94.012       63.816       13.298       37.269       25.877       31.181     1388.976      669.631      972.227        0.806        0.152      113.626       20.114        0.031      347.849       27.117      861.550
10/06/2014  17:59:00      102.457       53.747       20.186       28.270       25.089       22.694      799.184      629.482      515.015        0.787        0.097      115.699       16.644        0.021      347.811       27.050      861.552
10/06/2014  18:00:00      112.184       51.462       20.744       51.211       44.412       28.283     2622.616     1972.465      799.944        1.053        0.270      123.425       17.752        0.021      347.761       26.963      861.567
10/06/2014  18:01:00      114.438       52.043       22.990       73.484       36.287       36.265     5399.936     1316.780     1315.162        1.218        0.402      125.716       26.776        0.045      347.730       26.910      861.579
10/06/2014  18:02:00      119.112       95.752       23.752       61.126       41.997       45.315     3736.374     1763.785     2053.419        1.574        0.378      152.827       31.127        0.041      347.760       26.962      861.582
10/06/2014  18:03:00      144.284       94.617       17.771       50.651       32.767       34.158     2565.538     1073.668     1166.771        1.745        0.240      172.540       10.134        0.003      347.716       26.887      861.589
10/06/2014  18:04:00       98.164       44.400       19.508       47.532       31.213       25.643     2259.315      974.247      657.552        0.794        0.195      107.738        9.675        0.008      347.641       26.759      861.598
10/06/2014  18:05:00       87.446       33.969       14.301       57.590       31.454       28.173     3316.605      989.330      793.703        0.705        0.255       93.812       20.290        0.047      347.606       26.695      861.604
10/06/2014  18:06:00       65.367       66.351        8.980       67.670       64.729       53.086     4579.266     4189.814     2818.112        1.017        0.579       93.141       33.774        0.131      347.617       26.716      861.607
10/06/2014  18:07:00       87.646       67.022       25.294       48.980       43.274       33.424     2399.052     1872.613     1117.138        0.910        0.269      110.335       27.663        0.063      347.595       26.679      861.616
10/06/2014  18:08:00       89.299       66.085       11.459       33.647       27.626       22.724     1132.154      763.204      516.388        0.744        0.121      111.093       11.452        0.011      347.651       26.776      861.627
10/06/2014  18:09:00       68.212       57.684        1.947       44.178       40.721       28.866     1951.698     1658.187      833.235        0.621        0.222       89.333       23.604        0.070      347.596       26.680      861.627
10/06/2014  18:10:00       72.793       55.371       16.598       29.499       18.299       22.026      870.171      334.869      485.138        0.516        0.085       91.459       14.624        0.026      347.541       26.585      861.623
10/06/2014  18:11:00       39.586       43.721        8.014       25.811       29.545       24.032      666.199      872.896      577.544        0.283        0.106       58.979       17.960        0.093      347.539       26.580      861.620
10/06/2014  18:12:00       39.539       42.827        4.835       32.483       27.307       25.060     1055.144      745.672      628.010        0.292        0.121       58.288       16.247        0.078      347.544       26.590      861.621
10/06/2014  18:13:00       75.721       62.057       11.034       38.744       28.463       22.496     1501.105      810.135      506.073        0.626        0.141       97.902       19.425        0.039      347.505       26.523      861.619
10/06/2014  18:14:00       66.990       52.415       13.004       38.646       33.933       26.508     1493.505     1151.444      702.650        0.538        0.167       85.058       17.076        0.040      347.526       26.559      861.629
10/06/2014  18:15:00       57.046       54.868       -1.215       32.973       28.030       28.544     1087.220      785.659      814.735        0.448        0.134       79.150       22.349        0.080      347.487       26.492      861.643
10/06/2014  18:16:00       56.044       49.167        3.022       33.507       30.958       26.092     1122.726      958.381      680.795        0.416        0.138       74.555       20.401        0.075      347.526       26.559      861.645
10/06/2014  18:17:00       69.119       55.787        2.029       36.122       17.294       25.297     1304.832      299.068      639.939        0.507        0.112       88.824       22.699        0.065      347.498       26.512      861.650
10/06/2014  18:18:00       68.312       54.061        8.404       21.507       22.326       20.016      462.534      498.447      400.653        0.451        0.068       87.115       15.639        0.032      347.429       26.391      861.655
10/06/2014  18:19:00       88.955       58.768       21.670       33.685       32.635       14.830     1134.683     1065.064      219.927        0.713        0.121      106.615        9.509        0.008      347.402       26.344      861.665
10/06/2014  18:20:00      108.784       69.235        7.820       61.375       38.361       24.409     3766.877     1471.595      595.784        1.126        0.292      128.948       21.736        0.028      347.415       26.367      861.683
10/06/2014  18:21:00      108.038       50.935       24.319       57.837       41.457       32.033     3345.074     1718.676     1026.100        1.047        0.304      119.443       26.152        0.048      347.293       26.158      861.688
10/06/2014  18:22:00       91.033       37.952       16.890       70.810       57.792       37.415     5014.111     3339.862     1399.881        0.988        0.488       98.628       21.097        0.046      347.231       26.051      861.695
10/06/2014  18:23:00       86.441       46.531        7.118       52.764       58.987       33.683     2784.020     3479.522     1134.530        0.854        0.370       98.169       15.882        0.026      347.165       25.938      861.700
10/06/2014  18:24:00      125.470       66.787       11.619       40.694       32.754       27.736     1656.001     1072.808      769.294        1.192        0.175      142.138        9.576        0.005      347.255       26.091      861.708
10/06/2014  18:25:00       77.213       58.630       12.250       43.956       28.458       28.743     1932.165      809.859      826.187        0.656        0.178       96.951       17.890        0.034      347.167       25.940      861.720
10/06/2014  18:26:00       67.492       56.261        8.318       38.971       41.767       33.424     1518.756     1744.487     1117.166        0.608        0.219       87.866       27.026        0.095      347.098       25.822      861.720
10/06/2014  18:27:00      100.867       76.586       10.909       54.863       36.759       42.903     3009.950     1351.191     1840.688        1.118        0.310      126.648       27.080        0.046      347.138       25.890      861.735
10/06/2014  18:28:00       84.171       96.108        6.081       41.841       51.673       41.043     1750.644     2670.059     1684.516        1.123        0.305      127.755       33.484        0.069      347.151       25.914      861.743
10/06/2014  18:29:00      107.569       87.625       10.102       54.205       35.705       43.658     2938.139     1274.826     1905.988        1.273        0.306      138.741       24.070        0.030      347.134       25.884      861.741
10/06/2014  18:30:00      141.104       87.812       24.446       54.561       41.297       46.704     2976.926     1705.463     2181.237        1.754        0.343      166.197       27.559        0.027      347.122       25.861      861.755
10/06/2014  18:31:00      150.764      119.522       19.063       65.196       41.885       50.600     4250.582     1754.340     2560.351        2.297        0.428      192.393       33.875        0.031      347.145       25.900      861.765
10/06/2014  18:32:00      128.428       83.428       25.463       54.315       43.574       41.254     2950.133     1898.694     1701.880        1.533        0.328      153.147       22.409        0.021      347.016       25.680      861.769
10/06/2014  18:33:00      131.706      131.496        9.184       81.139       64.944       54.371     6583.534     4217.774     2956.167        2.424        0.688      186.112       44.020        0.056      347.143       25.897      861.770
10/06/2014  18:34:00      123.892       84.063        8.900       73.365       41.822       33.907     5382.365     1749.063     1149.709        1.539        0.414      149.719       24.531        0.027      347.052       25.742      861.784
10/06/2014  18:35:00      130.609      114.983       10.952       69.354       61.424       47.683     4809.935     3772.876     2273.632        2.063        0.543      174.011       43.908        0.064      347.141       25.894      861.778
10/06/2014  18:36:00       74.472       68.500       12.652       52.523       46.312       38.505     2758.673     2144.772     1482.643        0.839        0.319      101.184       29.136        0.083      347.021       25.688      861.778
10/06/2014  18:37:00      142.620      107.914       15.537       83.095       57.706       58.692     6904.808     3329.932     3444.765        2.295        0.684      178.846       36.111        0.041      347.142       25.894      861.777
10/06/2014  18:38:00      146.077      115.486        0.182       57.230       49.362       49.727     3275.323     2436.609     2472.742        2.143        0.409      186.213       39.730        0.046      347.196       25.989      861.776
10/06/2014  18:39:00      144.225       79.959       32.834       64.006       39.209       38.310     4096.771     1537.352     1467.643        1.769        0.355      164.907       14.257        0.007      347.108       25.838      861.784
10/06/2014  18:40:00      129.906       88.445       21.495       69.213       32.750       37.279     4790.500     1072.570     1389.726        1.621        0.363      157.156       12.405        0.006      347.081       25.791      861.792
10/06/2014  18:41:00      139.785       77.890       17.228       45.571       33.028       29.938     2076.706     1090.841      896.300        1.498        0.203      160.020       10.361        0.004      346.961       25.586      861.796
10/06/2014  18:42:00       97.899       69.201        8.090       39.992       33.686       30.687     1599.325     1134.769      941.666        0.906        0.184      119.887       22.444        0.035      346.953       25.571      861.812
10/06/2014  18:43:00      133.630       83.710       38.351       49.120       38.873       34.324     2412.751     1511.079     1178.153        1.572        0.255      157.685       20.540        0.017      347.068       25.769      861.817
10/06/2014  18:44:00       96.829       76.894        0.542       52.034       34.497       30.970     2707.582     1190.064      959.135        1.007        0.243      123.647       24.042        0.038      347.004       25.659      861.822
10/06/2014  18:45:00       90.225       78.047        9.733       54.826       42.139       38.261     3005.860     1775.731     1463.885        1.028        0.312      119.297       23.566        0.039      346.972       25.604      861.835
10/06/2014  18:46:00      109.700       60.958       15.726       28.014       24.664       18.443      784.765      608.302      340.138        0.886        0.087      125.499        9.792        0.006      346.835       25.367      861.834
10/06/2014  18:47:00      120.552       82.157        9.570       46.598       46.159       26.488     2171.351     2130.620      701.624        1.319        0.250      145.885       18.534        0.016      346.945       25.558      861.845
10/06/2014  18:48:00       93.293       78.890       26.413       42.378       29.426       24.143     1795.876      865.916      582.900        0.943        0.162      122.177       14.360        0.014      346.931       25.532      861.840
10/06/2014  18:49:00       69.727       52.928       10.974       42.994       35.369       28.428     1848.489     1250.933      808.139        0.584        0.195       87.540       16.918        0.037      346.888       25.459      861.849
10/06/2014  18:50:00       34.105       82.061       -7.860       31.669       39.045       26.347     1002.926     1524.537      694.179        0.559        0.161       88.866       25.387        0.082      346.890       25.463      861.850
10/06/2014  18:51:00       31.460      161.407      -28.534       26.019       28.568       17.616      677.006      816.124      310.340        1.483        0.090      164.444       10.597        0.004      347.024       25.694      861.856
10/06/2014  18:52:00       14.574      113.613      -22.800       24.390       15.056       12.300      594.894      226.683      151.302        0.731        0.049      114.544       11.551        0.010      346.890       25.463      861.866
10/06/2014  18:53:00      -20.867       93.016      -16.077       13.946       10.906        9.122      194.498      118.936       83.218        0.487        0.020       95.328        3.400        0.001      346.846       25.388      861.869
10/06/2014  18:54:00      -47.757       53.425      -14.233       16.642       32.709        6.781      276.945     1069.873       45.987        0.336        0.070       71.658        9.972        0.019      346.723       25.176      861.888
10/06/2014  18:55:00      -67.015       -4.192       -8.838       13.904       18.387       11.417      193.313      338.096      130.349        0.262        0.033       67.146        8.746        0.017      346.637       25.026      861.890
10/06/2014  18:56:00      -85.527      -21.625      -12.021       26.430       23.048       13.843      698.521      531.213      191.633        0.467        0.071       88.219       10.347        0.014      346.413       24.641      861.909
10/06/2014  18:57:00     -121.568        3.505      -14.979       45.430       17.225       13.462     2063.912      296.701      181.231        0.878        0.127      121.618       17.119        0.020      346.304       24.455      861.915
10/06/2014  18:58:00      -90.858      -12.363       -2.815       44.073       29.142       17.788     1942.398      849.258      316.426        0.576        0.155       91.696       17.553        0.037      346.187       24.253      861.915
10/06/2014  18:59:00      -88.008      -13.755       -9.215       27.339       35.694       15.842      747.446     1274.042      250.954        0.515        0.114       89.077       11.036        0.015      346.176       24.235      861.922
10/06/2014  19:00:00      -90.814        0.722      -12.344       34.342       24.400       18.706     1179.340      595.346      349.920        0.526        0.106       90.816       16.034        0.031      346.011       23.952      861.930
10/06/2014  19:01:00     -101.426       11.716      -15.914       29.267       19.922       15.174      856.584      396.900      230.254        0.608        0.074      102.100       11.165        0.012      345.974       23.888      861.940
10/06/2014  19:02:00      -68.105       -0.809       -6.675       32.800       24.912       15.260     1075.815      620.621      232.860        0.331        0.096       68.109       11.113        0.027      345.859       23.692      861.949
10/06/2014  19:03:00      -58.102       12.905       -7.267       31.008       23.439       16.281      961.476      549.376      265.060        0.269        0.089       59.518       16.241        0.074      345.767       23.532      861.955
10/06/2014  19:04:00      -72.611       -3.381      -15.030       36.562       25.879       18.227     1336.796      669.718      332.218        0.392        0.117       72.690       17.298        0.057      345.852       23.680      861.964
10/06/2014  19:05:00      -87.879      -10.443      -13.409       34.249       26.464       14.830     1173.008      700.365      219.943        0.505        0.105       88.497       10.599        0.014      345.862       23.695      861.976
10/06/2014  19:06:00      -64.137      -26.548       -9.727       18.304       26.809       13.293      335.020      718.702      176.712        0.307        0.062       69.415        9.804        0.020      345.811       23.608      861.973
10/06/2014  19:07:00      -76.332      -19.595      -10.105       23.324       17.531       12.172      544.017      307.349      148.163        0.366        0.050       78.807        9.236        0.014      345.819       23.622      861.986
10/06/2014  19:08:00     -106.509      -24.283      -16.263       28.088       20.412       17.774      788.964      416.637      315.920        0.686        0.076      109.242       16.765        0.024      345.789       23.570      861.984
10/06/2014  19:09:00      -61.994      -30.729      -12.106       14.797       12.949       12.982      218.952      167.671      168.540        0.274        0.028       69.191        8.477        0.015      345.913       23.785      861.997
10/06/2014  19:10:00      -79.672      -12.193      -14.674       12.694       16.269       11.099      161.149      264.672      123.194        0.363        0.027       80.599        9.951        0.015      345.856       23.687      862.008
10/06/2014  19:11:00      -93.955       11.821       -9.236       14.803       12.874       10.467      219.136      165.745      109.567        0.477        0.025       94.696        7.669        0.007      345.770       23.537      862.009
10/06/2014  19:12:00     -113.906        7.424      -24.924       13.859       12.030        9.795      192.085      144.724       95.942        0.704        0.022      114.148        4.117        0.001      345.716       23.445      862.026
10/06/2014  19:13:00      -75.121       -0.402      -15.854       26.331       18.604       14.348      693.320      346.099      205.877        0.357        0.062       75.122       10.521        0.020      345.568       23.191      862.020
10/06/2014  19:14:00      -58.056        4.880      -10.657       29.352       21.088       13.178      861.512      444.707      173.648        0.249        0.074       58.260        8.976        0.024      345.533       23.133      862.036
10/06/2014  19:15:00      -71.824       43.945      -10.877       33.389       51.462       30.111     1114.853     2648.328      906.652        0.594        0.233       84.201       22.256        0.070      345.698       23.415      862.041
10/06/2014  19:16:00      -76.875       48.672      -12.961       51.111       39.193       24.761     2612.324     1536.100      613.087        0.660        0.238       90.988       23.353        0.066      345.562       23.182      862.047
10/06/2014  19:17:00      -86.563       46.011      -14.224       52.547       34.996       27.435     2761.195     1224.729      752.676        0.727        0.237       98.031       26.774        0.075      345.403       22.908      862.062
10/06/2014  19:18:00      -96.405       45.212       -8.018       54.897       41.406       38.069     3013.727     1714.451     1449.257        0.879        0.309      106.480       24.207        0.052      345.452       22.992      862.066
10/06/2014  19:19:00      -81.991       26.011      -13.400       32.839       40.572       22.457     1078.429     1646.100      504.295        0.540        0.161       86.018       20.014        0.054      345.432       22.959      862.076
10/06/2014  19:20:00     -116.145       11.853      -30.597       42.067       30.527       21.252     1769.628      931.907      451.627        0.886        0.158      116.749       21.440        0.034      345.344       22.808      862.068
10/06/2014  19:21:00     -108.600       11.521      -27.876       33.082       34.821       18.533     1094.420     1212.505      343.474        0.768        0.133      109.210       13.339        0.015      345.244       22.635      862.080
10/06/2014  19:22:00     -116.363      -11.516      -14.561       44.128       28.552       18.671     1947.254      815.219      348.597        0.850        0.156      116.932       16.177        0.019      345.153       22.480      862.078
10/06/2014  19:23:00      -92.158      -18.681      -18.770       24.723       25.970       16.911      611.226      674.461      285.971        0.538        0.079       94.032       12.780        0.018      345.089       22.371      862.085
10/06/2014  19:24:00     -107.453       -1.043      -22.329       33.960       24.004       16.863     1153.262      576.191      284.360        0.703        0.101      107.458       16.642        0.024      345.196       22.553      862.088
10/06/2014  19:25:00     -112.642      -13.232      -10.957       26.187       29.617       14.824      685.735      877.193      219.755        0.738        0.089      113.416       10.754        0.009      345.284       22.705      862.098
10/06/2014  19:26:00      -70.388        7.528      -17.349       28.230       24.482       14.072      796.927      599.393      198.017        0.345        0.080       70.790        9.847        0.019      345.361       22.836      862.106
10/06/2014  19:27:00      -80.228      -36.706      -16.743       17.537       21.413       15.750      307.535      458.524      248.048        0.454        0.051       88.227        9.175        0.011      344.981       22.185      862.123
10/06/2014  19:28:00      -67.227      -22.312      -12.325       18.040       16.464       16.344      325.427      271.065      267.129        0.302        0.043       70.833        8.494        0.014      345.008       22.231      862.134
10/06/2014  19:29:00      -85.960      -11.872       -5.489       29.048       24.710       17.013      843.782      610.607      289.425        0.465        0.087       86.776       13.336        0.024      345.311       22.751      862.146
10/06/2014  19:30:00      -71.959      -22.941       -4.141       18.488       22.870       14.265      341.793      523.019      203.493        0.339        0.053       75.527        5.015        0.004      345.182       22.529      862.156
10/06/2014  19:31:00      -83.188      -29.356      -11.017       17.346       24.630       12.669      300.897      606.659      160.516        0.449        0.053       88.216        6.625        0.006      345.093       22.379      862.161
10/06/2014  19:32:00      -70.627      -11.063       -5.904       35.871       28.557       17.551     1286.745      815.477      308.045        0.378        0.121       71.489       18.262        0.065      345.144       22.464      862.176
10/06/2014  19:33:00     -102.665      -18.628      -10.314       33.584       28.183       14.219     1127.858      794.254      202.171        0.656        0.106      104.341       10.968        0.011      345.065       22.330      862.177
10/06/2014  19:34:00      -68.341        3.922      -14.169       28.738       28.312       18.598      825.862      801.576      345.872        0.343        0.099       68.454       13.721        0.040      345.310       22.749      862.187
10/06/2014  19:35:00      -63.924       16.922      -11.129       19.694       29.507       17.901      387.856      870.686      320.456        0.304        0.079       66.126       16.271        0.061      345.395       22.894      862.186
10/06/2014  19:36:00      -66.501       26.153      -18.217       20.168       26.084       11.403      406.752      680.364      130.023        0.333        0.061       71.459       10.646        0.022      345.285       22.706      862.187
10/06/2014  19:37:00      -86.383       -2.424      -17.527       16.066       14.673       10.453      258.101      215.298      109.256        0.418        0.029       86.417        4.683        0.003      345.103       22.395      862.184
10/06/2014  19:38:00      -75.690       -6.849      -12.770       14.787       20.142       11.688      218.667      405.684      136.604        0.335        0.038       76.000        9.224        0.015      344.981       22.186      862.194
10/06/2014  19:39:00      -71.274       12.454      -12.645       28.911       18.522       14.552      835.865      343.066      211.754        0.339        0.070       72.354       11.313        0.024      345.200       22.562      862.195
10/06/2014  19:40:00      -50.393       56.522       -9.528       29.216       37.412       14.280      853.563     1399.637      203.906        0.414        0.123       75.724       11.724        0.024      345.459       23.004      862.216
10/06/2014  19:41:00      -51.432      -14.819       -9.058       17.156       16.526       11.548      294.334      273.098      133.345        0.182        0.035       53.524        9.871        0.034      345.179       22.524      862.202
10/06/2014  19:42:00      -52.027      -17.062       -4.756       16.787       17.858       13.622      281.816      318.924      185.551        0.190        0.039       54.753        9.923        0.033      344.907       22.059      862.194
10/06/2014  19:43:00      -59.343      -13.122       -9.608       15.054       18.032        9.623      226.629      325.171       92.607        0.222        0.032       60.777        7.584        0.016      344.916       22.074      862.185
10/06/2014  19:44:00      -56.900      -16.413      -16.610       17.927       24.607       12.295      321.364      605.485      151.171        0.243        0.054       59.220        9.811        0.027      344.898       22.045      862.189
10/06/2014  19:45:00      -68.853       -0.763      -11.041       24.051       20.530       12.900      578.431      421.486      166.410        0.301        0.058       68.857        9.118        0.018      345.079       22.354      862.182
10/06/2014  19:46:00      -77.627      -14.674      -13.728       15.392       22.445       15.526      236.924      503.780      241.062        0.371        0.049       79.002        5.171        0.004      344.862       21.983      862.186
10/06/2014  19:47:00      -64.030       -7.969      -12.320       15.014       19.876       11.477      225.424      395.071      131.726        0.253        0.038       64.524        8.559        0.018      344.930       22.098      862.180
10/06/2014  19:48:00      -78.083      -13.462      -20.841       30.158       25.539       18.737      909.477      652.254      351.063        0.431        0.096       79.235       14.040        0.031      344.906       22.056      862.183
10/06/2014  19:49:00      -66.531      -18.485       -9.007       24.293       17.391       12.674      590.156      302.453      160.635        0.295        0.053       69.051        9.965        0.021      344.846       21.954      862.185
10/06/2014  19:50:00      -92.975      -23.541      -15.670       16.407       19.947       12.409      269.175      397.898      153.986        0.513        0.041       95.909        8.170        0.007      344.735       21.764      862.189
10/06/2014  19:51:00     -108.733       -8.848      -15.580       32.310       20.203       16.532     1043.944      408.164      273.307        0.693        0.086      109.092       16.446        0.023      344.692       21.692      862.194
10/06/2014  19:52:00      -87.139        8.066      -17.033       13.864       21.504       18.142      192.198      462.432      329.145        0.447        0.049       87.512        9.252        0.011      344.714       21.728      862.195
10/06/2014  19:53:00      -83.077       -7.786      -18.512       18.642       19.477       18.636      347.539      379.350      347.317        0.419        0.054       83.441       14.041        0.028      344.665       21.646      862.188
10/06/2014  19:54:00     -112.189        0.082      -21.153       21.911       15.409       13.095      480.092      237.438      171.470        0.696        0.044      112.189        7.064        0.004      344.618       21.565      862.196
10/06/2014  19:55:00     -100.228       -3.736      -13.368       19.832       24.697       15.043      393.305      609.922      226.303        0.573        0.061      100.298       11.348        0.013      344.463       21.300      862.187
10/06/2014  19:56:00      -96.207       -6.282      -20.951       18.794       18.313       13.923      353.206      335.375      193.860        0.531        0.044       96.412        7.735        0.006      344.597       21.530      862.193
10/06/2014  19:57:00      -81.302       -9.407      -18.687       16.665       16.727       13.244      277.730      279.809      175.394        0.389        0.037       81.845       11.073        0.018      344.512       21.385      862.194
10/06/2014  19:58:00      -75.479       -5.387       -7.414       26.370       17.179       14.836      695.357      295.103      220.105        0.350        0.061       75.671       10.820        0.020      344.493       21.350      862.201
10/06/2014  19:59:00      -88.880      -25.641       -8.669       29.342       35.745       19.864      860.936     1277.681      394.595        0.558        0.127       92.505       13.683        0.022      344.430       21.243      862.203
10/06/2014  20:00:00     -130.595        3.034      -11.801       31.699       31.061       25.065     1004.839      964.781      628.260        0.990        0.130      130.630       16.651        0.016      344.395       21.183      862.214
10/06/2014  20:01:00     -102.999      -14.962      -13.802       33.168       28.265       18.914     1100.129      798.936      357.756        0.664        0.113      104.080       15.375        0.022      344.305       21.030      862.219
10/06/2014  20:02:00      -74.800      -11.185       -3.132       33.166       33.807       24.627     1100.013     1142.899      606.479        0.429        0.142       75.631       19.678        0.068      344.258       20.950      862.233
10/06/2014  20:03:00      -99.394      -10.724      -17.721       43.702       31.463       25.387     1909.855      989.916      644.488        0.693        0.177       99.971       22.058        0.049      344.345       21.098      862.232
10/06/2014  20:04:00     -110.558        5.863      -13.290       48.688       36.284       25.830     2370.564     1316.557      667.212        0.839        0.218      110.713       23.603        0.045      344.300       21.020      862.235
10/06/2014  20:05:00     -140.233       -0.481      -13.670       56.106       31.882       22.977     3147.882     1016.458      527.938        1.227        0.235      140.233       24.826        0.031      344.263       20.957      862.240
10/06/2014  20:06:00     -112.377      -11.690       -8.098       33.792       31.620       20.743     1141.879      999.811      430.289        0.770        0.129      112.983       14.490        0.016      344.190       20.833      862.248
10/06/2014  20:07:00      -94.755       -0.195      -10.319       56.355       33.902       21.280     3175.900     1149.323      452.851        0.693        0.239       94.755       24.417        0.066      344.095       20.670      862.250
10/06/2014  20:08:00      -99.203        9.030      -11.427       56.840       38.985       34.027     3230.837     1519.800     1157.863        0.798        0.295       99.613       30.271        0.092      344.188       20.828      862.257
10/06/2014  20:09:00     -122.026        2.284      -18.655       41.210       29.794       24.164     1698.239      887.674      583.883        0.921        0.158      122.048       19.111        0.025      344.176       20.810      862.252
10/06/2014  20:10:00     -128.181        4.632      -22.309       45.075       30.399       20.347     2031.726      924.123      414.002        1.016        0.168      128.265       15.925        0.015      344.242       20.922      862.264
10/06/2014  20:11:00     -114.104        3.897      -21.982       49.950       36.084       21.453     2495.012     1302.042      460.234        0.889        0.213      114.171       24.115        0.045      344.237       20.914      862.254
10/06/2014  20:12:00      -93.997        2.423      -20.854       59.395       33.194       21.283     3527.736     1101.866      452.979        0.718        0.254       94.029       24.796        0.070      344.241       20.920      862.257
10/06/2014  20:13:00     -132.533       29.419      -18.661       44.821       37.022       29.863     2008.882     1370.649      891.804        1.152        0.214      135.759       24.066        0.031      344.188       20.829      862.249
10/06/2014  20:14:00     -137.056       28.042      -13.109       50.641       35.724       23.892     2564.481     1276.188      570.843        1.208        0.221      139.896        6.802        0.002      344.315       21.047      862.251
10/06/2014  20:15:00     -137.693       10.688      -13.995       48.747       44.204       26.545     2376.308     1954.000      704.629        1.215        0.252      138.108       22.914        0.028      344.270       20.970      862.246
10/06/2014  20:16:00     -160.563       21.525      -15.527       46.420       40.647       29.548     2154.828     1652.173      873.055        1.558        0.234      162.000       27.431        0.029      344.285       20.995      862.237
10/06/2014  20:17:00     -192.655       31.286      -19.644       43.949       33.340       19.900     1931.480     1111.546      396.018        2.096        0.172      195.179       11.372        0.003      344.319       21.052      862.238
10/06/2014  20:18:00     -111.251       -4.477       -6.520       43.438       36.798       26.355     1886.851     1354.126      694.586        0.819        0.197      111.341       25.009        0.050      344.219       20.883      862.226
10/06/2014  20:19:00      -96.548       -4.733      -13.608       34.466       29.314       19.725     1187.910      859.295      389.061        0.598        0.122       96.664        9.666        0.010      344.224       20.893      862.218
10/06/2014  20:20:00     -140.952       -8.212      -18.073       42.635       39.494       32.753     1817.733     1559.808     1072.791        1.236        0.223      141.191       22.767        0.026      344.165       20.789      862.203
10/06/2014  20:21:00     -148.034       -5.507      -17.165       51.951       36.308       25.834     2698.914     1318.267      667.389        1.346        0.234      148.136       23.190        0.025      344.141       20.748      862.201
10/06/2014  20:22:00     -153.831       -7.404      -31.115       32.782       33.831       20.227     1074.628     1144.537      409.142        1.366        0.131      154.009       12.275        0.006      344.142       20.751      862.197
10/06/2014  20:23:00     -130.778      -24.784      -18.399       28.425       36.596       21.919      807.974     1339.283      480.431        1.034        0.131      133.105       13.915        0.011      344.059       20.610      862.202
10/06/2014  20:24:00     -107.487      -47.631      -13.451       30.316       39.608       25.873      919.057     1568.808      669.398        0.858        0.158      117.568       13.234        0.013      343.958       20.436      862.203
10/06/2014  20:25:00     -104.449      -23.099      -11.962       27.377       30.603       25.486      749.488      936.514      649.520        0.696        0.117      106.972        9.482        0.008      343.897       20.334      862.196
10/06/2014  20:26:00     -130.064      -38.491      -14.939       48.576       29.957       19.198     2359.598      897.400      368.550        1.112        0.181      135.639       14.370        0.011      343.851       20.254      862.203
10/06/2014  20:27:00      -76.431      -46.606      -16.212       66.753       39.819       20.839     4455.919     1585.527      434.281        0.738        0.324       89.520       18.855        0.044      343.833       20.223      862.190
10/06/2014  20:28:00      -52.489      -40.580       -9.017       45.314       36.305       21.992     2053.400     1318.073      483.669        0.417        0.193       66.346       11.522        0.030      343.780       20.132      862.195
10/06/2014  20:29:00      -82.881      -41.951       -6.376       37.189       40.699       22.346     1383.044     1656.438      499.362        0.610        0.177       92.893       15.924        0.029      343.855       20.260      862.189
10/06/2014  20:30:00     -142.795      -30.713       -8.609       53.382       35.451       22.348     2849.657     1256.773      499.420        1.301        0.230      146.061       10.930        0.006      343.896       20.330      862.193
10/06/2014  20:31:00     -136.685      -61.132       -8.379       44.634       28.714       21.198     1992.156      824.492      449.336        1.288        0.163      149.733       19.778        0.017      343.866       20.279      862.196
10/06/2014  20:32:00     -115.472      -69.493       -1.336       42.694       32.510       23.082     1822.740     1056.875      532.791        1.079        0.171      134.770       15.420        0.013      343.869       20.285      862.195
10/06/2014  20:33:00     -117.983      -45.202        0.540       47.973       33.386       20.648     2301.432     1114.647      426.338        0.990        0.192      126.345       17.809        0.020      343.839       20.234      862.198
10/06/2014  20:34:00     -159.420      -48.807       -4.867       45.861       30.332       20.730     2103.223      920.002      429.749        1.564        0.173      166.724       21.080        0.016      343.878       20.299      862.201
10/06/2014  20:35:00     -114.721      -43.100        2.534       47.231       42.247       28.416     2230.729     1784.768      807.492        0.992        0.241      122.551       28.324        0.053      343.872       20.290      862.202
10/06/2014  20:36:00     -118.977      -64.031        1.727       56.656       36.446       23.723     3209.900     1328.303      562.804        1.168        0.255      135.113       22.963        0.029      343.872       20.290      862.204
10/06/2014  20:37:00     -134.710      -47.991        3.013       38.810       32.970       21.166     1506.207     1087.022      447.988        1.175        0.152      143.003       18.764        0.017      343.904       20.344      862.208
10/06/2014  20:38:00     -117.027      -50.177        0.334       30.067       38.039       20.390      904.021     1446.983      415.768        0.949        0.138      127.331       17.148        0.018      343.916       20.365      862.215
10/06/2014  20:39:00     -109.185      -60.232        1.241       53.009       29.466       22.460     2809.936      868.217      504.457        0.987        0.209      124.697       18.163        0.021      343.887       20.315      862.208
10/06/2014  20:40:00      -63.886      -49.021        5.529       51.474       27.812       24.131     2649.615      773.527      582.311        0.526        0.200       80.526       20.733        0.066      343.845       20.243      862.214
10/06/2014  20:41:00     -114.915      -88.807       -2.087       42.514       36.479       25.890     1807.460     1330.699      670.315        1.245        0.190      145.232       22.464        0.024      343.784       20.140      862.209
10/06/2014  20:42:00      -67.959      -51.873       13.647       69.082       55.191       42.816     4772.369     3046.097     1833.169        0.857        0.483       85.494       39.491        0.213      343.642       19.897      862.217
10/06/2014  20:43:00     -135.446     -101.653        5.169       60.847       50.411       38.353     3702.361     2541.220     1470.916        1.821        0.386      169.349       37.704        0.050      343.677       19.956      862.227
10/06/2014  20:44:00     -169.623     -132.141        6.661       76.362       64.158       45.498     5831.183     4116.233     2070.095        2.915        0.601      215.019       41.265        0.037      343.777       20.124      862.217
10/06/2014  20:45:00     -159.434     -115.216       -0.010       80.861       62.559       42.913     6538.507     3913.646     1841.510        2.549        0.615      196.708       42.870        0.047      343.818       20.195      862.236
10/06/2014  20:46:00     -168.663     -141.150       -7.654       71.824       55.592       42.868     5158.721     3090.482     1837.677        2.926        0.504      219.933       36.101        0.027      343.949       20.418      862.231
10/06/2014  20:47:00     -142.280      -92.543       -6.222       62.142       51.760       35.964     3861.618     2679.115     1293.381        1.834        0.392      169.729       34.313        0.041      343.916       20.364      862.232
10/06/2014  20:48:00     -131.436      -37.743        7.939       68.001       45.659       26.530     4624.156     2084.757      703.837        1.309        0.371      136.748       30.014        0.048      343.888       20.317      862.248
10/06/2014  20:49:00     -155.975      -75.267       -8.992       40.360       32.937       23.394     1628.930     1084.850      547.269        1.667        0.163      173.186       17.008        0.010      344.044       20.582      862.245
10/06/2014  20:50:00     -148.384      -97.563       -2.403       51.184       35.137       22.708     2619.776     1234.610      515.632        1.796        0.219      177.585       23.549        0.018      344.028       20.556      862.255
10/06/2014  20:51:00     -168.952      -97.948       -2.788       39.252       27.247       22.717     1540.724      742.407      516.079        2.047        0.140      195.291       21.851        0.013      344.090       20.662      862.250
10/06/2014  20:52:00     -134.155      -70.257       -2.428       58.305       39.132       25.617     3399.510     1531.326      656.238        1.426        0.279      151.438       20.046        0.018      343.953       20.428      862.254
10/06/2014  20:53:00     -134.870      -86.235       -5.601       38.449       35.515       18.601     1478.345     1261.347      346.006        1.437        0.154      160.083       17.069        0.011      343.842       20.239      862.248
10/06/2014  20:54:00     -130.506      -73.907        1.600       41.079       41.414       25.108     1687.482     1715.158      630.431        1.326        0.202      149.980       23.894        0.025      343.913       20.360      862.253
10/06/2014  20:55:00     -139.957      -45.156       -4.143       30.318       26.984       20.115      919.170      728.115      404.597        1.185        0.103      147.061       17.443        0.014      343.765       20.105      862.262
10/06/2014  20:56:00     -130.977      -46.336       -0.463       54.479       31.213       17.618     2967.967      974.248      310.403        1.178        0.213      138.931       22.658        0.027      343.867       20.281      862.249
10/06/2014  20:57:00     -114.399      -51.471        1.275       39.330       33.803       25.272     1546.855     1142.629      638.660        0.953        0.166      125.445       21.389        0.029      343.727       20.043      862.256
10/06/2014  20:58:00      -97.358      -72.941        1.629       49.474       37.559       28.635     2447.700     1410.713      819.940        0.974        0.234      121.651       29.251        0.058      343.706       20.007      862.257
10/06/2014  20:59:00      -98.015      -78.900        6.809       58.407       46.924       29.210     3411.414     2201.895      853.212        1.117        0.323      125.826       25.636        0.042      343.570       19.775      862.256
10/06/2014  21:00:00     -149.200     -138.624      -14.960       37.950       54.073       28.853     1440.209     2923.836      832.493        2.345        0.260      203.659       18.074        0.008      343.487       19.631      862.276
10/06/2014  21:01:00     -163.961      -98.122      -12.704       53.242       48.642       37.144     2834.676     2366.065     1379.704        2.163        0.329      191.079       26.741        0.020      343.369       19.430      862.279
10/06/2014  21:02:00     -163.908      -88.998       -3.880       56.309       44.402       32.942     3170.758     1971.577     1085.153        2.051        0.311      186.511       31.408        0.028      343.367       19.426      862.276
10/06/2014  21:03:00     -163.567      -89.513        1.936       68.854       51.802       34.041     4740.920     2683.408     1158.804        2.168        0.429      186.459       36.366        0.038      343.355       19.407      862.296
10/06/2014  21:04:00     -163.608      -78.687      -10.575       53.662       55.427       28.576     2879.605     3072.156      816.578        1.992        0.338      181.546       30.175        0.028      343.410       19.501      862.294
10/06/2014  21:05:00     -145.417      -60.726        0.538       46.146       53.575       27.122     2129.449     2870.268      735.595        1.528        0.287      157.587       22.135        0.020      343.489       19.637      862.298
10/06/2014  21:06:00     -203.047      -80.437       -5.945       55.804       34.101       27.428     3114.036     1162.882      752.268        2.638        0.251      218.399       27.268        0.016      343.468       19.597      862.311
10/06/2014  21:07:00     -182.252      -50.610        2.686       82.749       53.732       32.317     6847.432     2887.161     1044.399        2.328        0.539      189.148       39.826        0.044      343.364       19.421      862.309
10/06/2014  21:08:00     -178.663      -55.417        6.329       62.491       57.958       30.419     3905.089     3359.086      925.313        2.161        0.409      187.060       32.680        0.031      343.366       19.424      862.313
10/06/2014  21:09:00     -195.035      -52.561        4.117       66.866       50.722       34.240     4470.995     2572.723     1172.359        2.452        0.411      201.993       31.642        0.025      343.474       19.608      862.307
10/06/2014  21:10:00     -214.607      -86.827       -2.208       54.856       49.162       30.960     3009.133     2416.877      958.492        2.999        0.319      231.506       25.270        0.012      343.370       19.429      862.301
10/06/2014  21:11:00     -183.522      -79.364       -6.782       54.865       43.628       27.150     3010.148     1903.392      737.102        2.284        0.283      199.947       20.313        0.010      343.305       19.320      862.312
10/06/2014  21:12:00     -150.960      -72.702       -7.113       65.615       64.560       31.579     4305.326     4167.969      997.219        1.880        0.474      167.554       31.382        0.035      343.464       19.592      862.304
10/06/2014  21:13:00     -133.389     -104.006       -0.224       70.065       52.892       40.203     4909.040     2797.527     1616.265        1.896        0.466      169.145       37.361        0.049      343.549       19.737      862.312
10/06/2014  21:14:00     -156.904      -80.636       -5.186       58.324       48.727       31.954     3401.671     2374.276     1021.054        1.897        0.340      176.412       26.067        0.022      343.581       19.791      862.302
10/06/2014  21:15:00     -163.605      -93.327       -2.618       53.790       44.825       28.595     2893.370     2009.287      817.686        2.060        0.286      188.352       28.054        0.022      343.538       19.718      862.304
10/06/2014  21:16:00      -96.172      -65.504        3.026       53.045       46.167       29.612     2813.778     2131.348      876.887        0.968        0.291      116.361       18.715        0.026      343.463       19.591      862.309
10/06/2014  21:17:00      -82.720      -68.890        2.065       68.882       46.325       31.676     4744.722     2146.024     1003.371        0.974        0.395      107.650       36.235        0.113      343.394       19.474      862.308
10/06/2014  21:18:00     -110.129      -87.311        0.777       59.540       46.140       31.284     3544.982     2128.863      978.689        1.320        0.333      140.541       33.475        0.057      343.434       19.543      862.323
10/06/2014  21:19:00     -119.379      -71.322       -7.884       55.348       39.903       26.438     3063.393     1592.226      698.965        1.238        0.268      139.062       22.651        0.027      343.437       19.550      862.334
10/06/2014  21:20:00      -81.972      -56.224        8.820       51.636       33.094       29.506     2666.227     1095.207      870.590        0.729        0.232       99.401       30.187        0.092      343.328       19.362      862.348
10/06/2014  21:21:00      -56.530      -46.607       -3.874       37.514       36.393       29.335     1407.321     1324.465      860.561        0.449        0.180       73.266       21.238        0.084      343.273       19.269      862.365
10/06/2014  21:22:00     -109.011      -58.996       -4.050       48.643       28.316       26.307     2366.097      801.782      692.035        0.962        0.193      123.952       27.187        0.048      343.225       19.187      862.361
10/06/2014  21:23:00     -137.072      -49.220        0.554       30.342       24.916       21.386      920.658      620.824      457.374        1.160        0.100      145.641       18.932        0.017      343.188       19.124      862.370
10/06/2014  21:24:00     -123.777      -49.078        2.456       36.516       26.948       19.859     1333.422      726.194      394.365        1.009        0.123      133.151       17.742        0.018      343.164       19.084      862.377
10/06/2014  21:25:00     -126.524      -56.088       -0.860       27.475       24.294       16.700      754.862      590.219      278.887        1.039        0.081      138.399        8.768        0.004      343.230       19.195      862.382
10/06/2014  21:26:00     -104.345      -61.637       -7.379       31.587       18.444       16.235      997.744      340.166      263.585        0.817        0.080      121.190       10.824        0.008      343.175       19.101      862.396
10/06/2014  21:27:00      -77.532      -36.312        9.172       37.884       31.399       19.734     1435.200      985.905      389.436        0.511        0.141       85.614       21.348        0.062      343.107       18.986      862.402
10/06/2014  21:28:00      -96.647      -26.241       -3.568       23.167       22.201       14.274      536.727      492.864      203.737        0.564        0.062      100.146       10.311        0.011      342.949       18.716      862.413
10/06/2014  21:29:00      -49.740      -28.264        4.964       45.662       28.256       16.256     2085.012      798.376      264.272        0.322        0.157       57.210       18.409        0.104      342.937       18.697      862.420
10/06/2014  21:30:00      -53.995      -22.852        2.539       42.257       23.997       15.303     1785.629      575.844      234.182        0.302        0.130       58.632       19.796        0.114      343.053       18.895      862.415
10/06/2014  21:31:00      -82.070      -33.538        2.946       28.767       24.204       16.062      827.529      585.845      257.974        0.477        0.084       88.658       14.057        0.025      343.149       19.058      862.427
10/06/2014  21:32:00      -68.028      -21.194        2.889       39.144       23.375       15.968     1532.272      546.413      254.977        0.371        0.117       71.253       18.581        0.068      343.128       19.021      862.434
10/06/2014  21:33:00      -67.783      -40.092        0.904       42.370       20.050       12.533     1795.225      401.993      157.066        0.428        0.118       78.752       14.786        0.035      342.989       18.786      862.440
10/06/2014  21:34:00      -81.470      -46.606        3.851       29.723       31.506       19.377      883.462      992.656      375.456        0.554        0.113       93.859       16.940        0.033      343.014       18.828      862.458
10/06/2014  21:35:00      -68.102      -35.658        6.493       37.383       38.412       23.216     1397.482     1475.451      539.006        0.468        0.171       76.873       17.621        0.053      342.919       18.667      862.458
10/06/2014  21:36:00      -81.977      -50.242        7.346       56.318       35.922       20.463     3171.739     1290.423      418.720        0.709        0.244       96.148       22.413        0.054      343.029       18.853      862.464
10/06/2014  21:37:00      -63.017      -36.323        1.443       44.620       21.742       21.656     1990.989      472.704      468.983        0.411        0.147       72.736       20.739        0.081      342.953       18.723      862.477
10/06/2014  21:38:00      -97.103      -46.060       -5.294       26.373       31.646       11.144      695.550     1001.491      124.199        0.670        0.091      107.474        6.401        0.004      342.991       18.787      862.480
10/06/2014  21:39:00      -61.362      -22.552        1.972       35.723       23.595       13.734     1276.114      556.723      188.629        0.315        0.101       65.375       16.672        0.065      342.892       18.620      862.480
10/06/2014  21:40:00      -22.722       -8.997        4.259       25.003       14.224       12.560      625.135      202.336      157.742        0.080        0.049       24.438        9.414        0.148      342.855       18.557      862.495
10/06/2014  21:41:00      -33.559       -9.758       -1.221       17.808       13.982       11.087      317.114      195.495      122.928        0.093        0.032       34.949        6.168        0.031      342.845       18.539      862.494
10/06/2014  21:42:00      -41.626      -13.925        6.458       20.485       12.731       10.679      419.653      162.073      114.037        0.133        0.035       43.894       10.221        0.054      342.797       18.458      862.508
10/06/2014  21:43:00      -49.064      -41.642       -7.872       15.486       23.845        9.903      239.809      568.596       98.066        0.255        0.045       64.353        6.586        0.010      342.917       18.664      862.514
10/06/2014  21:44:00      -65.124      -35.889       -5.877       13.296       12.337       11.199      176.774      152.203      125.414        0.301        0.023       74.358        7.722        0.011      342.967       18.748      862.520
10/06/2014  21:45:00      -15.951      -30.923        2.386       26.217       13.157       10.524      687.316      173.116      110.745        0.109        0.049       34.794        6.858        0.039      342.884       18.607      862.532
10/06/2014  21:46:00        6.414      -22.877       -0.237        9.750       11.451       10.877       95.058      131.115      118.316        0.045        0.017       23.759        6.849        0.083      342.901       18.636      862.545
10/06/2014  21:47:00       12.938      -25.690        7.264        9.870       15.340        9.321       97.412      235.319       86.873        0.065        0.021       28.764        6.257        0.047      342.881       18.601      862.552
10/06/2014  21:48:00        8.116      -37.478        1.215       11.728       14.035       10.879      137.553      196.984      118.349        0.096        0.023       38.346        4.219        0.012      342.853       18.555      862.563
10/06/2014  21:49:00       14.171       -3.322        0.012        9.851        6.428        7.424       97.040       41.314       55.120        0.020        0.010       14.555        2.890        0.039      342.627       18.167      862.577
10/06/2014  21:50:00        5.610      -32.767        5.502       10.006       15.816        7.994      100.118      250.142       63.910        0.077        0.021       33.243        2.260        0.005      342.832       18.517      862.567
10/06/2014  21:51:00      -19.841      -43.405        4.261       22.187       21.219       10.710      492.265      450.240      114.694        0.168        0.053       47.725       12.407        0.068      342.951       18.721      862.565
10/06/2014  21:52:00      -54.778      -25.160       -5.731       18.641       10.277       12.788      347.500      105.625      163.546        0.214        0.031       60.280       10.728        0.032      342.849       18.547      862.564
10/06/2014  21:53:00      -62.285      -33.052       -1.609       19.669       14.055        9.960      386.887      197.545       99.207        0.283        0.034       70.511        9.511        0.018      342.743       18.365      862.553
10/06/2014  21:54:00      -44.519      -27.941        4.521       20.234       13.177       10.355      409.429      173.641      107.235        0.174        0.035       52.561       10.622        0.041      342.597       18.119      862.551
10/06/2014  21:55:00      -44.250      -26.492        3.618       25.363       16.148       12.593      643.274      260.765      158.577        0.187        0.053       51.574       10.379        0.040      342.611       18.142      862.558
10/06/2014  21:56:00      -64.381      -22.482        0.921       18.260       15.075        8.994      333.432      227.245       80.894        0.265        0.032       68.194        8.586        0.016      342.603       18.128      862.556
10/06/2014  21:57:00      -75.091       -4.603       -7.244       15.162       15.523        9.793      229.895      240.970       95.909        0.314        0.028       75.232        8.125        0.012      342.571       18.074      862.557
10/06/2014  21:58:00      -62.925       10.801       -1.339       17.353       21.192       10.969      301.109      449.099      120.315        0.247        0.044       63.845        7.183        0.013      342.486       17.929      862.572
10/06/2014  21:59:00      -70.144       17.629       -1.426       19.194       15.899       12.236      368.404      252.792      149.715        0.300        0.039       72.326       10.872        0.023      342.498       17.949      862.569
10/06/2014  22:00:00      -30.907      -22.014        0.528       17.251       13.794       10.063      297.601      190.279      101.262        0.101        0.029       37.946        7.767        0.042      342.385       17.758      862.574
10/06/2014  22:01:00      -31.716      -21.972       -0.899       18.200       11.230       10.309      331.233      126.103      106.284        0.103        0.028       38.583        9.306        0.058      342.218       17.474      862.584
10/06/2014  22:02:00      -44.669      -25.639        3.894       27.342       16.475       10.972      747.578      271.424      120.393        0.190        0.057       51.504        9.040        0.031      342.189       17.423      862.592
10/06/2014  22:03:00      -79.232      -32.452       -4.004       29.421       23.008       14.610      865.582      529.365      213.456        0.448        0.080       85.620       14.119        0.027      342.332       17.667      862.596
10/06/2014  22:04:00      -31.070      -27.251        1.765       32.456       19.701       13.513     1053.385      388.114      182.608        0.167        0.081       41.327       13.444        0.106      342.262       17.548      862.612
10/06/2014  22:05:00      -53.623       -1.470       -5.685       27.052       16.357       10.296      731.825      267.567      105.999        0.201        0.055       53.643       13.247        0.061      342.215       17.470      862.623
10/06/2014  22:06:00      -40.470      -26.918       -2.745       19.005       19.680       11.837      361.206      387.287      140.105        0.163        0.044       48.604        7.718        0.025      342.234       17.502      862.617
10/06/2014  22:07:00      -64.362       -6.040      -11.074       10.969       10.209        7.458      120.328      104.226       55.619        0.229        0.014       64.645        5.362        0.007      342.158       17.371      862.623
10/06/2014  22:08:00      -35.414       -7.149        1.569       15.319       15.918       10.639      234.672      253.394      113.181        0.095        0.030       36.128        9.295        0.066      342.078       17.237      862.632
10/06/2014  22:09:00      -43.818       -8.902       -9.141        7.531        7.736        6.337       56.709       59.845       40.163        0.112        0.008       44.713        3.692        0.007      342.177       17.402      862.639
10/06/2014  22:10:00      -38.971       -6.975       -5.841        7.153        7.319        6.909       51.166       53.563       47.728        0.088        0.008       39.591        2.351        0.004      342.288       17.593      862.655
10/06/2014  22:11:00      -38.052       -9.326       -2.790        8.067        7.638        5.950       65.076       58.342       35.400        0.085        0.008       39.179        2.605        0.004      342.307       17.624      862.649
10/06/2014  22:12:00      -46.103       -9.730       -3.967        7.153        7.895        5.856       51.161       62.331       34.292        0.119        0.007       47.119        4.450        0.009      342.258       17.541      862.656
10/06/2014  22:13:00      -53.964      -17.086       -6.843        8.122        7.918        6.335       65.973       62.699       40.131        0.171        0.008       56.604        1.801        0.001      342.321       17.647      862.667
10/06/2014  22:14:00      -29.732      -19.993       -1.317       17.453       13.178        9.936      304.613      173.656       98.732        0.093        0.029       35.829        6.828        0.036      342.085       17.248      862.672
10/06/2014  22:15:00      -58.261      -21.680       -3.151        8.628       10.804        8.178       74.440      116.736       66.878        0.207        0.013       62.164        2.240        0.001      342.123       17.314      862.677
10/06/2014  22:16:00      -64.520      -10.988       -6.067       20.606       17.202       12.136      424.624      295.921      147.293        0.259        0.043       65.449       12.538        0.037      342.015       17.130      862.688
10/06/2014  22:17:00      -85.865      -19.400      -12.511       13.036       13.991        7.882      169.944      195.741       62.127        0.417        0.021       88.029        4.692        0.003      341.945       17.011      862.690
10/06/2014  22:18:00      -98.220       -6.158      -13.513       20.396       16.239        9.888      416.008      263.720       97.779        0.532        0.039       98.413        8.090        0.007      342.017       17.132      862.689
10/06/2014  22:19:00      -92.955       -4.850      -10.018       20.758       17.589       12.288      430.883      309.385      150.989        0.483        0.045       93.082        9.737        0.011      342.175       17.400      862.697
10/06/2014  22:20:00      -90.886      -10.197       -6.471       22.964       16.871       11.584      527.345      284.624      134.182        0.468        0.047       91.456       11.138        0.015      342.205       17.451      862.697
10/06/2014  22:21:00      -66.648      -26.627       -4.867       10.579       12.658        7.825      111.905      160.221       61.237        0.275        0.017       71.770        2.217        0.001      342.114       17.298      862.695
10/06/2014  22:22:00      -56.740      -27.611       -3.719       13.549       10.520        7.255      183.563      110.678       52.632        0.217        0.017       63.101        4.374        0.005      342.013       17.127      862.708
10/06/2014  22:23:00      -65.945      -28.825       -4.392        9.640       13.810        6.734       92.931      190.720       45.340        0.276        0.016       71.970        3.799        0.003      342.130       17.326      862.710
10/06/2014  22:24:00      -44.913      -33.458       -0.099       18.644        7.743       10.369      347.584       59.948      107.507        0.183        0.026       56.006       11.417        0.042      342.139       17.339      862.716
10/06/2014  22:25:00      -49.070      -31.233       -7.181        9.799        6.974        7.710       96.014       48.637       59.442        0.182        0.010       58.167        4.644        0.006      342.176       17.401      862.719
10/06/2014  22:26:00      -58.774      -25.301       -5.958        8.449        8.086        6.084       71.389       65.383       37.010        0.215        0.009       63.988        4.044        0.004      341.993       17.091      862.711
10/06/2014  22:27:00      -75.101      -19.997       -5.413       12.897       10.719        9.115      166.338      114.906       83.091        0.322        0.018       77.718        5.972        0.006      341.925       16.976      862.714
10/06/2014  22:28:00      -86.099      -27.838       -8.791        8.531        7.640        8.498       72.777       58.366       72.208        0.423        0.010       90.488        1.856        0.000      341.888       16.913      862.710
10/06/2014  22:29:00      -91.875      -20.944      -13.884        8.753       14.460        8.835       76.621      209.094       78.051        0.472        0.018       94.232        5.199        0.003      341.967       17.048      862.696
10/06/2014  22:30:00      -90.148      -18.804      -12.421       11.955       12.710        9.513      142.913      161.543       90.502        0.451        0.020       92.088        6.374        0.005      341.983       17.074      862.686
10/06/2014  22:31:00      -93.223      -30.992      -16.499        9.535       12.037        8.275       90.910      144.886       68.473        0.511        0.015       98.240        4.609        0.002      342.008       17.117      862.680
10/06/2014  22:32:00      -86.951      -25.820      -12.451       11.527       11.957        7.898      132.879      142.967       62.384        0.436        0.017       90.703        4.566        0.003      342.033       17.159      862.667
10/06/2014  22:33:00      -76.325      -18.162      -11.207       13.348       10.286        9.979      178.164      105.798       99.588        0.333        0.019       78.456        4.681        0.004      341.936       16.995      862.656
10/06/2014  22:34:00      -79.569      -19.910      -12.831       10.082       13.965        7.513      101.655      195.008       56.443        0.362        0.018       82.022        4.405        0.003      341.918       16.963      862.663
10/06/2014  22:35:00      -84.128      -25.473      -12.147       10.354        8.199        7.420      107.211       67.217       55.050        0.405        0.011       87.900        4.995        0.003      341.895       16.926      862.654
10/06/2014  22:36:00     -106.971      -33.764       -8.531       12.137       13.628        8.822      147.298      185.721       77.823        0.653        0.021      112.173        2.527        0.001      341.900       16.933      862.655
10/06/2014  22:37:00     -122.046      -36.022       -8.270       11.642        9.138        7.972      135.540       83.508       63.546        0.827        0.014      127.251        5.634        0.002      341.791       16.750      862.651
10/06/2014  22:38:00     -134.344       -8.266      -16.359       26.874       19.108       14.550      722.195      365.103      211.713        0.984        0.065      134.598       12.074        0.008      341.625       16.468      862.638
10/06/2014  22:39:00     -168.503       11.073      -24.019       13.801       11.699       12.675      190.476      136.876      160.643        1.479        0.024      168.866        8.263        0.002      341.554       16.348      862.636
10/06/2014  22:40:00     -171.463       -1.971      -23.759       11.931        9.534        8.961      142.357       90.903       80.295        1.514        0.016      171.474        5.806        0.001      341.697       16.589      862.621
10/06/2014  22:41:00     -152.771      -14.331      -26.896       17.177       13.222       17.237      295.063      174.834      297.110        1.252        0.038      153.441       11.954        0.006      341.656       16.520      862.605
10/06/2014  22:42:00     -135.362      -35.017      -15.065       29.781       21.868       16.050      886.920      478.228      257.604        1.070        0.081      139.818       14.611        0.011      341.373       16.041      862.612
10/06/2014  22:43:00     -138.369      -35.746      -14.031       22.302       19.185       15.720      497.388      368.083      247.122        1.087        0.056      142.912       12.598        0.008      341.351       16.005      862.623
10/06/2014  22:44:00     -129.400      -28.747      -14.704       25.805       23.525       18.120      665.880      553.444      328.329        0.967        0.077      132.555        8.875        0.004      341.298       15.914      862.615
10/06/2014  22:45:00     -131.230      -30.975       -9.849       30.330       24.410       20.227      919.931      595.854      409.147        1.010        0.096      134.836       15.185        0.013      341.231       15.801      862.625
10/06/2014  22:46:00     -126.170      -10.945       -5.739       46.921       30.055       25.411     2201.615      903.279      645.720        0.991        0.188      126.644       27.350        0.047      341.129       15.628      862.641
10/06/2014  22:47:00      -99.607      -20.809       -6.499       50.549       30.885       20.646     2555.227      953.881      426.237        0.717        0.197      101.758       22.776        0.050      341.075       15.537      862.644
10/06/2014  22:48:00     -129.211      -21.643       -5.719       45.184       32.225       25.651     2041.619     1038.453      657.957        1.047        0.187      131.011       26.025        0.039      341.147       15.658      862.664
10/06/2014  22:49:00     -139.645       -5.372      -10.861       32.955       35.746       18.842     1086.056     1277.776      355.025        1.118        0.136      139.748       16.320        0.014      341.403       16.092      862.678
10/06/2014  22:50:00     -130.764      -21.621      -14.795       40.044       33.984       19.435     1603.513     1154.888      377.735        1.046        0.157      132.539       18.624        0.020      341.367       16.031      862.692
10/06/2014  22:51:00     -137.428       -8.124      -10.551       42.825       36.945       23.253     1834.019     1364.908      540.692        1.140        0.187      137.668       24.145        0.031      341.382       16.056      862.703
10/06/2014  22:52:00     -176.514        4.116      -20.262       30.602       21.635       19.913      936.477      468.068      396.546        1.669        0.090      176.562       15.047        0.007      341.320       15.948      862.704
10/06/2014  22:53:00     -186.427       29.411      -11.217       26.523       36.171       16.305      703.457     1308.354      265.844        1.901        0.114      188.733       13.465        0.005      341.537       16.319      862.710
10/06/2014  22:54:00     -195.606       62.524      -14.762       27.411       21.540       14.712      751.357      463.979      216.441        2.191        0.072      205.356       10.921        0.003      341.907       16.945      862.703
10/06/2014  22:55:00     -151.166       60.319       -7.832       47.322       26.157       19.731     2239.410      684.192      389.323        1.493        0.166      162.756       14.831        0.008      342.018       17.135      862.702
10/06/2014  22:56:00     -112.443       33.896      -14.141       34.316       32.268       18.921     1177.554     1041.240      357.991        0.828        0.129      117.441       12.602        0.012      342.003       17.107      862.691
10/06/2014  22:57:00      -92.860      -19.805       -6.709       31.952       25.970       19.186     1020.910      674.465      368.087        0.556        0.103       94.948       10.925        0.013      341.816       16.790      862.696
10/06/2014  22:58:00      -98.224      -29.471       -8.892       21.282       47.932       20.235      452.941     2297.500      409.453        0.688        0.158      102.550       13.973        0.019      341.442       16.157      862.682
10/06/2014  22:59:00     -132.966      -27.270      -17.729       27.892       33.906       17.646      777.949     1149.605      311.373        1.049        0.112      135.734       13.666        0.010      341.245       15.823      862.679
10/06/2014  23:00:00     -145.416      -43.607      -15.946       25.628       33.339       19.876      656.816     1111.490      395.065        1.273        0.108      151.813       15.440        0.010      341.169       15.696      862.667
10/06/2014  23:01:00     -146.253       39.449      -14.339       60.446       38.191       26.606     3653.667     1458.580      707.855        1.448        0.291      151.480       22.850        0.023      341.671       16.545      862.670
10/06/2014  23:02:00     -123.882       40.521       -8.301       45.000       54.596       27.386     2024.975     2980.772      749.975        1.141        0.288      130.341       22.069        0.029      341.873       16.888      862.677
10/06/2014  23:03:00     -108.862      -19.269       -4.447       44.280       44.560       25.254     1960.725     1985.552      637.761        0.841        0.229      110.555       23.954        0.047      341.371       16.037      862.666
10/06/2014  23:04:00     -109.352      -16.372       -3.067       74.965       37.876       26.641     5619.774     1434.621      709.764        1.000        0.388      110.571       29.522        0.071      341.170       15.697      862.670
10/06/2014  23:05:00      -94.480       10.864       -9.420       45.492       34.399       18.950     2069.554     1183.300      359.103        0.637        0.181       95.103       14.028        0.022      341.529       16.303      862.657
10/06/2014  23:06:00     -125.052       42.296       -4.379       62.580       35.166       32.230     3916.314     1236.619     1038.797        1.182        0.310      132.011       22.141        0.028      341.835       16.823      862.658
10/06/2014  23:07:00     -153.002       30.603      -10.220       52.360       37.143       27.614     2741.562     1379.631      762.550        1.467        0.244      156.033       21.881        0.020      341.787       16.741      862.653
10/06/2014  23:08:00     -146.837      -57.524       -9.220       30.140       30.292       17.660      908.411      917.630      311.873        1.355        0.107      157.703       12.421        0.006      341.391       16.070      862.655
10/06/2014  23:09:00     -126.706      -10.340       -8.421       42.371       26.492       18.709     1795.318      701.830      350.043        0.954        0.142      127.128       14.255        0.013      341.269       15.865      862.663
10/06/2014  23:10:00     -102.654      -11.682       -7.870       53.164       34.703       23.965     2826.359     1204.265      574.310        0.767        0.230      103.317       26.595        0.066      341.120       15.612      862.665
10/06/2014  23:11:00     -153.057      -11.551      -14.873       39.778       28.444       23.556     1582.287      809.059      554.877        1.336        0.147      153.492       19.078        0.015      341.197       15.744      862.667
10/06/2014  23:12:00     -198.911       13.157      -19.105       34.399       27.010       19.672     1183.300      729.549      386.994        2.120        0.115      199.345       15.526        0.006      341.303       15.921      862.669
10/06/2014  23:13:00     -178.848        1.478      -22.494       35.641       37.645       18.430     1270.286     1417.173      339.679        1.776        0.151      178.854       15.075        0.007      341.280       15.884      862.667
10/06/2014  23:14:00     -169.301      -29.947      -13.991       39.891       33.523       25.331     1591.296     1123.803      641.653        1.656        0.168      171.929       17.879        0.011      341.247       15.827      862.675
10/06/2014  23:15:00     -166.277      -23.714       -7.641       49.321       35.951       28.552     2432.543     1292.460      815.201        1.640        0.227      167.960       26.078        0.024      341.257       15.844      862.665
10/06/2014  23:16:00     -165.685      -28.447      -20.849       26.691       30.915       18.227      712.411      955.710      332.233        1.535        0.100      168.110       15.348        0.008      341.359       16.016      862.674
10/06/2014  23:17:00     -123.204      -58.635       -4.811       30.590       23.938       18.877      935.778      573.031      356.340        1.025        0.093      136.445       17.134        0.016      341.381       16.053      862.670
10/06/2014  23:18:00      -49.277      -38.043       -0.727       52.904       30.971       25.447     2798.796      959.218      647.538        0.414        0.220       62.254       31.687        0.259      341.350       16.002      862.667
10/06/2014  23:19:00      -65.858      -40.487        3.317       38.260       21.367       16.442     1463.841      456.565      270.325        0.409        0.110       77.308       17.924        0.054      341.363       16.023      862.674
10/06/2014  23:20:00      -91.068      -51.554       -6.272       20.676       17.031       14.676      427.504      290.049      215.398        0.596        0.047      104.648       11.652        0.012      341.401       16.088      862.672
10/06/2014  23:21:00     -102.806      -41.386      -10.627       16.841       11.723        9.542      283.613      137.422       91.059        0.645        0.026      110.823        4.329        0.002      341.496       16.247      862.669
10/06/2014  23:22:00     -101.334      -22.048      -11.337       19.329       20.948       12.081      373.606      438.812      145.949        0.592        0.048      103.705       11.793        0.013      341.483       16.226      862.674
10/06/2014  23:23:00      -96.581      -36.518      -11.015       10.339       11.779        8.218      106.900      138.751       67.530        0.555        0.016      103.255        5.826        0.003      341.479       16.218      862.677
10/06/2014  23:24:00     -113.745      -46.094      -16.819       13.026       15.953        9.701      169.683      254.505       94.108        0.793        0.026      122.730        6.435        0.003      341.467       16.199      862.685
10/06/2014  23:25:00      -85.994      -45.749       -2.804       18.544       14.925        8.577      343.889      222.751       73.571        0.507        0.032       97.406        5.222        0.003      341.428       16.133      862.680
10/06/2014  23:26:00      -29.148      -23.204       -2.034       24.482       15.405       10.673      599.353      237.322      113.907        0.117        0.048       37.257        8.611        0.053      341.344       15.991      862.680
10/06/2014  23:27:00      -22.631      -21.950        1.392       17.397       11.728       13.653      302.643      137.550      186.392        0.081        0.031       31.527       12.006        0.145      341.387       16.065      862.690
10/06/2014  23:28:00      -39.620      -22.184       -0.675       31.687       23.189       10.851     1004.053      537.752      117.751        0.186        0.083       45.408       14.361        0.100      341.553       16.345      862.685
10/06/2014  23:29:00      -93.780      -44.427      -12.405       14.669       10.568        9.678      215.177      111.682       93.656        0.567        0.021      103.771        7.292        0.005      341.695       16.587      862.674
10/06/2014  23:30:00      -47.211      -30.524        2.371       27.871       20.598       14.351      776.802      424.258      205.953        0.229        0.070       56.219       13.919        0.061      341.473       16.208      862.672
10/06/2014  23:31:00      -80.388      -32.825       -2.988       11.182        8.884        4.721      125.040       78.917       22.283        0.389        0.011       86.832        3.499        0.002      341.436       16.147      862.681
10/06/2014  23:32:00      -52.927      -27.425       -1.347       16.309       12.855       11.624      265.978      165.246      135.113        0.206        0.028       59.610       10.513        0.031      341.313       15.939      862.687
10/06/2014  23:33:00      -70.056      -33.033       -6.235        9.229        6.766        6.072       85.182       45.777       36.865        0.310        0.008       77.453        3.911        0.003      341.379       16.050      862.684
10/06/2014  23:34:00      -46.471      -23.526        1.544       16.763       12.410        7.545      280.992      154.013       56.930        0.160        0.025       52.087        4.299        0.007      341.329       15.965      862.695
10/06/2014  23:35:00      -45.236      -18.190       -4.560        7.518        9.031        5.871       56.520       81.551       34.474        0.129        0.009       48.756        4.690        0.009      341.411       16.104      862.704
10/06/2014  23:36:00      -52.069      -24.081       -7.804        6.740        5.307        5.049       45.433       28.164       25.497        0.173        0.005       57.368        3.134        0.003      341.445       16.163      862.700
10/06/2014  23:37:00      -61.498      -26.728       -9.439        9.152        6.134        4.760       83.767       37.623       22.657        0.236        0.007       67.055        3.116        0.002      341.485       16.229      862.696
10/06/2014  23:38:00      -76.530      -31.077       -9.360        9.410        6.716        5.402       88.548       45.107       29.180        0.354        0.008       82.599        4.553        0.003      341.404       16.094      862.697
10/06/2014  23:39:00      -84.429      -26.071      -10.704        9.738        9.940        7.360       94.833       98.803       54.166        0.409        0.012       88.363        5.036        0.003      341.301       15.918      862.705
10/06/2014  23:40:00      -82.374      -41.484       -7.225        9.708       10.134        6.342       94.248      102.698       40.216        0.440        0.012       92.231        2.818        0.001      341.284       15.890      862.706
10/06/2014  23:41:00      -83.211      -38.591      -12.714        9.650       14.510        9.611       93.117      210.538       92.366        0.449        0.020       91.724        4.325        0.002      341.525       16.297      862.706
10/06/2014  23:42:00      -89.391      -49.058      -10.778        9.644       11.633        8.641       93.012      135.328       74.665        0.541        0.015      101.968        6.155        0.004      341.374       16.043      862.704
10/06/2014  23:43:00     -115.680      -38.580      -14.536        9.511        9.701        6.766       90.458       94.116       45.783        0.766        0.012      121.944        4.983        0.002      341.225       15.789      862.707
10/06/2014  23:44:00     -101.246      -25.272      -20.724       10.863       10.805       10.411      118.002      116.740      108.390        0.583        0.017      104.353        7.132        0.005      341.249       15.831      862.715
10/06/2014  23:45:00     -111.316      -37.855      -19.115       10.676        8.305        7.661      113.983       68.979       58.684        0.722        0.012      117.576        2.795        0.001      341.300       15.918      862.718
10/06/2014  23:46:00      -99.720      -33.292      -12.202        9.910       12.074       10.780       98.211      145.779      116.217        0.578        0.018      105.131        5.723        0.003      341.300       15.916      862.723
10/06/2014  23:47:00      -87.028      -36.592      -12.384       10.599        9.825        8.801      112.329       96.524       77.449        0.468        0.014       94.408        5.761        0.004      341.299       15.917      862.721
10/06/2014  23:48:00      -78.080      -37.707      -13.704       12.532       14.683        9.398      157.055      215.596       88.313        0.408        0.023       86.709        5.853        0.005      341.264       15.857      862.726
10/06/2014  23:49:00      -93.422      -30.841      -14.931        8.718        9.958        9.019       76.012       99.168       81.348        0.508        0.013       98.381        4.720        0.002      341.215       15.774      862.725
10/06/2014  23:50:00      -73.962      -41.119      -10.371        8.029       10.101        8.723       64.458      102.030       76.085        0.376        0.012       84.624        2.582        0.001      341.144       15.653      862.723
10/06/2014  23:51:00      -94.285      -30.041      -13.681       15.749       15.584       12.405      248.017      242.862      153.874        0.531        0.032       98.955       11.179        0.013      341.113       15.601      862.726
10/06/2014  23:52:00      -58.903      -32.096      -14.092       20.796        9.690        9.030      432.455       93.892       81.542        0.265        0.030       67.080        6.705        0.010      341.184       15.721      862.741
10/06/2014  23:53:00      -48.013      -10.502      -12.682       11.847       10.112        6.405      140.360      102.260       41.030        0.143        0.014       49.148        6.188        0.016      341.313       15.939      862.739
10/06/2014  23:54:00      -52.817      -28.545      -10.551       15.554        9.394        6.942      241.941       88.251       48.193        0.205        0.019       60.037        4.226        0.005      341.297       15.911      862.735
10/06/2014  23:55:00      -89.983      -28.659      -15.993       10.990        9.029        6.143      120.781       81.522       37.740        0.471        0.012       94.437        4.621        0.002      341.079       15.543      862.731
10/06/2014  23:56:00      -73.856      -28.706      -11.787        9.917       11.088        7.987       98.351      122.941       63.785        0.335        0.014       79.239        4.285        0.003      341.139       15.643      862.732
10/06/2014  23:57:00      -75.588      -29.531      -18.187       11.848       13.913       11.600      140.377      193.569      134.559        0.369        0.023       81.152        8.529        0.011      341.101       15.579      862.730
10/06/2014  23:58:00      -87.900      -22.730      -14.390       12.067       16.113       10.928      145.605      259.642      119.429        0.449        0.026       90.791        5.935        0.004      341.150       15.665      862.724
10/06/2014  23:59:00      -92.931      -27.386      -16.985       13.299       11.456       11.191      176.874      131.244      125.249        0.505        0.022       96.882        7.343        0.006      341.273       15.870      862.714
